GFSSGP_con_mucape_000.txt.gz
CAPE
0 0 0 0 0 0 0 0 0 0 0 3 9 302 420 431 654 680 967 1227 1293 1099 987 293 984 928 1188 1621 2093 2306 2462 2216 2563 2484 2096 1894 1335 1124 839 484 57 6 23 49 529 860 1287 1413 1548
0 0 0 0 0 0 0 0 0 0 0 0 16 273 423 629 933 969 1327 1475 1244 1209 1058 676 1344 1274 1013 1185 1470 2039 2284 2286 2296 2400 2046 1650 1122 920 975 432 147 6 86 108 402 733 827 1498 992
0 0 0 0 0 0 0 0 0 0 0 0 25 638 472 836 851 1033 1523 1480 1420 1340 1280 1054 1497 1428 1230 1335 1598 1815 1925 2139 2267 2248 2050 1786 1509 971 820 706 318 128 285 1018 806 337 618 787 734
0 0 0 0 0 0 0 0 0 0 0 0 41 756 1042 1179 1045 1300 1318 1642 1578 1624 1511 1343 1635 1555 1355 1065 1409 1836 1797 1891 2193 2237 2276 2155 1323 1010 807 433 274 418 747 688 447 223 50 643 671
0 0 0 0 0 0 0 0 0 0 49 38 203 534 937 1629 1489 1331 1353 1412 1623 1746 1865 1545 1673 1769 1656 1430 1445 1617 1776 1709 1747 2049 2044 1853 1591 1522 1045 985 795 875 396 290 117 37 0 370 755
0 0 0 1 0 0 0 0 0 26 60 145 335 201 1082 1486 1674 1694 1363 1351 1570 1888 2052 1916 1709 1721 1490 1340 1262 1199 1307 1387 1589 1741 1712 1705 1510 1383 963 982 1052 783 502 288 93 318 587 755 675
0 0 0 0 0 0 0 0 0 0 27 41 206 384 609 1046 1798 1789 1406 1339 1288 1410 1729 2160 2035 1704 1503 1157 748 801 930 1049 1320 1467 1416 1358 1263 680 457 470 526 489 356 268 427 482 604 669 727
0 0 0 0 0 0 0 0 0 0 0 0 0 179 486 1064 1686 1693 1573 1573 1637 1622 1588 1738 1890 2169 1795 1373 770 605 873 976 1100 1301 1258 1431 898 365 264 163 51 123 190 147 171 242 228 302 355
0 0 0 0 0 0 0 0 0 0 0 0 0 38 1106 1358 1503 1424 1430 1322 1388 1007 1416 2101 2178 2218 1818 1594 832 1142 1077 1106 982 673 805 696 1195 574 420 182 50 96 0 0 0 0 0 0 25
0 0 0 0 0 0 0 0 0 0 0 0 0 0 411 1030 1147 1018 879 1017 868 499 372 687 1340 1809 1804 1242 622 1922 1663 1313 1246 1275 981 891 677 423 262 69 15 0 0 0 0 7 0 0 0
0 0 0 0 0 0 0 0 0 0 0 0 0 4 62 302 461 593 387 441 228 143 94 72 758 1375 1835 1635 1559 1617 1417 1319 1107 953 767 406 226 149 148 138 158 55 0 0 0 16 53 0 11
0 0 0 0 0 0 0 0 0 0 0 0 0 0 6 91 231 286 269 67 0 7 3 6 483 853 926 798 709 880 582 470 348 313 381 417 270 116 82 35 0 0 3 2 2 0 0 0 0
0 0 0 0 0 0 0 0 0 0 0 0 0 0 0 10 60 58 1 0 0 0 0 0 74 417 701 443 332 157 40 0 0 0 0 48 64 80 32 0 0 1 2 0 0 0 0 0 0
0 0 0 0 0 0 0 0 0 0 0 0 0 0 0 0 0 0 0 0 0 0 0 0 0 44 38 254 107 1 0 0 0 0 0 0 1 0 0 0 0 0 0 0 1 16 20 11 1
0 0 0 0 0 0 0 0 0 0 0 0 0 0 0 0 0 0 0 0 0 0 0 0 0 0 0 0 0 0 0 0 0 0 0 0 0 0 0 0 0 0 0 0 0 0 0 0 9
0 0 0 0 0 0 0 0 0 0 0 0 0 0 0 0 0 0 0 0 0 0 0 0 0 0 0 0 0 0 0 0 0 0 0 0 0 0 0 0 0 0 0 0 0 0 0 0 0
0 0 0 0 0 0 0 0 0 0 0 0 0 0 0 0 0 0 0 0 0 0 0 0 0 0 0 0 0 0 0 0 0 0 0 0 0 0 0 0 0 0 0 0 0 0 0 0 0
0 0 0 0 0 0 0 0 0 0 0 0 0 0 0 0 0 0 0 0 0 0 0 0 0 0 0 0 0 0 0 0 0 0 0 0 0 0 0 0 0 0 0 0 0 0 0 0 0
0 0 0 0 0 0 0 0 0 0 0 0 0 0 0 0 0 0 0 0 0 0 0 0 0 0 0 0 0 0 0 0 0 0 0 0 0 0 0 0 0 0 0 0 0 0 0 0 0
0 0 0 0 0 0 0 0 0 0 0 0 0 0 0 0 0 0 0 0 0 0 0 0 0 0 0 0 0 0 0 0 0 0 0 0 0 0 0 0 0 0 0 0 0 2 0 0 0
0 0 0 0 0 0 0 0 0 0 0 0 0 0 0 0 0 0 0 0 0 0 0 0 0 0 0 0 0 0 0 0 0 0 0 0 0 0 0 0 0 0 0 0 0 0 1 0 5
0 0 0 0 0 0 0 0 0 0 0 0 0 0 0 0 0 0 0 0 0 0 0 0 0 0 0 0 0 0 0 0 0 0 0 0 10 12 18 26 40 38 23 0 4 6 34 23 0
0 0 0 0 0 0 0 0 0 0 0 0 0 0 0 0 0 0 0 0 0 0 0 0 0 0 0 0 0 0 0 0 0 0 0 0 0 0 0 0 0 29 32 30 17 12 10 14 25
0 0 0 0 0 87 7 0 0 0 0 0 0 0 0 0 0 0 0 0 0 0 0 0 0 0 0 0 0 0 0 0 0 0 0 0 0 0 0 0 0 0 0 0 0 0 0 0 0
0 0 26 304 638 302 1 0 0 0 0 0 0 0 0 0 0 0 0 0 0 0 0 1 0 0 0 0 0 0 0 0 0 0 0 0 0 0 0 0 0 0 0 0 0 0 0 0 0
0 0 8 0 0 0 0 0 0 0 0 0 0 0 0 1 0 0 1 23 12 1 1 1 0 0 0 0 0 0 0 0 0 0 1 0 0 0 0 0 0 0 0 0 0 0 0 0 0
0 0 0 0 0 0 0 0 0 0 3 0 0 0 0 0 0 0 6 8 16 16 0 5 1 0 0 0 0 0 1 0 0 2 3 0 0 0 0 0 0 0 0 0 0 0 0 0 0
0 0 0 22 0 0 0 0 0 62 37 0 12 6 0 0 0 2 1 3 0 0 0 0 24 0 0 0 0 0 0 0 5 7 0 0 0 0 0 0 0 0 0 0 0 0 0 0 0
0 0 23 5 27 0 0 0 0 0 0 5 1 0 0 4 4 1 2 1 0 0 0 0 0 0 0 0 0 0 0 0 2 1 0 0 0 0 0 0 0 0 0 0 0 0 0 0 0
0 0 0 1 0 4 2 0 0 41 52 18 51 16 5 6 0 0 0 0 0 0 0 0 0 0 0 0 0 0 0 0 0 0 0 0 0 0 0 0 0 0 0 0 0 0 0 0 0

GFSSGP_con_mucape_003.txt.gz
CAPE
0 0 0 0 0 0 0 0 0 0 0 34 221 367 488 498 508 670 1179 1150 953 969 643 756 1054 1192 1364 1736 2103 2312 2284 2479 2568 2533 2274 2024 1305 1031 899 701 419 137 30 4 61 171 596 776 1103
0 0 0 0 0 0 0 0 0 0 0 92 552 406 464 755 1051 1153 1218 1209 1182 965 953 1011 1243 1326 1476 1649 1920 2083 2154 2179 2282 2379 1989 1703 1431 1288 909 751 531 109 103 11 81 566 304 613 516
0 0 0 0 0 0 0 0 0 0 0 0 462 620 702 705 873 1405 1576 1257 1269 1310 1022 1329 1338 1243 1271 1770 1918 1974 2154 2153 2156 2207 2179 1624 1477 1476 1411 584 557 398 166 199 500 290 242 109 31
0 0 0 0 0 0 0 0 0 0 0 204 625 695 977 987 1128 1476 1502 1470 1402 1402 1185 1360 1437 1473 1478 1800 1902 1913 1885 2089 2064 2219 2351 1701 1507 1207 1064 841 559 394 329 607 876 529 190 87 103
0 0 0 0 0 0 0 0 0 11 183 377 451 225 893 1397 1244 1226 1573 1560 1623 1702 1303 1387 1460 1474 1615 1509 1432 1591 1677 1730 2081 2179 2018 2015 1447 929 835 465 301 416 721 441 298 194 213 137 154
0 0 0 0 0 0 0 0 0 12 42 163 405 563 909 1622 1547 1377 1402 1583 1799 1862 1569 1497 1539 1367 1285 1273 1159 1077 1236 1429 1635 1865 1830 1692 1671 1507 1293 1371 1017 1078 586 212 45 8 0 157 132
0 0 0 0 0 0 0 0 0 0 24 27 148 421 1134 1676 1711 1635 1281 1183 1821 2128 2191 1893 1615 1487 1284 950 739 809 868 1206 1522 1549 1320 1135 718 702 673 561 533 460 432 672 492 403 404 610 532
0 0 0 0 0 0 0 0 0 0 0 0 222 345 519 1420 1775 1746 1448 1552 1506 1532 1709 2180 1912 1686 1376 1068 509 760 738 919 1343 1477 1476 611 372 333 279 252 209 338 116 199 231 242 247 229 251
0 0 0 0 0 0 0 0 0 0 0 0 2 742 456 503 1704 1642 1253 1328 1359 1158 1715 1722 1912 1822 1539 1258 651 1224 954 920 945 1011 1113 697 508 251 183 86 94 22 135 10 9 38 53 52 1
0 0 0 0 0 0 0 0 0 0 0 0 0 874 1093 1239 1385 1277 1206 1168 1250 893 572 522 753 1338 1346 1148 874 1374 1148 951 934 791 610 580 533 156 58 9 21 0 0 0 0 0 0 0 0
0 0 0 0 0 0 0 0 0 0 0 0 0 117 864 1096 961 725 545 803 867 449 311 89 725 959 1159 855 1096 1267 939 987 636 412 388 282 68 0 45 15 18 0 0 1 0 0 0 52 56
0 0 0 0 0 0 0 0 0 0 0 0 0 0 12 121 198 266 199 131 143 92 0 0 212 373 619 434 811 793 841 481 390 238 260 74 35 0 0 0 0 0 0 0 1 0 0 0 0
0 0 0 0 0 0 0 0 0 0 0 0 0 0 0 0 2 50 41 11 0 0 0 0 13 173 244 194 245 268 194 19 0 0 0 0 9 3 1 0 0 0 0 0 0 2 1 0 0
0 0 0 0 0 0 0 0 0 0 0 0 0 0 0 0 0 0 0 0 0 0 0 0 0 0 0 0 0 0 0 0 0 0 0 0 0 0 0 0 0 0 0 0 0 0 0 0 1
0 0 0 0 0 0 0 0 0 0 0 0 0 0 0 0 0 0 0 0 0 0 0 0 0 0 0 0 0 0 0 0 0 0 0 0 0 0 0 0 0 0 0 0 0 0 0 0 0
0 0 0 0 0 0 0 0 0 0 0 0 0 0 0 0 0 0 0 0 0 0 0 0 0 0 0 0 0 0 0 0 0 0 0 0 0 0 0 0 0 0 0 0 0 0 0 0 0
0 0 0 0 0 0 0 0 0 0 0 0 0 0 0 0 0 0 0 0 0 0 0 0 0 0 0 0 0 0 0 0 0 0 0 0 0 0 0 0 0 0 0 0 0 0 0 0 0
0 0 0 0 0 0 0 0 0 0 0 0 0 0 0 0 0 0 0 0 0 0 0 0 0 0 0 0 0 0 0 0 0 0 0 0 0 0 0 0 0 0 0 0 0 0 0 0 0
0 0 0 0 0 0 0 0 0 0 0 0 0 0 0 0 0 0 0 0 0 0 0 0 0 0 0 0 0 0 0 0 0 0 0 0 0 0 0 0 0 0 0 0 0 0 0 0 0
0 0 0 0 0 0 0 0 0 0 0 0 0 0 0 0 0 0 0 0 0 0 0 0 0 0 0 0 0 0 0 0 0 0 0 0 0 0 0 0 0 0 0 0 0 0 0 0 0
0 0 0 0 0 0 0 0 0 0 0 0 0 0 0 0 0 0 0 0 0 0 0 0 0 0 0 0 0 0 0 0 0 0 0 0 0 0 0 0 0 0 0 0 0 0 0 0 0
0 0 0 0 0 0 0 0 0 0 0 0 0 0 0 0 0 0 0 0 0 0 0 0 0 0 0 0 0 0 0 0 0 0 0 0 0 0 0 0 3 6 2 0 0 0 0 0 0
0 0 0 0 0 0 0 0 0 0 0 0 0 0 0 0 0 0 0 0 0 0 0 0 0 0 0 0 0 0 0 0 0 0 0 0 0 0 0 0 7 6 4 0 0 0 0 0 0
0 0 0 0 0 0 0 0 0 0 0 0 0 0 0 0 0 0 0 0 0 0 0 0 0 0 0 0 0 0 0 0 0 0 0 0 0 0 0 0 0 1 0 0 0 1 0 0 0
0 0 0 0 0 0 0 0 0 0 0 1 0 0 0 0 0 0 0 0 0 0 0 0 0 0 0 0 2 3 8 11 12 13 7 2 0 4 0 0 0 0 0 0 0 0 0 0 0
0 0 0 0 0 0 0 0 0 0 1 0 0 0 0 0 0 0 0 0 0 0 0 0 0 2 0 0 0 1 3 3 17 33 21 27 8 0 0 0 0 0 0 0 0 0 0 0 0
0 0 0 0 0 0 0 0 0 0 0 4 0 4 10 1 0 0 0 0 0 0 0 0 0 1 0 0 0 0 0 0 0 3 20 32 11 0 0 13 0 0 0 0 0 0 0 0 0
0 0 0 0 0 0 0 0 0 2 0 19 2 0 0 1 0 0 0 0 0 0 0 0 0 0 0 0 0 0 0 0 0 13 29 25 14 4 11 2 0 0 0 0 0 0 0 0 0
0 0 0 0 0 0 0 0 0 0 13 6 21 16 1 0 0 0 1 0 2 1 0 0 0 0 0 0 0 0 0 0 0 0 0 0 0 0 0 0 0 0 0 0 0 0 0 0 0
0 0 0 0 0 0 0 0 0 0 6 1 13 12 1 0 0 0 0 19 23 2 0 0 0 0 0 0 0 0 0 0 0 0 0 0 0 0 0 0 0 0 0 0 0 0 0 0 0

GFSSGP_con_mucape_006.txt.gz
CAPE
0 0 0 0 0 0 0 0 0 0 57 232 279 275 295 399 453 433 980 858 855 715 406 678 1036 1415 1811 2038 2166 2263 2441 2562 2618 2451 2383 1990 1659 1463 1480 1476 1145 442 480 409 370 465 864 1003 483
0 0 0 0 0 0 0 0 0 12 323 205 273 417 588 894 1030 1113 1105 921 851 868 699 875 1077 1493 1760 1833 2026 2120 2123 2167 2602 2568 2380 2096 1826 1744 1679 1359 913 510 451 477 972 1046 592 776 313
0 0 0 0 0 0 0 0 0 37 90 20 544 638 687 910 1209 1252 1159 1146 1097 1099 915 954 947 1355 1793 1839 1964 1994 2032 2186 2432 2270 2251 2165 1979 1847 1619 1033 730 544 429 531 865 1158 948 401 208
0 0 0 0 0 0 0 0 0 0 167 434 519 774 822 907 1195 1340 1205 1235 1285 947 882 1000 1079 1358 1869 2003 1922 1938 1973 1952 2127 2424 2271 2042 1897 1655 1672 1081 560 517 536 624 976 523 438 431 148
0 0 0 0 0 0 0 0 42 85 187 265 227 531 954 1052 1409 1425 1312 1348 1390 863 1032 1109 1200 1406 1624 1606 1679 1731 1839 1947 2038 2127 2281 1953 1634 1252 864 571 835 637 929 910 945 1089 649 381 301
0 0 0 0 0 0 0 0 0 6 123 219 302 495 578 1130 1379 1546 1548 1600 1501 1068 1222 1213 1389 1389 1369 1351 1270 1275 1481 1709 1884 1849 1896 1927 1818 1670 1573 1400 1060 943 1295 535 328 237 420 159 221
0 0 0 0 0 0 0 0 0 0 0 28 145 580 1362 1376 1111 1439 1716 1758 1779 1606 1599 1476 1571 1339 1140 943 841 795 1117 1448 1570 1501 1356 1172 1095 1166 1057 897 932 929 904 759 368 309 185 234 512
0 0 0 0 0 0 0 0 0 0 0 91 183 211 477 1469 1482 1484 1388 1858 1963 2032 1975 1744 1666 1543 1397 720 612 664 770 1065 1405 1246 943 669 641 636 512 451 636 597 511 475 375 442 544 585 482
0 0 0 0 0 0 0 0 0 0 0 0 260 270 365 1664 1533 1385 1281 1323 1789 2151 2077 1907 1882 1647 1445 1070 927 970 849 931 1082 1327 806 486 334 143 156 65 219 267 215 83 206 340 357 313 263
0 0 0 0 0 0 0 0 0 0 0 168 541 211 695 1640 1251 1365 1082 1152 1242 1311 1098 1481 1737 1649 1426 1121 972 1117 932 868 783 726 907 764 527 145 83 3 38 0 0 0 0 0 12 39 17
0 0 0 0 0 0 0 0 0 0 0 0 500 416 758 1426 873 798 976 1060 1032 1234 794 270 485 913 1030 713 818 1115 860 858 858 656 506 538 427 115 4 0 0 0 0 0 0 0 0 0 0
0 0 0 0 0 0 0 0 0 0 0 0 283 723 1032 996 861 844 575 464 876 481 19 138 236 720 620 530 1150 1125 773 809 506 260 177 0 0 0 11 0 0 0 0 0 0 0 0 0 0
0 0 0 0 0 0 0 0 0 0 0 0 0 428 770 864 668 421 67 88 0 0 0 0 10 75 202 131 558 593 621 496 140 14 0 0 0 0 0 0 0 0 0 0 0 0 2 3 9
0 0 0 0 0 0 0 0 0 0 0 0 0 0 0 0 0 0 7 4 0 0 0 0 0 1 8 0 0 4 14 8 0 0 0 0 0 0 0 0 0 0 0 0 0 0 0 0 0
0 0 0 0 0 0 0 0 0 0 0 0 0 0 0 0 0 0 0 0 0 0 0 0 0 0 0 0 0 0 0 0 0 0 0 0 0 0 0 0 0 0 0 0 0 0 0 0 0
0 0 0 0 0 0 0 0 0 0 0 0 0 0 0 0 0 0 0 0 0 0 0 0 0 0 0 0 0 0 0 0 0 0 0 0 0 0 0 0 0 0 0 0 0 0 0 0 0
0 0 0 0 0 0 0 0 0 0 0 0 0 0 0 0 0 0 0 0 0 0 0 0 0 0 0 0 0 0 0 0 0 0 0 0 0 0 0 0 0 0 0 0 0 0 0 0 0
0 0 0 0 0 0 0 0 0 0 0 0 0 0 0 0 0 0 0 0 0 0 0 0 0 0 0 0 0 0 0 0 0 0 0 0 0 0 0 0 0 0 0 0 0 0 0 0 0
0 0 0 0 0 0 0 0 0 0 0 0 0 0 0 0 0 0 0 0 0 0 0 0 0 0 0 0 0 0 0 0 0 0 0 0 0 0 0 0 0 0 0 0 0 0 0 0 0
0 0 0 0 0 0 0 0 0 0 0 0 0 0 0 0 0 0 0 0 0 0 0 0 0 0 0 0 0 0 0 0 0 0 0 0 0 0 0 0 0 0 0 0 0 0 0 0 0
0 0 0 0 0 0 0 0 0 0 0 0 0 0 0 0 0 0 0 0 0 0 0 0 0 0 0 0 0 0 0 0 0 0 0 0 0 0 0 0 0 0 0 0 0 0 0 0 0
0 0 0 0 0 0 0 0 0 0 0 0 0 0 0 0 0 0 0 0 0 0 0 0 0 0 0 0 0 0 0 0 0 0 0 0 0 0 0 0 0 0 0 0 0 0 0 0 0
0 0 0 0 0 0 0 0 0 0 0 0 0 0 0 0 0 0 0 0 0 0 0 0 0 0 0 0 0 0 0 0 0 0 0 0 0 0 0 0 0 0 0 0 0 0 0 0 0
0 0 0 0 0 0 0 0 0 0 0 0 0 0 0 0 0 0 0 0 0 0 0 0 0 0 0 0 0 0 0 0 0 0 0 11 18 16 0 0 0 0 0 1 0 0 0 0 0
0 0 0 0 0 0 0 0 0 0 0 0 1 0 0 0 0 0 0 0 0 0 0 0 0 0 4 10 0 0 0 0 0 0 0 1 31 38 3 2 9 1 0 0 0 0 0 0 1
0 0 0 0 0 0 0 0 0 0 0 0 0 2 1 0 0 0 0 0 0 0 1 2 1 2 6 0 0 0 0 0 0 0 0 0 6 35 7 0 0 0 0 0 0 0 0 0 0
0 0 0 0 0 0 0 0 0 0 0 0 0 0 0 0 0 0 0 3 0 0 2 0 0 0 0 0 0 0 0 0 0 0 0 0 0 11 45 45 7 1 0 0 0 0 0 0 0
0 0 0 0 0 0 0 0 0 0 2 0 0 0 0 0 0 2 0 2 2 1 0 0 0 0 0 0 0 0 0 0 0 0 0 0 3 14 21 32 2 0 0 0 0 0 0 0 0
0 0 0 0 0 0 0 0 0 0 0 17 8 0 0 1 0 0 2 6 2 0 1 0 0 0 0 0 0 0 0 0 0 0 0 0 3 7 3 0 0 0 0 0 0 0 0 0 0
0 0 0 0 0 0 0 0 0 0 0 0 0 0 0 0 0 6 0 0 0 0 0 0 0 0 0 0 0 0 0 0 0 0 0 0 0 0 0 0 0 0 0 0 0 0 0 0 0

GFSSGP_con_mucape_009.txt.gz
CAPE
0 0 0 0 0 0 0 0 0 0 232 208 215 206 247 352 252 100 770 631 414 207 475 734 1208 1686 1913 1983 2107 2305 2627 2767 2619 2474 2263 2085 1859 1836 1580 1514 1076 527 799 649 693 1167 1476 855 999
0 0 0 0 0 0 0 0 15 91 324 314 390 491 590 800 752 905 811 843 789 367 556 763 1319 1582 1673 1724 1913 2155 2145 2475 2724 2859 2507 2325 2140 2003 1967 1509 911 721 600 1044 1167 1063 1514 937 839
0 0 0 0 0 0 0 0 125 232 181 61 544 686 681 838 967 1030 929 894 816 828 493 731 1229 1477 1615 1725 1822 1930 2035 2376 2355 2654 2645 2422 2295 2114 1834 1374 1327 1156 961 988 1080 1347 1195 858 395
0 0 0 0 0 0 0 0 48 142 241 435 579 681 757 866 1139 1133 1092 1065 857 573 579 683 1131 1496 1641 1714 1714 1743 1828 2056 2345 2315 2236 2348 2267 2149 1883 1408 845 665 813 910 1153 1019 920 789 565
0 0 0 0 0 0 0 17 0 18 91 179 200 678 812 944 1117 1099 1170 1229 578 651 741 724 998 1356 1709 1611 1554 1716 1837 1905 2024 2295 2191 2110 1965 1623 1257 1217 1232 1036 936 1181 1304 1614 1508 905 572
0 0 0 0 0 0 0 0 0 30 58 109 347 417 633 1172 1273 1253 1277 1375 661 709 833 893 1125 1171 1293 1498 1476 1483 1658 1750 1682 1782 1976 2037 1864 1758 1683 1301 890 945 1076 1280 809 759 429 751 293
0 0 0 0 0 0 0 0 0 0 0 9 198 724 880 1233 1403 1418 1510 1542 960 1212 1087 1213 1169 1076 1145 978 936 1071 1368 1517 1554 1378 1428 1346 1315 1374 1305 1257 1364 1400 1332 1147 545 704 387 322 394
0 0 0 0 0 0 0 0 0 0 0 98 74 218 1118 1152 1473 1671 1677 1612 1307 1472 1423 1399 1311 1217 914 487 634 624 1000 1286 1284 1084 968 722 753 752 715 576 838 639 614 475 407 401 441 490 466
0 0 0 0 0 0 0 0 0 0 0 0 92 39 327 1140 1294 1657 1754 1722 1716 1738 1690 1464 1435 1344 1133 691 493 611 746 961 1185 1071 691 463 346 200 171 198 324 364 164 142 224 305 348 316 289
0 0 0 0 0 0 0 0 0 0 3 145 206 133 705 1312 1345 1111 1375 1797 1898 1938 1756 1590 1558 1466 1225 817 681 777 731 643 626 975 606 616 441 191 106 26 71 10 0 0 0 0 22 71 40
0 0 0 0 0 0 0 0 0 0 0 56 34 325 1214 1481 1321 1149 1213 1456 1622 1797 1891 1637 1601 1429 1116 937 729 919 764 718 668 529 576 523 601 152 31 0 0 0 0 0 0 0 0 0 0
0 0 0 0 0 0 0 0 0 0 0 0 8 295 1243 1410 1087 576 609 902 948 1082 979 155 247 569 579 534 520 938 845 680 675 554 335 265 103 0 0 0 0 0 0 0 0 0 0 0 0
0 0 0 0 0 0 0 0 0 0 0 0 2 28 579 991 525 217 313 431 685 662 80 14 65 330 107 191 731 1046 719 697 587 179 45 0 0 0 0 0 0 0 0 0 0 0 0 0 0
0 0 0 0 0 0 0 0 0 0 0 0 3 172 620 664 342 383 386 140 371 140 0 0 0 10 26 3 59 167 335 362 320 24 0 0 0 0 0 0 0 0 0 0 0 0 0 0 0
0 0 0 0 0 0 0 0 0 0 0 0 0 161 398 500 315 0 0 79 10 0 0 0 0 0 0 0 0 0 0 0 0 0 0 0 0 0 0 0 0 0 0 0 0 0 0 0 0
0 0 0 0 0 0 0 0 0 0 0 0 0 0 0 0 0 0 0 0 0 0 0 0 0 0 0 0 0 0 0 0 0 0 0 0 0 0 0 0 0 0 0 0 0 0 0 0 0
0 0 0 0 0 0 0 0 0 0 0 0 0 0 0 0 0 0 0 0 0 0 0 0 0 0 0 0 0 0 0 0 0 0 0 0 0 0 0 0 0 0 0 0 0 0 0 0 0
0 0 0 0 0 0 0 0 0 0 0 0 0 0 0 0 0 0 0 0 0 0 0 0 0 0 0 0 0 0 0 0 0 0 0 0 0 0 0 0 0 0 0 0 0 0 0 0 0
0 0 0 0 0 0 0 0 0 0 0 0 0 0 0 0 0 0 0 0 0 0 0 0 0 0 0 0 0 0 0 0 0 0 0 0 0 0 0 0 0 0 0 0 0 0 0 0 0
0 0 0 0 0 0 0 0 0 0 0 0 0 0 0 0 0 0 0 0 0 0 0 0 0 0 0 0 0 0 0 0 0 0 0 0 0 0 0 0 0 0 0 0 0 0 0 0 0
0 0 0 0 0 0 0 0 0 0 0 0 0 0 0 0 0 0 0 0 0 0 0 0 0 0 0 0 0 0 0 0 0 0 0 0 0 0 0 0 0 0 0 0 0 0 0 0 0
0 0 0 0 0 0 0 0 0 0 0 0 0 0 0 0 0 0 0 0 0 0 0 0 0 0 0 0 0 0 0 0 0 0 0 0 0 0 0 0 0 6 1 0 2 1 0 0 0
0 0 0 0 0 0 0 0 0 0 0 0 0 0 0 0 0 0 0 0 0 0 0 0 0 0 0 0 0 0 0 0 0 0 0 0 0 0 0 0 15 11 2 1 2 0 0 0 0
0 0 0 0 0 0 0 0 0 0 0 0 0 0 0 0 0 0 0 0 0 0 0 0 0 0 0 0 0 0 0 0 0 0 0 0 0 0 0 0 8 21 3 0 0 0 1 0 0
0 0 0 0 0 0 0 0 0 0 0 0 0 0 0 0 0 0 0 0 0 0 0 0 0 0 0 1 5 1 0 0 0 0 0 0 0 0 0 0 0 1 11 28 14 0 1 1 0
0 0 0 0 0 0 0 0 0 0 0 1 1 0 0 0 0 0 0 0 0 0 0 0 0 0 0 0 0 0 0 0 0 0 0 0 0 0 0 0 0 21 27 8 18 1 0 0 0
0 0 0 0 0 0 0 0 0 0 0 0 0 0 0 0 0 0 0 0 0 0 0 0 0 0 0 0 0 0 0 0 0 0 0 0 0 0 0 0 5 15 28 11 0 0 0 0 0
0 0 0 0 0 0 0 0 0 0 1 0 0 0 0 0 0 0 0 0 0 0 0 0 0 0 0 0 0 0 0 0 0 0 0 0 0 0 0 4 16 14 7 0 0 0 0 0 0
0 0 0 0 0 0 0 0 0 0 0 0 0 0 0 0 0 0 0 0 0 0 0 0 0 0 0 0 0 0 0 0 0 0 0 0 0 0 0 8 6 1 0 0 0 0 0 0 0
0 0 0 0 0 0 0 0 0 0 0 0 0 0 0 0 0 0 1 0 4 0 0 0 0 0 0 0 0 0 0 0 0 0 0 1 0 0 0 0 0 0 0 0 0 0 0 0 0

GFSSGP_con_mucape_012.txt.gz
CAPE
0 0 0 0 0 0 0 0 0 0 65 82 96 53 188 328 192 151 625 632 229 363 579 909 1317 1621 1754 1943 2179 2443 2508 2597 2380 2349 2169 2040 1941 1721 1793 1366 1033 835 904 992 839 1502 1862 1451 1432
0 0 0 0 0 0 0 0 0 84 254 260 279 284 404 584 624 718 594 668 405 325 512 894 1229 1390 1541 1678 1920 2131 2343 2580 2840 2650 2490 2253 2032 1734 1783 1085 853 801 909 1275 1374 1359 1850 1427 1193
0 0 0 0 0 0 0 31 136 279 226 260 438 509 551 752 806 764 780 779 635 418 560 1065 1155 1257 1472 1595 1694 1897 2114 2313 2570 2784 2667 2544 2364 2180 1884 1370 1146 1097 1080 1196 1226 1451 1490 1441 816
0 0 0 0 0 0 0 68 173 200 242 405 545 575 630 796 932 897 867 806 713 330 441 972 1098 1280 1470 1599 1555 1575 1766 2118 2169 2208 2414 2433 2326 2181 1965 1524 1040 759 971 1113 1300 1441 1292 927 977
0 0 0 0 0 0 0 0 20 33 101 189 223 570 739 868 962 896 938 816 289 302 355 780 1064 1335 1525 1463 1461 1648 1747 1794 2011 2142 2138 2157 1969 1658 1301 1133 1330 1236 1109 1357 1459 1357 1215 1033 861
0 0 0 0 0 0 0 0 0 0 63 297 326 347 615 995 976 1013 1046 533 342 394 484 552 929 1071 1308 1396 1289 1321 1446 1535 1484 1678 1992 2000 1814 1768 1631 1335 1009 1026 1228 1494 971 728 707 438 426
0 0 0 0 0 0 0 0 0 0 0 15 200 456 744 1127 998 1103 1189 553 452 528 574 614 664 771 881 841 874 981 1233 1344 1275 1166 1192 1143 1215 1235 1120 1129 1154 1007 1020 974 807 704 834 702 576
0 0 0 0 0 0 0 0 0 0 0 15 103 485 664 1162 1213 1306 1314 834 806 895 878 1015 903 805 501 420 533 596 892 1125 1110 882 688 527 520 533 480 360 638 513 320 285 308 377 408 407 387
0 0 0 0 0 0 0 0 0 0 0 0 23 204 161 977 1350 1449 1492 1174 1067 1182 1198 1157 1047 969 679 342 257 432 615 837 1012 795 507 299 209 80 61 150 285 228 124 73 61 95 203 286 288
0 0 0 0 0 0 0 0 0 0 0 8 34 60 736 1059 1425 1540 1602 1492 1411 1371 1416 1273 1190 1121 831 506 367 324 424 437 504 755 414 265 299 108 7 0 5 1 0 0 0 0 0 0 8
0 0 0 0 0 0 0 0 0 0 0 0 0 155 882 1025 1193 1511 1597 1653 1606 1569 1609 1373 1242 1214 973 771 344 384 488 456 432 355 400 303 383 212 14 0 0 0 0 0 0 0 0 0 0
0 0 0 0 0 0 0 0 0 0 0 0 0 193 778 1161 1145 1039 1138 1426 1536 1646 1711 1503 1256 1208 984 731 586 365 579 483 432 384 326 237 176 57 0 0 0 0 0 0 0 0 0 0 0
0 0 0 0 0 0 0 0 0 0 0 0 0 162 681 1117 1087 1053 927 1100 1241 1293 1491 803 398 289 228 273 283 285 599 667 467 438 239 62 16 0 0 0 0 0 0 0 0 0 0 0 0
0 0 0 0 0 0 0 0 0 0 0 0 0 21 760 997 965 574 64 207 645 699 573 28 0 59 4 3 106 327 594 391 344 420 190 0 0 0 0 0 0 0 0 0 0 0 0 0 0
0 0 0 0 0 0 0 0 0 0 0 0 0 0 14 314 309 7 26 159 145 322 246 0 0 0 0 0 0 0 0 0 9 11 0 0 0 0 0 0 0 0 0 0 0 0 0 0 0
0 0 0 0 0 0 0 0 0 0 0 0 0 0 0 151 237 197 191 0 0 95 57 0 0 0 0 0 0 0 0 0 0 0 0 0 0 0 0 0 0 0 0 0 0 0 0 0 0
0 0 0 0 0 0 0 0 0 0 0 0 0 0 0 19 85 0 0 0 0 35 0 0 0 0 0 0 0 0 0 0 0 0 0 0 0 0 0 0 0 0 0 0 0 0 0 0 0
0 0 0 0 0 0 0 0 0 0 0 0 0 0 0 0 0 0 0 0 0 0 0 0 0 0 0 0 0 0 0 0 0 0 0 0 0 0 0 0 0 0 0 0 0 0 0 0 0
0 0 0 0 0 0 0 0 0 0 0 0 0 0 0 0 0 0 0 0 0 0 0 0 0 0 0 0 0 0 0 0 0 0 0 0 0 0 0 0 0 0 0 0 0 0 0 0 0
0 0 0 0 0 0 0 0 0 0 0 0 0 0 0 0 0 0 0 0 0 0 0 0 0 0 0 0 0 0 0 0 0 0 0 0 0 0 0 0 0 0 0 0 0 0 0 0 0
0 0 0 0 0 0 0 0 0 0 0 0 0 0 0 0 0 0 0 0 0 0 0 0 0 0 0 0 0 0 0 0 0 0 0 0 0 0 0 0 0 0 0 0 0 0 0 0 0
0 0 0 0 0 0 0 0 0 0 0 0 0 0 0 0 0 0 0 0 0 0 0 0 0 0 0 0 0 0 0 0 2 1 0 0 0 0 0 0 0 0 0 0 5 0 4 0 0
0 0 0 0 0 0 0 0 0 0 0 0 0 0 0 0 0 0 0 0 0 0 0 0 0 0 0 0 0 1 4 11 9 0 0 0 0 0 0 0 0 0 0 0 4 4 14 3 3
0 0 0 0 0 0 0 0 0 0 0 0 0 0 0 0 0 0 0 0 0 0 0 0 0 0 0 1 7 13 9 0 0 0 0 0 0 0 0 0 0 0 0 0 0 1 11 6 2
0 0 0 0 0 0 0 0 0 0 0 0 0 0 0 0 0 0 0 0 0 0 0 0 0 2 7 13 21 7 0 0 0 0 0 0 0 0 0 0 0 0 0 0 0 0 25 35 9
0 0 0 0 0 0 0 0 0 0 0 0 0 0 0 0 0 0 0 0 0 0 0 1 3 1 1 0 0 0 0 0 0 0 0 0 0 0 0 0 0 0 0 2 7 20 43 26 1
0 0 0 0 0 0 0 0 0 0 0 0 0 0 0 0 0 0 0 1 0 0 0 0 0 0 0 0 0 0 0 0 0 0 0 0 0 0 0 0 0 0 14 23 47 51 44 4 1
0 0 0 0 0 0 0 0 0 0 0 0 0 0 0 0 0 0 0 0 0 2 1 1 1 1 0 0 0 0 0 0 0 0 0 0 0 0 0 0 3 6 11 4 0 3 0 0 0
0 0 0 0 0 0 0 0 0 0 0 0 0 0 0 0 0 0 0 0 0 5 6 0 0 0 0 0 0 0 0 0 0 0 0 0 0 0 0 0 0 0 1 0 0 0 0 0 0
0 0 0 0 0 0 0 0 0 0 0 0 0 0 0 0 0 0 0 0 0 0 0 0 0 0 0 0 0 0 0 0 0 0 0 0 0 0 0 0 0 0 0 0 0 0 0 0 0

GFSSGP_con_mucape_015.txt.gz
CAPE
0 0 0 0 0 0 0 0 0 5 91 83 72 53 168 272 131 124 428 423 227 473 766 1002 1180 1328 1552 1872 2190 2241 2106 2296 2135 1977 1952 1944 1884 2032 1590 1072 977 964 1143 1321 1101 1607 1817 1580 1445
0 0 0 0 0 0 0 0 0 69 211 155 186 261 365 292 563 551 380 327 237 385 729 1116 1121 1263 1379 1569 1812 2176 2527 2557 2565 2318 2216 2035 1875 1894 1702 1188 1041 976 1022 1312 1518 1540 1909 1472 968
0 0 0 0 0 0 0 20 124 171 64 194 382 352 418 597 671 622 568 466 273 366 696 1090 1103 1137 1275 1409 1639 1917 2038 2368 2648 2638 2533 2408 2244 2125 1762 1323 1134 1081 1048 1041 1310 1438 1583 1312 1040
0 0 0 0 0 0 5 75 199 135 196 322 360 304 415 540 769 761 697 596 344 366 740 927 949 1017 1192 1372 1460 1458 1662 1941 2024 2175 2280 2329 2280 2149 1803 1573 1114 797 991 1213 1435 1581 1533 1228 989
0 0 0 0 0 3 57 119 120 43 118 273 199 414 511 711 799 732 667 647 264 308 536 836 878 1056 1281 1277 1231 1434 1495 1586 1777 1820 1858 1910 1665 1441 1203 842 943 1189 1101 1433 1223 849 781 598 654
0 0 0 0 0 0 2 20 5 17 75 142 345 319 478 698 733 762 694 452 243 184 361 644 882 1046 1139 1132 1093 1153 1296 1297 1338 1588 1707 1693 1605 1549 1464 1434 1421 1342 1275 1232 963 1034 869 634 776
0 0 0 0 0 0 0 0 0 1 6 0 132 265 587 850 845 842 750 397 330 313 375 529 638 675 698 630 656 838 1001 1078 964 994 918 952 979 899 904 992 912 856 616 597 534 433 482 515 438
0 0 0 0 0 0 0 0 0 0 0 39 107 187 636 896 920 929 850 521 502 592 545 597 769 680 644 621 338 483 744 887 780 694 443 330 293 285 160 170 392 360 300 252 177 153 234 249 252
0 0 0 0 0 0 0 0 0 0 0 0 0 219 163 1023 965 1079 1161 745 766 721 779 743 776 634 331 169 256 335 496 708 763 580 280 247 363 191 136 69 138 96 52 16 1 0 0 18 65
0 0 0 0 0 0 0 0 0 0 0 0 0 0 318 1075 1119 1292 1420 1208 1089 1049 1040 873 889 813 518 198 249 423 457 725 861 948 645 375 251 144 8 1 0 0 0 0 0 0 0 0 0
0 0 0 0 0 0 0 0 0 0 0 0 0 105 648 1139 1252 1420 1547 1604 1450 1317 1206 1068 1007 972 717 457 246 325 430 557 565 660 649 476 357 219 91 25 1 0 0 0 0 0 0 0 0
0 0 0 0 0 0 0 0 0 0 0 0 0 402 761 900 1230 1422 1574 1666 1470 1482 1574 1455 1139 1008 966 812 703 376 522 564 633 530 373 431 329 170 43 0 0 0 0 0 0 0 0 0 0
0 0 0 0 0 0 0 0 0 0 0 0 0 253 823 951 972 1204 1393 1453 1379 1421 1577 1611 1353 925 566 194 288 442 559 732 714 575 419 268 216 126 0 0 0 0 0 0 0 0 0 0 0
0 0 0 0 0 0 0 0 0 0 0 0 0 80 706 990 926 858 846 897 895 1141 1244 1413 904 57 14 0 81 276 378 516 459 400 363 266 99 53 0 0 0 0 0 0 0 0 0 0 0
0 0 0 0 0 0 0 0 0 0 0 0 0 0 267 618 789 777 687 464 261 585 888 1025 92 0 0 0 0 0 1 2 3 47 93 61 23 11 0 0 9 20 0 0 0 0 0 0 0
0 0 0 0 0 0 0 0 0 0 0 0 0 0 0 344 575 420 49 0 45 86 112 481 0 0 0 0 0 0 0 0 0 0 0 0 0 2 19 24 45 48 39 20 0 0 0 0 0
0 0 0 0 0 0 0 0 0 0 0 0 0 0 0 0 0 45 63 52 0 0 25 164 0 0 0 0 0 0 0 0 0 0 0 0 0 0 0 3 4 6 0 0 0 0 0 0 0
0 0 0 0 0 0 0 0 0 0 0 0 0 0 0 0 0 7 0 0 0 0 43 1 0 0 0 0 0 0 0 0 0 0 0 0 0 0 0 0 0 0 0 0 0 0 0 0 0
0 0 0 0 0 0 0 0 0 0 0 0 0 0 0 0 0 0 0 0 0 0 0 0 0 0 0 0 0 0 0 0 0 0 0 0 0 0 0 0 0 0 0 0 0 0 0 0 0
0 0 0 0 0 0 0 0 0 0 0 0 0 0 0 0 0 0 0 0 0 0 0 0 0 0 0 0 0 0 0 0 0 0 0 0 0 0 0 0 0 0 0 0 0 0 0 0 0
0 0 0 0 0 0 0 0 0 0 0 0 0 0 0 0 0 0 0 0 0 0 0 0 0 0 0 0 0 0 0 2 4 2 1 0 0 0 0 0 0 0 0 0 0 0 0 0 0
0 0 0 0 0 0 0 0 0 0 0 0 0 0 0 0 0 0 0 0 0 0 0 0 0 0 0 0 0 0 1 1 0 0 0 0 0 0 0 0 0 0 0 0 0 0 0 0 0
0 0 0 0 0 0 0 0 0 0 0 0 0 0 0 0 0 0 0 0 0 0 0 0 0 0 0 0 0 2 1 0 0 3 0 0 0 0 0 0 0 0 0 0 0 0 0 0 0
0 0 0 0 0 0 0 0 0 0 0 0 0 0 0 0 0 0 0 0 0 0 0 0 0 0 0 0 2 3 11 15 1 0 0 0 0 0 0 0 0 0 0 0 0 0 0 0 0
0 0 0 0 0 0 0 0 0 0 0 0 0 0 0 0 0 0 0 0 0 0 1 6 7 14 16 19 11 12 9 1 0 0 0 0 0 0 0 0 0 0 0 0 0 0 0 0 3
0 0 0 0 0 0 0 0 0 0 0 0 0 0 0 0 2 3 0 0 0 7 16 20 12 17 13 9 2 0 0 0 0 0 0 0 0 0 0 0 0 0 0 0 0 0 4 4 8
0 0 0 0 0 0 0 0 0 0 0 0 0 0 0 0 0 0 0 0 5 5 7 9 4 4 0 0 0 0 0 0 0 0 0 0 0 0 0 0 0 0 0 0 0 4 10 0 0
0 0 0 0 0 0 0 0 0 0 0 0 0 0 0 0 0 0 0 0 2 3 5 6 1 0 0 0 0 0 0 0 0 0 0 0 0 0 0 0 0 0 0 2 0 0 0 0 0
0 0 0 0 0 0 0 0 0 0 0 0 0 0 0 0 0 0 0 2 4 3 0 0 0 0 0 0 0 0 0 0 0 0 0 0 0 0 0 0 0 0 0 0 0 0 0 0 0
0 0 0 0 0 0 0 0 0 0 0 0 0 0 0 0 0 1 0 0 0 0 0 0 0 0 0 0 0 0 0 0 0 0 0 0 0 0 0 0 0 0 0 0 0 0 0 0 0

GFSSGP_con_mucape_018.txt.gz
CAPE
0 0 0 0 0 0 0 0 0 87 74 115 103 81 188 327 244 461 549 469 151 313 785 1030 1124 1341 1620 2002 1899 1853 1849 1860 1784 1796 1879 1861 2016 1682 1400 1076 999 1009 1319 1314 1490 1479 1774 1639 1531
0 0 0 0 0 0 0 0 1 69 116 110 138 166 127 179 368 505 577 443 196 337 679 983 992 1218 1389 1619 1859 2107 2272 2148 2150 2098 1970 1807 1769 1728 1467 1216 1010 1051 1071 1324 1558 1721 1808 1513 1115
0 0 0 0 0 0 0 0 86 142 122 195 231 294 282 332 392 461 430 172 153 357 641 956 924 1041 1187 1351 1483 1615 1832 2069 2227 2283 2111 1929 1900 1812 1574 1436 1222 1002 966 1073 1452 1727 1582 1308 1029
0 0 0 0 0 0 0 16 47 146 230 273 111 132 310 540 583 599 473 247 78 144 323 651 773 852 1029 1116 1118 1389 1597 1728 1814 1950 2102 2195 2037 1804 1613 1398 1297 1097 1159 1324 1492 1237 976 876 1054
0 0 0 0 0 0 1 65 123 103 175 267 213 203 250 676 863 756 678 426 110 125 295 374 673 800 991 937 1108 1197 1255 1402 1547 1615 1724 1637 1497 1376 1167 837 876 1056 1158 1436 946 1031 631 532 567
0 0 0 0 0 0 25 65 10 1 79 166 94 70 206 777 829 789 694 427 86 135 353 291 524 819 879 908 1014 1082 1131 1142 1316 1406 1539 1474 1399 1320 1294 1369 1330 1207 1086 1053 898 932 853 902 706
0 0 0 0 0 0 0 0 0 0 2 12 28 49 279 581 597 674 539 300 158 125 272 513 589 528 479 520 589 748 928 884 893 835 859 896 812 803 806 865 770 585 515 480 412 316 250 287 275
0 0 0 0 0 0 0 0 0 0 0 98 115 7 162 450 785 770 570 305 283 425 496 810 917 847 793 702 186 440 658 729 677 541 367 303 346 246 99 221 278 215 165 118 77 26 28 60 75
0 0 0 0 0 0 0 0 0 0 0 0 0 65 188 795 1032 972 753 546 624 797 1096 1152 1129 1140 877 524 485 144 368 639 544 510 181 385 626 580 360 5 17 7 0 0 0 0 0 0 0
0 0 0 0 0 0 0 0 0 0 0 0 0 89 518 1146 1308 1328 1116 869 1013 1180 1401 1524 1672 1562 1158 233 708 759 674 757 980 1100 1070 660 890 783 184 24 0 0 0 0 0 0 0 0 0
0 0 0 0 0 0 0 0 0 0 0 0 0 31 777 1130 1360 1346 1053 405 813 1234 1429 1647 1921 1915 1535 715 522 355 333 589 802 1249 1293 1078 1047 845 667 480 137 60 0 0 0 0 0 0 0
0 0 0 0 0 0 0 0 0 0 0 0 0 0 550 896 943 749 564 383 473 973 1553 1887 1984 2017 1885 1001 555 397 398 448 649 755 1364 1085 761 607 575 223 66 13 0 0 0 0 0 0 0
0 0 0 0 0 0 0 0 0 0 0 0 0 62 229 299 410 560 521 412 713 1224 1605 2104 2318 2248 1506 1146 572 726 763 493 803 661 541 1058 577 371 209 36 0 0 0 0 1 0 0 0 0
0 0 0 0 0 0 0 0 0 0 0 0 0 0 63 152 140 307 739 826 1259 1307 1721 2262 2480 2201 903 425 611 446 494 380 446 208 176 696 728 186 39 0 0 0 0 0 0 0 0 0 0
0 0 0 0 0 0 0 0 0 0 0 0 0 0 4 85 111 244 256 618 873 1050 1383 2035 2221 1201 506 315 188 55 26 82 14 11 72 162 276 86 59 11 7 0 0 0 33 0 0 0 0
0 0 0 0 0 0 0 0 0 0 0 0 0 0 0 77 273 339 711 723 533 497 775 1310 1115 524 394 155 51 6 3 9 3 8 14 16 28 46 51 21 6 17 27 1 0 0 0 0 0
0 0 0 0 0 0 0 0 0 0 0 0 0 0 0 0 340 461 104 76 56 58 180 713 890 315 169 60 28 34 35 44 8 14 5 0 9 18 38 12 12 48 36 6 2 0 0 0 0
0 0 0 0 0 0 0 0 0 0 0 0 0 0 0 0 82 17 0 4 0 2 102 511 416 110 43 5 0 0 0 0 0 0 0 0 0 0 0 0 0 30 51 40 17 26 20 4 0
0 0 0 0 0 0 0 0 0 0 0 0 0 0 0 0 0 0 0 0 0 0 28 45 23 0 0 0 0 0 0 0 0 0 0 0 0 0 0 0 0 2 5 20 40 32 27 40 26
0 0 0 0 0 0 0 0 0 0 0 0 0 0 0 0 0 0 0 0 0 0 0 0 0 0 0 0 0 0 0 0 0 0 0 0 0 0 1 0 0 0 0 0 12 35 48 44 24
0 0 0 0 0 0 0 0 0 0 0 0 0 0 0 0 0 0 0 0 0 0 0 0 0 0 0 0 0 0 0 0 0 0 0 0 0 0 0 0 0 0 0 0 0 0 16 34 43
0 0 0 0 0 0 0 0 0 0 0 0 0 0 0 0 0 0 0 0 0 0 0 0 0 0 0 0 0 0 0 5 3 0 0 0 0 0 0 0 0 0 0 0 0 1 10 24 25
0 0 0 0 0 0 0 0 0 0 0 0 0 0 0 0 0 0 0 0 0 0 0 0 0 0 0 0 0 1 0 0 0 0 0 0 0 0 0 0 0 0 0 0 0 1 8 12 18
0 0 0 0 0 0 0 0 0 0 0 0 0 0 0 0 0 0 0 0 0 0 0 0 0 0 0 2 1 0 0 5 0 0 0 0 0 0 0 0 0 0 0 5 10 0 0 0 0
0 0 0 0 3 0 0 0 0 0 0 0 0 0 0 0 0 0 0 0 0 0 0 0 1 6 8 11 26 23 0 0 0 0 0 0 0 0 0 0 4 5 11 0 0 0 0 0 0
0 0 0 0 0 0 0 0 0 0 0 0 0 0 0 0 0 0 0 0 0 0 0 2 8 6 3 1 0 0 0 0 0 0 0 0 0 0 0 7 11 18 10 24 1 0 0 2 0
0 0 0 0 0 0 0 0 0 0 0 0 0 0 0 0 0 0 0 0 0 0 0 0 0 0 0 0 0 0 0 0 0 0 0 0 0 0 8 15 14 21 0 0 0 0 5 1 0
0 0 0 0 3 0 0 0 0 0 0 0 0 0 0 0 0 0 0 1 0 0 0 0 0 1 9 7 1 0 0 0 0 0 0 0 0 8 20 28 13 0 0 0 0 0 0 0 0
0 0 0 0 0 0 0 0 0 0 0 0 0 0 0 0 2 5 0 0 0 4 12 9 8 12 9 0 0 0 0 0 0 0 0 1 16 20 15 0 0 0 0 0 0 0 0 0 0
0 0 0 0 0 0 0 0 0 0 0 0 0 0 0 6 12 12 7 0 5 7 0 0 0 0 0 0 0 0 0 0 0 0 0 7 15 18 15 21 17 1 0 0 0 0 0 0 0

GFSSGP_con_mucape_021.txt.gz
CAPE
0 0 0 0 0 0 0 18 31 22 22 17 0 18 28 158 357 403 368 176 371 669 755 884 1078 1354 1721 1667 1702 1710 1767 1734 1656 1707 1744 1827 1675 1496 1280 1143 963 1148 1265 1415 1615 1690 1939 1560 1349
0 0 0 0 0 0 4 0 46 55 1 0 0 18 24 89 334 398 291 141 271 515 774 964 951 1174 1342 1586 1755 2081 1985 1922 1870 1779 1719 1750 1785 1511 1296 1168 1092 1153 1130 1175 1455 1624 1683 1348 1044
0 0 0 0 0 8 6 3 40 2 0 26 4 25 116 120 200 365 190 142 228 400 674 816 854 954 1190 1366 1445 1625 1874 1971 2041 1995 1943 1744 1695 1594 1592 1444 1180 977 1126 1391 1489 1558 1558 1318 1077
0 0 0 0 6 0 4 40 28 0 43 31 0 43 283 288 294 228 123 94 202 250 425 521 623 811 1004 863 1060 1259 1416 1566 1753 1988 2130 2062 1921 1739 1486 1279 1110 1202 1206 1482 1123 962 695 655 867
0 0 0 0 1 8 36 32 35 79 66 22 12 0 296 582 458 250 131 14 18 34 81 160 574 842 866 794 888 946 1051 1227 1391 1602 1611 1505 1443 1329 1147 888 951 1115 1371 1163 1014 964 571 554 711
0 0 1 4 8 4 9 6 0 35 30 0 5 46 398 522 379 333 172 5 1 49 81 60 412 742 823 780 836 879 881 929 1116 1283 1306 1271 1186 1145 1171 1156 1083 920 901 754 766 840 775 616 405
0 2 12 2 2 3 0 0 0 0 0 0 0 6 220 320 384 288 83 0 0 33 122 192 312 368 522 522 654 800 814 662 630 613 686 673 662 654 716 657 556 487 423 379 298 214 159 84 72
0 0 0 1 5 0 0 0 0 0 1 0 0 0 122 294 323 175 12 0 1 51 328 427 461 420 611 587 335 551 680 596 514 372 274 294 390 267 145 424 249 177 118 63 23 1 0 0 0
0 0 0 0 0 0 0 0 0 0 0 0 0 8 41 286 271 203 94 42 209 352 648 628 518 408 250 104 225 167 557 640 529 469 230 506 700 506 411 58 19 5 0 0 0 0 0 0 0
0 0 0 0 0 0 0 0 0 0 0 0 0 0 282 420 352 311 164 186 323 561 586 923 1161 772 298 0 215 260 142 543 572 677 708 518 637 655 140 76 19 0 0 0 0 0 0 0 0
0 0 0 0 0 0 0 0 0 0 0 0 0 0 217 386 481 428 333 175 191 512 536 812 1727 1289 726 318 38 107 109 179 440 700 806 541 619 643 430 318 308 350 4 21 0 0 0 0 0
0 0 0 0 0 0 0 0 0 0 0 0 0 0 88 339 439 443 378 152 131 326 355 811 1948 1788 1031 350 127 88 86 270 270 615 482 423 340 340 231 15 0 2 4 1 3 2 4 6 2
0 0 0 0 0 0 0 0 0 0 0 0 0 0 38 282 394 233 247 284 180 274 403 744 1756 2441 1164 735 196 187 246 250 467 291 188 211 174 129 8 0 0 0 0 4 3 1 1 1 0
0 0 0 0 0 0 0 0 0 0 0 0 0 0 0 10 103 214 264 343 361 357 511 793 1529 2504 1372 206 286 171 249 193 199 31 25 56 131 156 71 41 26 5 0 0 0 0 0 0 0
0 0 0 0 0 0 0 0 0 0 0 0 0 0 0 2 4 40 179 345 325 347 504 928 1605 2202 1341 297 174 23 11 4 0 0 17 30 56 51 71 36 29 21 44 175 40 6 7 9 6
0 0 3 0 0 0 0 9 0 0 0 0 0 0 0 0 0 19 16 96 234 338 396 709 1447 1912 1184 225 76 14 6 0 0 9 19 12 26 31 51 20 41 70 115 42 20 6 4 8 11
0 22 0 0 0 0 0 7 0 0 0 0 0 0 0 0 4 103 336 218 134 101 226 582 1390 1427 802 224 76 50 43 34 24 30 23 0 15 5 28 33 45 154 81 154 137 94 129 53 25
1 0 0 0 0 0 0 0 0 0 0 0 0 0 0 0 17 292 32 0 0 57 176 494 1120 1036 387 125 53 8 1 0 0 1 0 0 4 0 0 1 26 42 23 87 128 217 158 183 165
0 0 0 0 0 0 0 0 0 0 0 0 0 0 0 0 49 0 0 0 0 106 347 539 519 171 55 14 0 0 0 0 0 0 0 0 0 0 0 0 0 5 0 22 95 106 135 158 278
0 0 0 0 0 0 0 0 0 0 0 0 0 0 0 0 0 0 0 0 0 0 0 0 0 0 0 0 0 0 0 0 2 7 0 0 0 0 0 0 0 0 0 3 31 95 62 119 227
0 0 0 0 0 0 0 0 0 0 0 0 0 0 0 0 0 0 0 0 0 0 0 0 0 0 0 0 0 0 0 0 0 0 0 0 0 0 0 0 0 0 0 0 14 29 55 58 87
0 0 0 0 0 12 0 111 0 0 0 0 0 0 0 0 0 0 0 0 0 0 0 0 0 0 0 0 0 0 0 0 1 0 0 1 0 0 0 0 0 0 0 7 7 7 14 51 24
0 0 0 0 0 0 0 0 1 0 0 0 0 0 0 0 0 0 0 0 0 0 0 0 0 0 0 0 0 0 0 1 0 2 0 0 0 0 0 0 0 0 0 5 13 20 13 7 4
0 0 0 0 32 38 64 23 140 3 0 0 0 0 0 0 0 0 0 0 0 0 0 0 0 0 0 0 0 0 0 0 0 0 0 0 0 0 0 0 0 1 13 22 6 0 0 0 0
0 1 152 215 155 227 0 0 53 0 0 0 0 0 0 0 0 0 0 0 0 1 0 0 0 0 0 0 0 0 0 0 0 0 0 0 0 0 0 0 0 23 22 7 11 0 15 0 0
0 0 117 3 51 77 0 0 17 0 0 0 0 0 0 0 0 0 0 0 4 6 7 0 0 0 0 5 5 5 11 8 6 1 0 0 0 0 0 0 29 17 35 36 7 29 0 0 0
4 2 0 0 0 0 0 3 0 0 0 0 0 0 0 0 0 0 1 10 13 11 3 0 1 0 0 8 26 23 17 19 13 0 0 0 0 0 8 28 33 36 5 4 0 0 40 37 6
0 0 29 9 0 0 11 0 58 2 0 18 2 2 0 0 1 6 7 13 12 3 1 8 15 21 25 15 21 19 15 18 5 0 0 2 9 29 34 44 54 5 8 3 21 38 20 32 57
2 6 0 0 0 0 0 0 9 2 0 0 0 1 0 4 7 15 17 12 27 24 17 19 16 14 13 13 13 13 12 8 5 8 13 27 35 27 29 49 27 41 25 20 14 16 1 5 12
0 0 0 0 0 0 0 0 0 0 0 0 8 11 8 7 24 22 24 25 21 14 15 16 0 0 0 0 1 0 5 12 22 25 28 41 22 42 51 44 11 20 2 1 0 0 0 0 0

GFSSGP_con_mucape_024.txt.gz
CAPE
0 0 0 0 0 0 0 16 46 7 15 0 0 0 9 74 339 230 148 370 720 619 613 817 1151 1490 1625 1757 1843 1832 1786 1741 1785 1914 1933 1733 1458 1297 1247 1274 1248 1260 1273 1397 1650 1755 1747 1383 1176
0 0 0 0 0 0 1 11 9 1 0 0 0 13 7 67 162 74 127 398 520 801 652 649 912 1188 1427 1573 1834 1979 1893 1894 1856 1804 1909 1741 1476 1320 1190 1184 1160 1159 1229 1348 1609 1671 1491 1259 954
0 0 0 0 0 0 0 45 0 0 0 11 0 49 37 72 107 112 94 231 386 601 561 518 711 942 1158 1305 1452 1628 1706 1884 2001 1983 1853 1804 1589 1498 1528 1242 1096 1130 1267 1375 1354 1303 1281 1032 1013
0 0 0 0 0 0 0 23 0 0 9 13 37 68 77 82 86 89 69 169 202 319 337 316 535 757 907 1070 1216 1288 1361 1532 1737 1878 1909 1790 1661 1390 1126 985 1036 1040 1182 1175 961 667 448 460 524
0 0 0 9 5 14 16 6 0 0 6 1 31 113 226 101 97 16 19 8 7 45 66 161 541 811 914 888 801 1053 1137 1313 1439 1422 1407 1317 1249 1176 1042 977 1114 1162 1064 915 843 717 673 748 647
0 0 0 5 0 0 1 0 7 37 9 0 28 142 282 139 51 0 0 0 0 0 0 32 607 795 823 865 873 839 907 982 1145 1211 1167 999 950 969 903 846 712 635 565 530 604 577 437 277 137
0 0 0 4 0 0 0 0 0 11 3 0 0 64 213 171 102 0 0 0 0 0 0 91 125 394 577 566 598 613 636 627 646 640 633 653 697 747 676 540 415 322 261 215 157 109 55 25 3
0 0 0 0 0 0 0 0 0 0 0 0 0 29 127 214 99 0 0 0 0 39 104 214 322 364 313 244 386 507 480 445 407 321 267 319 321 360 515 383 171 99 51 11 0 0 0 0 0
0 0 0 0 0 0 0 0 0 0 0 0 0 3 192 196 88 0 0 0 0 116 581 528 290 436 687 328 290 409 558 479 417 383 201 424 444 366 417 58 80 18 0 0 0 0 0 0 0
0 0 0 0 0 0 0 0 0 0 0 0 0 127 250 146 121 30 0 0 116 445 490 815 739 556 167 3 198 686 669 632 729 766 758 720 579 518 169 141 54 40 3 2 0 0 0 0 0
0 0 0 0 0 0 0 0 0 0 0 0 0 204 249 179 147 82 0 26 194 404 337 963 1566 1021 853 602 59 472 486 665 1132 1351 608 934 478 959 576 376 207 79 24 13 0 0 0 9 0
0 0 0 0 0 0 0 0 0 0 0 0 0 2 218 151 136 132 142 74 49 369 557 1411 1733 1603 852 696 410 307 389 543 652 538 677 522 430 527 163 71 0 0 0 0 4 0 22 0 8
0 0 0 0 0 0 0 0 0 0 0 0 0 0 123 170 197 327 296 159 82 200 430 853 1889 2337 1551 802 856 636 520 813 486 518 476 394 273 314 254 65 24 1 0 0 4 0 0 0 0
0 0 0 0 0 0 0 0 0 0 0 0 0 0 26 228 291 310 281 355 293 296 657 1121 1561 2492 1817 790 550 539 710 753 631 252 92 173 213 278 167 74 60 18 0 0 0 0 0 0 0
0 0 0 0 0 0 0 0 0 0 0 0 0 0 0 12 46 199 221 367 312 214 709 1211 656 2192 1913 730 406 221 223 36 64 107 36 52 58 68 76 69 60 47 83 64 28 18 1 0 0
0 0 0 0 0 0 0 0 0 0 0 0 0 0 0 22 15 45 187 266 274 311 260 174 958 2194 1968 1073 410 126 87 62 42 27 63 28 15 85 84 95 90 106 112 70 80 55 30 8 3
0 0 13 0 0 0 0 0 0 0 0 0 0 0 0 0 26 68 41 269 225 433 392 518 1242 1797 1645 910 268 168 93 53 59 115 47 54 3 67 30 29 47 85 39 51 66 46 44 39 11
5 0 0 0 0 0 0 0 2 0 0 0 0 0 1 0 29 295 189 130 115 437 463 595 1139 1157 810 362 154 61 39 24 36 21 15 5 0 11 3 0 5 32 1 0 1 9 4 18 29
0 0 0 0 0 0 0 0 0 0 0 0 0 0 0 0 6 108 140 149 128 472 355 516 609 517 155 44 9 2 1 0 1 9 26 0 3 0 0 0 0 0 0 0 0 0 0 0 0
0 0 0 0 0 0 0 0 0 0 0 0 0 0 0 0 6 55 110 100 0 4 0 8 66 5 0 0 0 0 0 4 7 15 0 0 1 0 0 0 0 0 0 0 0 0 0 0 0
0 0 0 0 0 0 0 0 0 0 0 0 0 0 0 0 0 0 0 1 0 0 0 0 0 0 0 0 0 0 0 9 1 0 0 5 0 0 0 0 4 0 0 0 0 0 0 0 0
0 0 0 0 0 0 7 8 0 0 0 0 0 0 0 0 0 0 0 0 0 0 0 0 0 0 0 0 0 0 0 2 2 0 0 0 0 0 0 0 0 0 0 0 0 10 1 0 0
0 0 0 0 0 0 0 63 79 0 0 0 0 0 0 0 0 0 0 0 0 1 1 0 0 0 0 0 0 0 0 0 0 0 0 0 0 0 0 0 0 0 0 4 0 0 0 2 0
0 0 0 0 2 319 26 84 32 1 0 0 0 0 0 0 0 0 0 0 0 1 0 0 0 0 0 0 0 0 0 0 0 2 1 0 0 0 0 0 0 0 8 14 12 12 2 0 0
0 1 424 445 500 495 74 20 125 20 17 8 0 0 0 0 0 0 0 0 0 7 6 3 0 0 2 5 15 16 13 17 9 1 0 0 0 0 0 0 8 7 12 7 8 3 3 1 0
0 0 485 46 216 105 1 5 3 0 7 0 0 0 0 0 0 0 0 3 9 19 15 14 3 0 0 3 0 0 8 3 2 1 0 0 0 0 0 26 16 31 26 19 15 6 18 28 18
4 31 0 0 3 13 1 88 13 2 0 0 0 0 9 2 0 1 12 17 10 8 4 0 1 0 2 0 0 0 0 0 1 1 0 0 0 1 10 15 34 15 18 18 17 1 3 17 28
0 0 2 318 21 0 0 2 55 8 4 1 1 0 0 0 6 6 2 2 0 0 6 17 4 5 0 0 0 0 2 0 0 0 0 4 2 0 10 14 2 11 31 19 5 7 16 25 11
0 3 0 0 20 0 0 0 0 6 2 16 13 2 0 0 0 1 2 0 1 0 9 9 19 9 1 0 0 0 0 0 6 6 1 0 0 5 10 19 9 23 12 12 4 3 0 0 0
0 0 0 45 0 54 33 0 0 0 0 1 0 1 2 0 0 0 0 9 11 10 8 18 13 1 0 0 0 0 4 1 0 0 0 0 6 24 26 27 32 30 23 17 7 0 3 28 16

GFSSGP_con_mucape_027.txt.gz
CAPE
0 0 0 0 0 3 8 6 21 55 53 11 19 93 119 136 106 55 434 448 385 550 804 994 1073 1307 1484 1589 1557 1532 1549 1657 1656 1607 1594 1498 1340 1268 1268 1112 1229 1183 1198 1306 1580 1700 1558 1281 1022
0 0 0 0 0 17 18 12 9 29 42 73 30 16 12 33 127 296 434 503 386 464 676 813 945 1120 1322 1488 1591 1666 1657 1594 1730 1734 1571 1459 1196 1152 1118 1062 1255 1309 1322 1400 1464 1462 1423 1214 1065
0 0 0 8 5 3 2 0 5 4 4 8 0 0 51 69 136 278 453 586 520 303 370 532 667 874 1083 1234 1307 1416 1559 1679 1672 1663 1683 1571 1425 1402 1104 1045 1285 1165 1207 1132 1053 748 532 520 741
0 0 0 0 0 9 34 31 14 0 1 0 0 0 46 121 95 171 371 323 370 144 164 258 434 690 883 1008 1082 1167 1295 1398 1476 1592 1641 1416 1167 971 852 961 1005 1003 1001 890 730 465 344 494 606
0 0 16 29 6 1 26 13 0 3 37 54 24 48 49 85 40 94 181 67 51 0 64 208 425 656 804 801 750 952 1053 1097 1161 1244 1301 1157 1044 1029 984 1008 975 857 622 568 557 554 517 388 278
0 0 15 8 23 2 1 4 28 1 1 99 81 110 47 39 8 0 21 0 0 0 10 165 521 584 627 651 638 651 729 858 930 1018 1040 990 962 919 736 581 458 392 311 266 211 149 117 70 40
4 9 7 12 11 0 22 12 2 0 0 56 108 99 76 15 0 0 0 0 0 0 0 64 185 331 348 320 305 319 401 437 468 480 505 537 635 693 678 493 302 179 107 77 35 4 2 6 11
0 9 11 3 0 0 0 0 0 0 0 58 113 148 126 85 0 0 0 0 0 3 46 80 47 47 48 63 130 105 132 142 144 182 178 198 259 406 448 270 265 110 39 5 0 0 0 0 0
0 12 9 0 0 0 0 0 0 0 0 0 59 188 160 78 0 0 0 0 0 86 118 189 256 107 27 0 96 190 219 132 205 157 254 162 307 167 264 93 105 83 24 0 0 0 0 0 0
0 0 0 0 0 0 0 0 0 0 0 79 191 235 202 15 0 0 0 0 15 177 222 219 245 276 102 0 30 32 189 298 315 408 320 297 312 219 210 110 86 80 43 20 5 0 0 0 0
0 0 0 0 0 0 0 0 0 0 0 104 252 228 99 56 0 0 0 0 116 229 339 286 37 13 82 96 68 137 150 364 476 373 160 93 173 205 138 148 80 1 6 0 0 0 0 0 0
0 0 0 0 0 0 0 0 0 0 0 0 213 194 91 56 21 1 2 27 142 263 549 359 194 132 80 8 0 51 272 402 535 312 106 31 93 15 0 0 0 0 0 0 0 0 0 0 0
0 0 0 0 0 0 0 0 0 0 0 0 226 194 118 82 75 56 68 134 216 275 637 586 387 271 308 15 6 21 130 135 148 169 49 17 45 5 10 0 0 0 0 0 0 0 0 0 0
0 0 0 0 0 0 0 0 0 0 0 0 127 186 117 85 99 137 146 166 74 291 785 915 1109 969 869 263 110 90 119 124 104 49 6 23 14 27 26 0 3 0 0 7 0 0 0 3 0
0 0 0 0 0 0 0 0 0 0 0 0 0 79 51 96 152 229 242 117 209 141 571 1267 1548 1057 868 365 173 34 191 59 12 0 0 12 0 1 0 0 11 6 18 11 0 0 7 0 0
0 0 0 0 0 0 0 0 0 0 0 0 0 0 12 156 136 262 128 145 241 407 598 1264 1071 402 511 379 190 102 33 0 0 0 0 0 0 0 0 0 0 0 0 0 0 0 0 0 0
10 2 0 0 0 0 0 0 0 0 0 0 0 0 0 5 23 119 137 144 202 158 162 382 747 960 597 432 162 103 29 8 0 6 1 0 0 0 0 0 0 0 0 0 0 0 0 0 0
0 0 1 0 0 0 0 0 0 0 0 0 0 0 0 0 11 11 7 77 153 266 514 862 721 636 413 172 132 82 11 6 3 0 0 0 0 0 0 0 0 0 0 0 0 0 0 0 0
0 0 0 0 0 0 0 0 0 0 0 0 0 0 0 0 11 22 43 42 173 296 410 541 581 379 254 56 26 1 0 0 0 0 0 1 1 0 0 0 0 0 0 0 0 0 0 0 0
0 0 0 0 0 0 0 0 0 0 0 0 0 0 0 3 129 206 169 140 121 84 163 229 298 148 3 0 0 0 0 0 0 0 0 0 0 0 0 0 0 0 0 0 0 0 0 0 0
0 0 0 0 0 0 0 0 0 0 0 0 0 0 0 0 12 83 93 61 53 26 0 0 0 0 0 0 0 0 0 0 0 0 0 0 0 0 0 0 0 0 0 0 0 0 0 0 0
0 0 0 0 0 0 0 0 0 0 0 0 0 0 0 0 0 0 3 4 1 0 0 0 0 0 0 0 0 0 0 0 0 0 0 0 0 0 0 0 0 0 0 0 0 0 4 16 16
0 0 0 0 0 0 0 0 4 0 0 0 0 0 0 0 0 0 0 0 0 0 0 0 0 0 0 0 0 0 0 0 0 0 0 0 0 0 0 0 0 0 0 0 2 15 9 7 2
0 0 0 0 0 0 29 28 0 0 2 0 0 0 0 0 0 0 0 0 0 0 0 0 0 0 0 0 0 0 0 0 0 1 1 1 0 0 0 0 0 0 0 6 5 6 6 6 3
0 0 45 16 49 9 58 34 28 17 1 1 4 0 0 0 0 0 0 0 0 0 0 0 0 0 0 0 0 0 0 7 9 4 4 1 0 0 0 0 0 0 2 3 17 15 5 11 2
0 0 0 0 0 1 2 1 3 5 5 6 12 3 0 0 0 0 0 0 0 0 0 0 0 0 0 0 0 0 0 0 0 0 0 0 0 0 0 0 6 2 0 6 16 14 11 8 8
0 0 0 0 0 0 0 10 22 26 19 3 0 0 0 0 0 0 0 0 0 0 0 0 0 0 5 1 0 1 1 0 0 0 0 0 0 0 0 0 0 4 8 2 1 4 1 12 1
0 0 0 0 0 0 0 7 8 0 0 0 0 0 0 0 0 0 0 0 0 0 0 0 0 0 1 5 4 1 0 0 0 0 0 0 0 0 0 0 7 9 18 22 19 14 0 0 0
0 0 0 0 0 0 0 0 18 17 13 3 1 1 0 0 0 0 0 0 0 0 0 0 0 0 2 1 1 0 0 0 0 0 0 3 0 0 2 18 38 27 16 20 20 6 8 13 14
0 0 0 0 0 0 0 0 0 4 3 5 0 3 0 0 0 0 0 0 0 0 4 0 0 0 0 0 0 0 0 0 0 0 0 0 0 0 0 0 0 14 30 31 44 30 4 0 0

GFSSGP_con_mucape_030.txt.gz
CAPE
0 0 0 0 0 0 0 5 6 17 65 71 54 68 99 101 101 158 438 375 535 708 766 869 1063 1284 1292 1297 1334 1428 1649 1454 1335 1228 1225 1155 1025 1011 946 956 1106 1252 1234 1507 1489 1365 1249 1066 922
0 0 0 0 0 0 1 1 37 4 34 36 54 71 111 243 378 495 378 382 541 696 777 860 1061 1252 1372 1405 1425 1360 1474 1403 1456 1291 1125 1049 1060 1013 930 931 1335 1229 1213 1176 1081 937 782 752 751
0 0 0 0 0 0 9 20 0 5 0 0 37 61 121 283 389 429 358 363 488 602 674 751 858 981 1143 1224 1314 1413 1421 1424 1520 1493 1202 1258 1179 975 891 873 1196 1013 931 911 607 409 301 320 403
0 0 0 2 1 7 19 28 0 14 0 0 16 87 109 181 405 428 372 332 374 399 385 457 579 744 951 1067 1145 1252 1331 1346 1459 1511 1421 1142 907 677 663 769 927 852 695 530 427 416 424 393 328
0 0 35 63 67 40 46 70 6 4 5 5 11 52 76 263 512 505 306 281 68 55 112 220 388 616 766 787 809 1015 1073 1076 1185 1247 1195 911 763 790 787 760 635 442 335 344 315 283 182 117 87
4 0 18 39 34 61 4 0 71 54 25 15 45 86 48 416 284 136 65 0 0 1 82 202 442 538 601 664 675 723 779 845 934 1006 1039 913 811 713 496 392 282 239 171 91 43 33 24 25 36
0 0 0 0 18 0 0 3 52 54 91 71 57 50 16 70 48 11 0 0 0 0 20 105 209 262 274 247 266 299 415 513 600 599 639 597 550 566 527 334 178 127 57 8 0 0 0 0 0
0 0 1 34 51 0 0 0 0 18 112 90 50 1 0 6 0 0 0 0 0 1 0 0 52 8 0 22 115 115 148 205 248 243 231 201 261 328 310 212 188 140 41 0 0 0 0 0 0
0 3 4 7 10 21 0 0 0 97 150 17 123 4 0 0 0 0 0 0 56 80 74 10 0 0 0 0 45 118 175 131 129 184 130 143 97 128 174 31 68 127 29 0 0 0 0 0 0
0 0 0 1 0 0 0 0 0 2 82 126 136 114 55 0 0 0 0 0 78 122 92 42 10 3 0 17 64 105 132 194 167 284 240 160 237 134 153 106 77 106 44 23 11 0 0 0 0
0 0 0 0 0 0 0 0 0 2 107 166 171 158 95 0 0 0 0 0 122 175 127 163 111 27 4 19 81 77 210 328 342 315 290 283 285 355 186 71 18 0 1 0 0 0 0 0 0
0 0 0 0 0 0 0 0 0 0 59 155 197 198 72 0 0 0 0 2 195 247 213 167 238 203 85 116 88 173 188 370 466 431 249 57 271 0 9 17 0 0 0 0 0 0 0 0 0
0 0 0 0 0 0 0 0 0 0 94 233 238 115 38 0 0 0 47 77 233 280 282 187 208 130 74 69 52 123 371 405 592 236 78 23 7 0 0 0 0 0 0 0 0 0 0 0 0
0 0 0 0 0 0 0 0 0 0 193 278 182 137 69 46 28 48 115 150 203 349 383 285 220 120 159 34 35 10 90 432 173 210 96 13 30 5 6 0 0 0 0 0 0 0 0 0 0
0 0 0 0 0 0 0 0 0 0 206 241 208 173 64 76 90 123 182 208 171 347 581 548 589 632 533 361 211 131 114 113 141 158 36 27 1 8 0 0 0 0 0 0 0 0 0 0 0
0 0 0 14 0 0 0 0 0 0 49 220 233 170 103 101 177 263 283 207 203 577 952 841 881 373 380 397 212 162 107 74 36 20 5 18 8 6 1 0 0 0 0 0 0 0 0 0 0
5 0 1 11 0 0 0 0 0 0 0 6 49 29 89 54 155 248 305 181 264 769 1168 1187 696 491 105 314 258 31 8 31 25 0 3 9 17 7 5 5 0 0 0 0 0 0 0 0 0
0 1 1 0 0 0 0 0 0 0 0 0 0 0 0 0 24 82 211 354 419 600 941 919 731 618 476 175 72 54 74 22 0 0 0 0 0 3 6 6 7 4 0 0 0 0 0 0 0
0 0 0 0 0 0 0 0 0 0 0 0 0 0 0 0 20 203 125 95 296 453 356 223 110 106 90 108 100 78 31 11 2 0 0 2 10 23 24 9 4 0 0 0 0 0 0 0 0
1 0 0 0 0 0 0 0 0 0 0 0 0 0 0 0 27 120 104 89 78 68 59 47 13 12 0 0 0 0 0 0 0 0 0 0 1 5 7 0 2 6 0 0 0 0 0 0 0
0 0 0 0 0 0 0 0 0 0 0 0 0 0 7 37 51 76 65 73 56 32 17 0 0 0 0 0 0 0 0 0 0 0 0 0 0 0 0 0 0 0 0 0 0 0 0 0 4
0 0 0 0 0 0 0 0 0 0 0 0 0 0 10 24 40 29 34 39 44 12 0 0 0 0 0 0 0 0 0 0 0 0 0 0 0 0 0 0 0 0 0 0 0 0 11 14 1
0 0 0 0 0 0 0 0 0 0 0 0 0 0 4 1 0 0 0 0 0 0 0 0 0 0 0 0 0 0 0 0 0 0 0 0 0 0 0 0 0 0 0 0 3 2 2 0 1
0 0 0 0 0 0 2 1 0 0 0 0 0 0 0 0 0 0 0 0 0 0 0 0 0 0 0 0 0 0 0 0 0 1 4 0 0 0 0 0 0 0 0 0 0 0 0 1 2
0 0 16 2 8 0 0 2 4 5 4 0 1 0 0 0 0 0 0 0 0 0 0 0 0 0 0 0 0 0 0 0 2 4 1 0 0 0 0 0 0 0 0 0 1 6 2 1 1
0 0 0 0 0 15 0 0 0 2 1 0 0 0 0 0 0 0 0 0 0 0 0 0 0 0 0 0 0 0 0 0 1 0 0 0 0 0 0 0 0 0 0 0 3 4 1 2 0
0 0 0 0 0 0 0 0 0 0 5 2 1 4 0 0 0 0 0 0 0 0 0 3 1 0 0 0 0 0 0 1 3 0 0 0 0 0 0 0 0 0 0 6 16 15 13 2 0
0 0 0 0 0 0 0 0 10 1 14 1 0 0 0 0 0 0 0 0 0 0 1 2 0 0 0 0 0 0 1 0 0 0 0 0 0 0 0 0 0 0 0 1 1 1 0 3 15
0 0 0 0 0 0 0 0 0 0 0 1 0 2 3 1 1 0 0 0 0 1 2 0 0 0 2 2 0 0 0 0 0 0 0 0 0 0 0 0 0 0 0 5 5 16 19 12 2
0 0 0 0 0 0 0 0 2 21 33 18 2 3 0 0 0 0 0 0 0 2 0 0 0 0 0 0 0 0 0 0 0 0 0 0 0 0 0 0 0 0 0 0 0 0 0 0 0

GFSSGP_con_mucape_033.txt.gz
CAPE
0 0 0 0 0 0 0 0 2 2 36 70 60 86 98 146 125 122 325 332 482 633 544 661 835 1023 1134 1264 1456 1485 1478 1197 1067 981 911 932 859 804 760 875 1051 1154 1231 1017 957 907 866 759 648
0 0 0 0 0 0 0 0 3 30 17 57 54 90 198 435 453 418 381 473 622 635 728 881 1006 1168 1219 1218 1396 1460 1345 1215 1111 1012 952 921 863 829 842 919 979 811 827 736 522 355 242 194 203
0 0 0 0 0 0 0 26 52 38 43 24 2 34 135 604 399 319 313 532 572 624 798 941 995 1074 1209 1250 1240 1359 1387 1371 1307 1212 1090 1064 958 855 717 776 836 740 630 347 238 224 257 211 178
0 0 0 0 0 0 6 42 68 19 27 43 1 5 140 366 376 294 410 458 541 623 730 801 805 868 1054 1211 1267 1274 1285 1275 1297 1325 1214 1019 769 592 637 785 745 524 288 205 185 160 100 55 29
0 0 0 51 31 21 3 24 38 60 42 25 61 85 163 320 338 287 400 471 504 475 425 492 598 766 956 992 1078 1105 1165 1177 1229 1209 1066 719 651 667 725 681 429 263 216 169 64 41 25 12 18
0 8 80 71 57 35 31 48 64 54 57 38 109 241 417 513 386 294 375 293 134 80 99 210 440 582 677 792 815 795 824 879 923 985 1008 898 785 707 484 345 236 164 102 41 3 0 0 0 0
0 16 38 50 70 18 21 101 46 46 68 77 86 165 557 543 308 135 28 0 0 0 7 103 206 308 361 386 436 459 556 623 645 729 758 750 629 527 446 303 169 78 44 1 0 0 0 0 0
0 1 3 0 22 0 25 36 177 172 98 28 43 124 420 289 79 0 0 0 0 0 0 0 2 4 10 56 125 174 248 285 342 376 338 219 236 306 258 165 157 105 24 0 0 0 0 0 0
0 0 0 0 1 0 0 98 139 180 55 59 127 70 124 33 0 0 0 0 0 0 0 0 0 0 0 0 8 69 180 143 163 163 126 86 68 135 180 71 50 149 64 12 0 0 0 0 0
0 1 3 2 6 0 0 26 179 166 82 51 50 46 61 0 0 0 0 0 30 42 4 0 0 0 0 0 1 0 13 10 152 171 132 119 156 97 150 127 141 158 116 122 115 77 11 0 0
0 5 0 6 2 0 0 12 14 100 102 54 10 26 1 0 0 0 0 26 51 72 23 12 0 0 0 0 31 28 108 114 156 258 204 190 217 261 168 185 24 0 0 0 0 0 0 0 0
0 0 0 0 0 0 0 0 41 0 115 89 42 11 0 0 0 0 0 21 99 139 100 66 1 0 6 42 75 125 140 268 280 291 313 224 196 212 149 83 0 0 0 0 0 0 0 0 0
0 0 0 0 0 0 0 0 0 0 165 128 67 39 17 0 0 0 18 117 146 198 153 144 95 61 23 91 108 131 164 292 418 458 210 54 163 0 0 0 0 0 0 0 0 0 0 0 0
0 0 0 0 0 0 0 0 0 0 173 167 144 104 59 0 0 3 98 141 155 246 242 230 187 236 99 70 141 194 244 322 413 533 147 37 0 0 0 0 0 0 0 0 0 0 0 0 0
0 0 0 0 0 0 0 0 0 20 228 268 221 161 36 15 74 131 142 155 187 312 306 299 250 133 94 114 93 48 59 358 553 280 169 32 14 11 0 0 0 0 0 0 0 0 0 0 0
0 0 4 0 0 0 0 0 0 41 271 315 236 116 60 25 97 220 232 217 229 346 399 326 366 139 154 220 175 78 38 50 50 182 145 19 8 1 0 3 3 1 0 0 0 0 0 0 0
0 1 14 0 0 0 0 0 0 7 251 184 202 178 141 104 109 173 265 254 255 460 431 255 137 292 71 131 193 121 25 65 14 14 11 0 4 1 13 17 6 6 2 2 1 2 0 0 0
5 0 1 0 0 0 0 0 0 0 117 94 149 224 220 191 185 166 262 270 634 742 642 440 373 303 75 171 230 69 25 23 39 15 0 0 4 12 18 16 16 11 7 5 8 0 0 0 0
1 0 0 0 0 0 0 0 0 0 0 0 10 23 2 148 265 318 438 549 875 904 540 419 216 160 189 152 122 90 97 40 16 1 3 12 16 24 19 4 4 6 5 3 1 0 0 0 0
0 0 0 0 0 0 0 0 0 0 0 0 0 1 16 47 72 136 319 472 448 227 70 50 47 6 2 0 0 0 0 0 3 3 0 0 0 0 0 0 2 5 3 0 0 0 0 0 0
0 0 0 0 0 0 0 0 0 0 0 0 1 11 24 36 56 72 117 105 55 19 4 0 0 0 0 0 0 0 0 0 0 0 0 0 0 0 0 0 0 0 0 0 0 0 0 0 0
0 0 0 0 0 0 0 0 0 0 0 0 0 0 12 35 29 43 24 15 2 0 0 0 0 0 0 0 0 0 0 0 0 0 0 0 0 0 0 0 0 0 0 0 0 0 0 0 0
0 0 0 0 0 0 0 0 0 0 0 0 0 0 0 5 0 8 0 0 0 0 0 0 0 0 0 0 0 0 0 0 0 0 0 8 2 0 0 0 0 0 0 0 0 0 0 0 0
0 0 0 0 0 0 0 0 0 0 0 0 0 0 0 0 0 0 0 0 0 0 0 0 0 0 0 0 0 0 0 0 0 0 3 2 0 0 0 0 0 0 0 0 0 0 0 0 0
0 0 0 0 0 0 0 0 0 0 0 0 1 0 0 14 0 0 0 0 0 0 0 0 0 0 0 0 0 0 0 0 0 0 0 0 0 0 0 0 0 0 0 0 0 0 0 0 0
0 0 0 0 0 0 0 0 0 0 0 0 0 0 0 2 0 0 0 0 0 0 0 0 0 0 0 0 0 0 0 0 0 0 0 0 0 0 0 0 0 0 0 0 0 0 0 0 0
0 0 0 0 0 0 0 0 0 0 0 0 0 0 0 0 4 4 0 0 0 0 0 0 0 0 0 0 0 0 0 0 0 0 0 0 0 0 0 0 0 0 0 0 7 12 9 5 0
0 0 0 0 0 0 0 0 0 0 0 0 12 11 0 0 0 0 0 0 0 0 0 0 0 0 0 0 0 0 0 0 0 0 0 0 0 0 0 0 0 1 0 1 9 4 7 12 0
0 0 0 0 0 0 0 0 0 0 0 0 0 0 0 0 0 0 0 0 0 0 0 3 0 0 0 0 0 0 0 0 0 0 0 0 0 1 1 3 12 1 0 1 0 0 0 0 0
0 0 0 0 0 0 0 0 0 0 0 0 0 14 13 5 3 3 2 1 0 2 9 0 0 0 0 0 0 0 0 0 0 1 2 2 6 1 9 16 11 0 0 0 0 0 0 0 0

GFSSGP_con_mucape_036.txt.gz
CAPE
0 0 0 0 0 0 0 0 0 56 93 105 72 101 92 233 173 94 393 338 521 514 405 556 746 1025 1158 1365 1548 1506 1285 920 825 776 833 759 712 672 766 909 1000 870 652 639 546 380 262 174 172
0 0 0 0 0 0 0 3 44 54 106 113 81 66 199 432 484 398 411 633 555 485 553 588 824 1068 1337 1407 1407 1353 1146 994 899 876 829 747 705 758 816 776 694 659 517 296 145 116 135 121 79
0 0 0 0 0 0 0 34 133 102 68 53 43 22 84 537 369 354 449 694 622 636 735 849 860 938 1147 1308 1309 1309 1257 1161 1095 1024 851 839 806 669 575 660 638 438 134 84 57 40 20 10 8
0 0 0 0 0 0 38 122 138 50 35 59 18 30 1 327 377 392 545 682 1028 1004 799 844 814 910 1087 1189 1262 1223 1178 1094 1082 1127 934 842 602 484 588 634 401 183 100 45 25 14 6 6 3
0 0 0 0 0 0 47 169 104 48 32 25 8 0 53 456 480 440 623 922 700 643 714 731 731 886 1083 1077 1049 1128 1096 1095 1150 1138 1002 659 523 559 593 405 182 112 45 13 3 0 0 0 0
0 0 0 0 0 5 55 207 95 47 81 42 65 116 211 393 390 482 489 581 594 623 593 561 638 779 917 1024 981 925 965 985 978 925 853 734 682 635 370 200 106 41 5 0 0 0 0 0 0
0 0 1 18 21 32 120 98 52 43 38 54 142 291 367 473 345 493 564 551 379 247 244 305 387 494 583 611 605 630 666 684 723 736 710 692 560 477 368 176 76 17 10 0 3 0 0 0 0
0 0 4 34 40 52 102 55 39 62 57 66 153 282 448 479 323 472 372 83 0 0 0 8 95 121 108 185 246 315 392 408 421 462 374 304 238 176 82 37 34 1 11 91 127 57 24 5 0
0 39 13 1 1 24 28 130 166 116 58 15 39 269 474 473 247 86 0 0 0 0 0 0 0 0 0 1 80 203 269 256 245 249 155 86 17 46 66 12 13 137 106 118 178 171 67 18 0
0 0 1 1 11 16 2 0 41 120 59 30 45 140 489 275 94 0 0 0 0 0 0 0 0 0 0 0 0 0 6 21 35 37 51 48 58 46 82 97 80 135 53 45 13 0 0 0 0
0 0 0 0 6 22 3 37 166 112 71 27 30 318 223 81 0 0 0 0 0 0 0 0 0 0 0 0 0 0 0 67 129 162 144 119 140 161 124 102 53 0 0 0 0 0 0 0 0
9 0 0 1 0 7 0 71 144 81 24 46 137 198 18 0 0 0 0 0 7 39 5 0 0 0 0 0 0 12 78 89 128 227 224 188 214 193 161 50 0 0 0 0 0 0 0 0 0
0 0 0 1 0 0 8 2 31 0 111 29 117 90 0 0 0 0 0 2 19 127 88 4 0 0 0 0 36 95 142 249 264 319 333 249 110 164 0 0 0 0 0 0 0 0 0 0 0
0 0 0 0 0 0 0 0 0 0 147 50 61 46 0 0 12 0 0 94 149 165 196 169 43 3 0 32 79 96 132 227 368 471 444 221 57 20 0 0 0 0 0 0 0 0 0 0 0
0 0 0 0 0 0 0 0 0 16 146 33 48 37 25 24 75 70 51 83 124 166 275 264 193 85 102 36 33 97 146 261 344 491 500 183 42 2 0 0 0 4 10 3 0 0 0 0 0
0 0 0 0 0 0 0 0 0 126 171 68 100 82 92 73 120 184 161 170 202 212 244 305 244 192 53 23 54 95 133 268 195 131 268 154 68 3 2 3 17 24 15 1 1 0 0 0 0
0 0 0 0 0 0 0 0 0 160 205 192 181 175 198 83 72 178 209 253 280 245 209 273 156 115 70 20 0 93 94 92 112 62 67 37 7 8 27 39 41 31 20 18 20 3 0 0 0
1 0 0 0 0 0 0 0 0 45 273 267 291 298 242 170 95 113 191 255 204 216 207 290 128 47 7 55 62 99 93 44 28 39 36 7 12 19 16 8 3 3 3 2 0 0 1 0 0
0 0 0 0 0 0 0 0 0 0 202 246 243 223 204 192 239 232 298 377 367 385 362 228 224 119 74 80 87 100 21 9 0 0 0 0 0 0 0 0 0 0 0 0 0 0 0 0 0
9 0 0 0 0 0 0 0 0 0 0 33 33 19 57 206 321 428 538 634 570 268 156 23 40 18 0 0 0 0 0 0 0 0 0 0 0 0 0 0 0 0 0 0 0 0 0 0 0
0 0 0 0 0 0 0 0 0 0 0 0 0 2 142 224 269 261 239 71 33 23 6 0 0 0 0 0 0 0 0 0 0 0 0 0 0 0 0 0 0 0 0 0 0 0 0 0 0
0 0 0 0 0 0 0 0 0 0 0 0 0 13 23 29 16 6 1 0 0 0 0 0 0 0 0 0 0 0 0 0 0 0 0 0 0 0 0 0 0 0 0 0 0 0 0 0 0
0 0 0 0 0 0 0 0 0 0 0 0 0 0 2 10 0 0 0 0 0 0 0 0 0 0 0 0 0 0 0 0 0 0 0 0 0 0 0 0 0 0 0 0 0 0 0 0 0
0 0 0 0 0 0 0 0 0 0 0 0 0 0 0 0 0 0 0 0 0 0 0 0 0 0 0 0 0 0 0 0 0 0 0 0 0 0 0 0 0 0 0 0 0 0 0 0 0
0 0 0 0 0 0 0 0 0 0 0 0 0 0 0 0 0 0 4 0 0 0 0 0 0 0 0 0 0 0 0 0 0 0 0 0 0 0 0 0 0 0 0 0 0 0 0 0 2
0 0 0 0 0 0 0 0 0 0 0 0 0 0 0 0 0 0 1 0 6 0 0 0 0 0 0 0 0 0 0 0 0 0 0 0 0 0 0 0 0 0 0 0 0 1 2 0 0
0 0 0 0 0 0 0 0 0 0 0 0 0 0 0 3 5 1 12 11 2 0 0 0 0 1 0 0 0 0 0 0 0 0 0 0 0 0 0 0 0 0 0 2 8 4 0 0 0
0 0 0 0 0 0 0 0 0 0 0 0 0 0 0 1 8 9 0 0 1 0 0 1 1 0 0 0 0 0 0 0 0 0 0 0 0 0 0 0 1 18 21 9 5 15 22 0 0
0 0 0 0 0 0 0 0 0 0 0 0 0 0 0 0 0 0 0 0 1 0 4 3 1 0 0 0 0 0 0 0 0 0 0 0 0 0 5 19 19 20 28 0 0 0 0 0 0
0 0 0 0 0 0 0 0 0 0 0 0 0 0 0 9 18 7 7 9 10 15 8 4 0 0 0 0 0 0 0 0 0 0 0 0 0 0 0 0 26 29 10 1 2 0 0 0 0

GFSSGP_con_mucape_039.txt.gz
CAPE
0 0 0 0 0 0 0 0 4 91 84 104 95 103 127 257 185 123 357 530 677 644 571 742 789 1005 1052 1303 1338 1270 1198 932 777 796 773 707 650 727 838 888 758 554 477 207 75 78 81 65 41
0 0 0 0 0 0 0 0 32 116 103 79 101 132 125 214 509 461 454 796 702 585 652 794 900 1163 1370 1425 1353 1221 1087 881 924 819 737 678 721 785 726 565 786 414 113 34 15 6 0 0 0
0 0 0 0 0 0 0 53 155 124 92 36 28 41 40 145 316 314 706 839 675 692 737 912 967 1207 1343 1371 1329 1239 1193 1089 1045 969 783 803 749 572 564 591 582 161 30 11 1 0 0 0 0
0 0 0 0 0 0 0 139 103 96 47 43 29 14 188 241 348 408 887 835 705 617 759 756 856 1073 1290 1386 1335 1249 1164 1068 1053 1012 953 737 479 491 555 381 338 27 0 0 0 0 0 0 3
0 0 0 0 0 0 25 159 85 63 19 12 20 14 123 381 411 554 804 639 623 628 778 938 761 940 1227 1313 1189 1155 1059 1024 1125 1119 958 573 486 510 294 145 77 5 0 0 0 0 0 0 6
0 0 0 0 0 0 80 89 61 57 47 56 112 144 221 449 474 528 482 623 656 731 788 995 762 859 985 1085 1024 945 947 993 962 890 797 708 626 490 178 79 45 6 4 0 0 0 0 0 0
0 0 0 13 48 105 151 115 69 43 56 53 151 360 403 493 591 455 496 590 562 642 721 738 753 815 848 826 791 807 832 798 719 688 681 595 438 336 253 171 76 0 54 40 2 0 0 0 0
1 0 8 54 72 87 120 122 86 9 24 96 199 339 558 423 452 447 536 582 590 487 333 410 508 625 736 755 630 597 536 509 524 491 395 239 229 137 109 10 114 128 82 103 82 105 42 14 0
0 0 0 63 90 60 59 64 10 3 65 137 104 431 513 413 480 537 572 442 172 36 75 108 180 225 260 325 367 329 375 340 304 291 182 107 277 247 152 38 74 140 143 132 79 42 9 0 0
2 0 0 4 62 13 43 20 0 88 98 54 67 337 575 419 498 500 278 1 0 0 11 28 69 16 32 19 281 320 277 242 305 291 331 259 282 300 235 128 20 28 0 0 0 0 0 0 0
0 0 0 0 33 28 63 46 107 147 124 43 95 657 597 410 360 106 0 0 0 0 0 0 0 0 0 17 51 36 101 142 172 251 275 246 228 305 336 373 175 44 0 0 0 0 0 0 0
0 0 0 0 7 40 46 58 180 179 24 68 176 700 453 254 59 0 0 0 0 0 0 0 0 0 0 0 16 15 63 113 192 249 260 373 366 376 325 167 0 0 0 0 0 0 0 0 0
0 0 0 0 0 53 62 68 220 108 61 82 390 367 158 87 0 0 0 0 1 9 0 0 0 0 0 0 3 16 96 223 337 394 416 301 196 139 0 0 0 0 0 0 0 0 0 0 0
0 0 8 18 37 51 31 107 101 4 50 209 362 184 17 0 0 0 0 23 67 87 120 51 0 11 0 8 49 94 140 180 229 338 399 368 162 77 4 0 0 0 0 0 2 0 0 0 0
0 0 0 0 15 0 0 0 0 6 42 168 177 105 6 4 0 0 0 84 122 115 187 204 154 55 59 53 124 75 121 113 216 223 264 246 156 90 15 0 0 1 5 8 9 7 2 0 0
0 0 0 0 0 0 0 0 0 73 52 83 122 96 29 72 58 12 10 70 135 154 190 228 230 92 132 70 20 0 17 88 102 153 149 132 92 59 26 11 14 14 20 21 15 9 4 1 0
0 0 0 0 0 0 0 0 0 172 102 31 81 85 99 98 104 140 129 112 143 197 151 158 194 104 83 12 0 0 7 65 49 63 20 17 29 10 9 6 8 8 1 0 1 0 0 0 0
0 0 0 0 0 0 0 0 0 200 182 68 77 96 119 169 111 108 138 125 178 146 168 163 123 119 83 30 5 26 29 13 41 34 25 4 0 0 0 0 0 0 0 0 0 0 0 0 0
0 0 0 0 0 0 0 0 0 15 186 220 187 186 197 252 258 216 149 162 195 273 267 177 177 101 38 23 14 0 0 0 0 0 0 0 0 0 0 0 0 0 0 0 0 0 0 0 0
1 0 0 0 0 0 0 0 0 0 59 212 240 259 275 270 376 516 543 502 402 313 264 250 91 0 0 0 0 0 0 0 0 0 0 0 0 0 0 0 0 0 0 0 0 0 0 0 0
2 0 0 0 0 0 0 0 0 0 0 9 74 53 100 248 311 257 197 55 13 23 5 4 0 0 0 0 0 0 0 0 0 0 0 0 0 0 0 0 0 0 0 0 0 0 0 0 0
4 0 0 0 0 0 0 0 0 0 0 0 0 98 246 274 213 34 19 1 0 0 0 0 0 0 0 0 0 0 0 0 0 0 0 0 0 0 0 0 0 0 0 0 0 0 0 0 0
5 2 0 0 0 0 0 0 0 0 0 0 0 71 64 15 3 0 0 0 0 0 0 0 0 0 0 0 0 0 0 0 0 0 0 0 0 0 0 0 0 0 0 0 0 0 2 10 20
0 0 0 0 0 0 0 0 0 0 0 0 0 0 0 0 0 0 2 1 0 0 1 0 0 0 0 0 0 0 0 0 0 0 0 0 0 0 0 0 0 0 0 0 1 20 36 41 32
0 0 0 2 0 0 0 0 0 0 0 0 0 0 0 0 0 0 1 2 0 9 0 0 0 0 0 0 0 0 0 0 0 0 0 0 0 0 0 0 0 0 0 6 13 53 64 80 86
0 0 2 0 0 0 0 0 0 0 0 0 0 0 0 0 0 0 4 12 8 3 0 0 0 0 0 0 6 0 0 0 0 0 0 0 0 0 0 0 0 0 0 0 5 49 95 77 85
0 0 0 0 0 0 0 0 0 0 0 0 0 0 0 0 0 0 3 0 0 0 0 0 0 1 6 11 10 0 0 0 0 0 0 0 0 0 0 0 0 0 18 38 67 98 51 44 79
0 0 0 0 0 0 0 0 0 0 0 0 0 0 0 0 0 0 0 0 0 0 0 4 14 24 14 18 0 0 0 0 0 0 0 0 0 0 0 0 1 11 36 61 56 67 34 50 85
0 0 0 0 0 0 0 0 0 0 0 0 0 0 0 0 0 0 0 0 8 6 8 13 10 13 19 6 0 0 0 0 0 0 0 0 0 0 0 0 0 10 19 20 14 3 0 0 0
0 0 0 0 0 0 0 0 0 0 0 0 0 0 0 0 0 2 7 10 10 10 14 30 37 14 1 0 0 0 0 0 0 0 0 0 0 0 0 0 0 11 31 6 8 2 0 0 0

GFSSGP_con_mucape_042.txt.gz
CAPE
0 0 0 0 0 0 0 0 74 363 362 268 204 275 457 608 409 382 496 487 524 745 689 779 822 1022 1144 1279 1358 1361 1159 908 776 751 706 671 738 813 845 605 542 311 69 43 42 25 0 0 0
0 0 0 0 0 0 0 0 21 482 328 93 62 197 230 292 584 551 575 628 622 614 769 819 780 1034 1358 1389 1375 1365 1186 929 904 777 683 698 805 688 524 516 532 170 10 0 0 0 0 0 0
0 0 0 0 0 2 5 24 537 288 50 70 39 60 80 83 570 476 641 745 594 798 924 1060 896 1045 1264 1350 1275 1313 1248 1196 1087 926 757 792 601 494 523 342 368 132 0 0 0 0 0 0 0
0 0 0 0 0 0 10 562 595 126 48 1 0 11 126 275 270 532 843 737 875 969 1021 836 987 1018 1370 1321 1419 1356 1232 1114 1033 1018 851 519 467 487 341 250 294 3 0 0 0 0 0 0 0
0 0 0 0 0 0 37 493 298 118 69 37 0 12 202 516 529 1080 1070 834 946 1000 1121 1217 1019 1096 1325 1546 1429 1252 1137 1081 1080 1068 822 547 499 314 192 139 26 0 0 0 0 0 0 0 0
0 0 0 0 7 10 388 406 238 145 71 24 2 72 338 640 868 994 924 1027 1022 1086 1044 1059 979 1156 1271 1326 1141 967 986 1046 1004 881 835 676 511 324 72 0 0 0 0 0 0 0 0 0 0
0 0 0 4 44 166 565 428 135 111 74 97 145 155 557 752 872 706 942 844 1226 1281 1248 1189 1088 970 914 835 784 794 865 815 707 694 706 557 436 339 236 213 22 17 24 13 0 0 1 6 0
0 5 0 55 187 518 567 82 61 11 62 203 248 261 669 531 536 783 1007 1247 1377 1287 892 605 567 623 651 752 686 706 618 517 507 532 387 262 170 118 33 131 151 80 91 84 69 19 0 0 0
0 0 34 314 416 261 372 87 73 53 103 132 146 504 889 668 757 1028 977 1040 909 627 528 407 386 416 350 318 543 364 399 372 343 320 198 112 271 252 124 73 171 104 40 10 0 0 0 0 0
0 0 12 138 420 129 17 89 47 76 144 113 248 913 1005 953 905 879 802 647 319 173 150 213 206 197 172 29 236 273 118 268 448 417 496 464 588 526 309 185 19 1 0 0 0 0 0 0 0
0 0 0 7 170 52 15 128 198 130 280 256 323 1094 989 987 850 812 366 39 3 32 31 53 148 199 106 114 113 68 267 463 661 749 780 809 730 831 731 614 319 117 0 0 0 0 0 0 0
0 0 0 0 85 0 173 197 335 327 136 207 328 1194 1080 829 704 246 0 0 0 3 6 24 65 182 153 72 169 352 424 591 657 847 994 977 975 1087 1077 666 167 80 45 40 12 0 0 0 0
0 0 0 15 21 27 88 200 328 130 264 424 1009 1065 680 384 77 0 0 0 2 48 70 80 52 92 178 282 418 510 585 705 960 970 1165 1125 1162 849 457 241 120 45 3 0 0 0 0 0 0
0 0 0 8 28 52 71 194 308 153 364 737 1047 657 179 58 0 0 0 1 26 150 215 304 276 229 264 340 413 338 238 456 645 888 539 270 294 280 236 108 10 3 1 0 0 1 6 4 0
0 0 0 22 36 73 65 84 12 68 339 547 507 347 80 0 0 0 0 29 56 251 455 487 502 330 281 193 73 19 8 59 125 256 222 156 246 206 77 57 32 18 1 1 2 8 6 0 0
0 0 0 23 40 35 0 0 0 173 341 457 376 220 113 0 0 0 2 86 123 212 572 560 359 265 109 53 9 0 0 0 31 41 63 52 53 28 22 28 15 1 3 3 0 0 0 0 0
0 0 0 0 5 1 0 0 0 236 292 417 379 262 154 112 47 93 200 188 157 400 673 528 430 223 58 65 21 8 0 28 45 49 55 36 16 9 3 0 0 0 0 0 0 0 0 0 0
5 0 0 0 0 0 0 0 0 221 324 334 359 325 243 202 116 239 409 429 402 686 734 568 506 140 45 30 34 0 7 13 8 4 0 0 0 0 0 0 0 0 0 0 0 0 0 0 0
1 2 0 0 0 0 0 0 0 256 393 341 341 329 279 221 230 421 602 617 604 511 586 516 190 94 97 69 8 0 0 0 0 0 0 0 0 0 0 0 0 0 0 0 0 0 0 0 0
0 13 28 2 2 37 69 91 8 58 361 423 411 392 386 384 541 558 733 808 740 608 664 568 671 618 277 51 1 0 0 0 0 0 0 0 0 0 0 0 0 0 0 0 0 0 0 0 0
39 73 44 50 2 20 58 105 72 0 57 100 216 365 401 603 720 714 773 946 887 881 972 805 502 167 2 0 0 0 0 0 0 0 0 0 0 0 0 0 0 0 0 0 0 0 0 2 1
84 6 5 7 47 93 3 108 164 98 31 59 113 266 480 479 295 213 78 240 365 395 204 4 0 0 0 0 0 0 16 21 1 0 0 0 0 0 0 0 0 0 0 1 5 7 21 24 34
93 16 19 3 32 38 9 24 177 90 109 13 112 317 338 184 155 31 12 1 1 0 0 0 0 0 0 0 0 12 11 0 0 0 0 0 0 0 0 0 0 0 16 34 52 59 64 66 72
30 80 81 65 83 70 18 13 0 69 69 91 58 253 181 101 1 0 0 0 0 0 0 1 0 0 0 0 0 0 0 0 0 0 0 1 0 0 1 4 8 29 50 64 76 86 73 74 73
80 65 3 22 41 18 0 2 0 0 0 75 86 144 19 0 0 0 0 0 0 0 0 0 0 0 0 0 0 2 0 0 0 0 0 0 0 4 14 25 40 37 37 74 86 76 70 69 73
37 17 0 0 0 2 0 18 109 0 0 0 65 68 0 0 0 0 0 0 0 3 0 0 0 0 0 0 2 5 4 1 0 0 0 0 11 18 16 37 43 32 45 72 65 75 86 89 91
14 16 0 9 0 1 0 0 1 0 0 0 94 32 0 0 0 0 0 0 0 0 0 0 0 0 0 5 7 11 14 1 0 0 0 0 1 4 0 0 3 6 19 45 72 86 81 85 76
14 0 2 0 0 0 0 0 0 0 0 0 36 1 0 0 0 0 0 0 0 0 0 0 1 4 16 10 9 6 0 0 0 0 0 0 0 0 0 0 0 2 9 35 63 64 63 60 67
0 0 0 0 0 0 0 0 0 0 0 0 14 0 0 0 0 0 0 0 0 0 6 12 9 12 5 2 7 1 0 0 0 0 0 0 0 0 0 0 1 6 20 46 43 53 48 23 37
0 0 0 0 0 0 0 0 0 0 0 0 0 0 0 0 0 0 0 0 4 10 9 8 7 14 10 10 0 0 0 0 0 0 0 0 0 0 0 0 4 18 30 37 40 22 23 36 24

GFSSGP_con_mucape_045.txt.gz
CAPE
0 0 0 0 0 0 0 0 8 474 709 664 584 430 739 620 771 817 488 502 662 629 535 466 863 1023 1154 1234 1245 1227 1109 890 792 700 710 748 805 760 580 488 447 160 57 13 0 0 0 0 0
0 0 0 0 0 0 2 26 2 939 548 474 188 463 395 406 804 775 571 566 662 619 577 512 818 1092 1331 1356 1286 1176 989 831 787 717 700 752 642 526 467 284 397 142 0 0 0 0 0 0 0
0 0 0 0 0 0 56 83 1016 622 460 129 34 56 64 160 552 420 492 647 718 522 728 816 864 1201 1380 1331 1242 1087 1118 1146 909 827 737 582 435 461 272 208 311 32 0 0 0 0 0 0 0
0 0 0 0 3 23 8 780 636 406 182 121 60 15 0 129 120 477 537 512 612 901 1092 673 888 1148 1292 1283 1197 1145 1052 1074 1023 972 598 410 413 247 170 167 122 0 0 0 0 0 0 0 0
0 0 0 0 0 20 4 735 434 380 153 58 34 21 9 130 7 286 701 617 579 776 993 1055 863 1034 1086 1209 1122 1161 1064 1048 1077 849 690 461 262 133 138 35 9 0 0 0 0 0 0 0 0
0 0 1 9 14 18 168 542 299 227 61 25 15 6 50 354 75 294 492 597 568 946 904 969 829 894 1053 1157 1120 997 1034 1028 902 808 728 418 231 151 27 5 15 1 0 0 0 0 0 0 0
0 1 4 30 53 109 377 22 388 89 57 30 13 77 669 704 440 566 382 311 473 992 1154 1051 1056 985 853 755 716 751 811 763 679 712 598 459 400 321 251 163 26 16 20 0 31 4 0 0 0
0 1 6 32 68 142 412 200 37 30 16 175 319 298 633 905 689 15 345 537 1071 931 906 545 610 601 643 716 627 660 588 494 517 458 301 177 116 102 160 213 142 64 62 93 52 1 0 0 0
0 0 31 71 72 337 275 70 16 2 21 55 226 510 739 1136 1030 339 512 686 1039 577 389 369 344 388 405 502 645 441 489 429 362 209 188 29 68 69 145 96 180 33 10 0 0 0 0 0 0
27 8 25 188 48 100 395 65 26 5 0 140 632 1276 1260 1122 1197 907 911 910 485 323 257 282 307 292 192 66 253 181 62 141 315 322 306 567 485 591 380 203 132 0 0 0 0 0 0 6 13
35 1 3 244 43 81 0 0 13 56 4 70 144 1109 1464 1345 917 821 960 565 88 69 64 113 196 207 65 145 165 72 178 513 688 695 731 855 582 723 609 744 493 397 16 125 24 45 34 1 0
4 0 0 2 149 20 6 20 66 45 42 198 552 1331 1226 1096 1038 986 308 0 0 0 0 40 152 214 148 81 77 272 392 560 657 981 962 889 1044 1120 867 651 387 260 168 195 110 69 0 0 0
0 0 0 36 0 0 15 42 139 46 63 89 1214 1116 1094 972 864 69 0 0 17 24 34 12 78 168 371 438 586 664 693 787 1021 1022 1227 1286 1284 1036 896 545 361 215 83 60 37 10 0 0 0
0 5 0 6 8 16 26 112 143 137 177 591 939 830 486 312 6 0 0 42 118 125 199 132 188 320 573 753 756 652 618 723 1043 1139 847 665 704 767 662 527 184 51 22 18 14 0 1 0 0
0 3 0 4 67 72 79 115 82 194 218 490 470 311 118 0 0 0 0 136 312 357 391 470 540 529 610 325 93 88 108 122 257 444 470 442 553 605 377 92 27 18 19 9 4 3 0 0 0
0 0 0 0 60 53 10 53 38 190 258 255 215 67 0 0 0 0 0 55 428 641 706 649 535 654 418 115 35 17 9 0 41 133 100 23 45 30 28 19 0 0 0 0 0 0 0 0 0
0 0 0 0 36 43 32 0 36 193 306 351 237 143 24 1 0 43 50 54 176 747 917 766 754 606 172 77 21 0 0 0 0 26 33 39 24 0 0 0 0 0 0 0 0 0 0 0 0
0 0 7 30 13 14 0 5 84 231 256 423 380 264 172 148 165 285 312 256 231 688 1049 918 696 333 126 61 37 8 1 0 1 0 0 0 0 0 0 0 0 0 0 0 0 0 0 0 0
0 0 12 10 0 1 4 10 58 197 236 339 472 450 383 408 371 491 566 548 473 911 1089 760 482 154 440 554 20 0 5 0 0 0 0 0 0 0 0 0 0 0 0 0 0 0 0 0 0
0 13 1 0 0 29 13 46 46 242 291 286 373 491 545 522 544 688 903 912 1030 998 886 644 503 550 759 501 106 13 1 0 0 0 0 0 0 0 0 0 0 0 0 0 0 0 0 0 2
25 9 13 56 20 1 93 135 177 166 298 380 409 424 494 575 835 960 1104 1100 808 618 717 719 792 526 242 4 5 7 0 0 0 0 0 0 0 0 0 0 0 0 0 0 0 3 7 0 17
73 79 58 61 92 59 80 73 79 211 264 328 440 559 604 786 1030 1119 1215 1208 1099 1171 949 819 161 5 0 0 0 0 4 2 21 10 0 0 0 0 0 0 0 0 1 7 17 19 36 62 41
30 72 103 91 65 14 103 61 118 284 200 242 397 529 737 899 895 778 746 738 560 482 153 0 0 0 0 0 1 13 18 15 3 0 5 0 5 1 0 0 2 7 15 25 48 75 88 74 62
147 157 155 125 104 213 116 149 90 265 224 232 288 471 696 581 398 91 74 25 9 30 2 0 1 0 0 0 5 7 10 0 0 0 0 0 4 2 5 7 12 18 25 25 32 62 57 83 83
165 199 333 220 168 177 158 110 45 84 92 131 296 427 525 383 68 0 0 0 0 0 0 0 0 2 4 13 6 0 0 0 4 7 3 0 0 0 2 5 10 18 15 14 30 57 93 71 69
197 156 151 38 85 103 145 1 221 127 74 70 287 402 452 280 6 0 0 0 0 0 0 0 7 10 17 12 0 0 0 2 4 4 0 0 0 0 4 12 5 0 1 4 34 68 98 82 92
197 56 154 122 207 22 0 80 188 55 51 36 317 391 381 132 1 0 0 0 0 0 1 8 10 6 0 0 0 0 1 8 4 0 0 0 2 0 0 0 0 0 1 5 21 74 92 103 84
72 93 63 24 0 0 15 0 98 6 0 0 245 403 338 75 0 0 1 0 4 4 18 26 16 3 0 0 3 5 5 4 0 0 0 0 0 0 0 0 0 0 2 10 22 46 61 69 67
111 38 4 14 4 3 0 22 0 0 0 0 99 326 274 71 5 1 5 8 6 14 4 11 1 1 4 6 4 12 7 0 0 0 0 0 0 0 0 0 0 0 3 18 36 32 32 58 46
9 12 18 0 0 0 16 0 0 0 0 0 6 143 143 64 32 14 16 10 4 0 0 4 15 13 7 0 2 0 0 0 0 0 0 0 0 0 0 0 0 3 10 30 16 18 32 45 43

GFSSGP_con_mucape_048.txt.gz
CAPE
0 0 0 0 0 0 0 0 0 411 309 762 772 909 874 799 971 618 477 402 362 174 206 389 856 1156 1217 1209 1248 1203 1112 954 699 862 905 934 756 637 510 392 289 136 0 0 0 0 0 0 0
0 0 0 0 0 0 0 345 654 837 677 479 332 416 559 880 873 667 668 582 377 239 171 302 883 1239 1332 1227 1179 1143 1031 903 858 837 833 642 538 448 203 282 178 73 0 0 0 0 0 0 0
0 0 0 0 0 0 0 949 454 827 588 315 128 107 284 485 495 663 764 565 518 371 289 602 914 1142 1259 1162 1133 1142 1134 949 899 843 584 436 306 137 134 262 140 46 0 0 0 0 0 0 0
0 0 0 0 0 0 110 333 849 606 300 147 154 63 76 203 362 622 543 525 540 594 527 584 871 1083 1172 1154 1183 1150 998 933 850 613 528 346 138 138 91 226 175 17 0 0 0 0 0 0 0
0 0 0 0 0 0 0 793 606 434 222 197 146 76 13 54 473 493 347 273 567 356 345 715 764 927 1167 1298 1231 1007 967 864 670 616 571 330 120 68 130 209 169 57 0 0 0 0 0 0 1
0 0 0 0 0 0 645 686 308 201 126 42 11 4 0 0 136 309 122 205 368 144 455 527 734 840 937 1034 954 847 825 678 663 634 491 344 253 179 175 169 140 86 34 0 0 0 0 0 0
0 0 0 0 0 15 579 408 176 305 138 34 26 73 306 205 8 439 294 307 197 355 548 744 833 798 687 626 608 599 530 478 570 551 411 348 292 233 212 217 198 133 84 20 0 0 0 0 0
0 0 0 0 7 382 275 146 392 74 48 24 47 187 482 627 599 80 127 245 207 349 380 787 806 802 579 527 514 407 334 368 359 254 179 93 82 137 171 170 174 122 71 28 0 0 0 0 0
0 0 0 27 431 314 97 4 0 71 82 72 109 419 642 563 279 5 47 122 200 272 597 562 466 528 531 553 461 369 394 357 247 149 98 19 17 45 102 112 191 78 0 0 0 0 0 0 3
0 0 3 181 295 45 17 22 0 35 79 22 1037 1339 1317 805 74 124 36 131 201 190 208 284 374 381 431 270 323 220 135 83 83 76 187 315 492 261 155 93 161 48 6 3 0 0 0 10 0
0 1 2 277 69 0 1 0 99 7 9 6 1035 1230 1261 1170 481 654 282 150 245 92 112 210 339 343 225 55 242 46 138 425 616 655 671 731 746 463 366 350 201 151 11 25 6 13 13 8 0
0 7 2 368 57 12 12 35 1 10 35 1 681 1248 945 808 748 569 426 44 27 32 103 187 283 459 326 112 125 94 393 680 614 876 836 834 803 808 770 603 473 345 25 94 35 33 8 0 0
3 0 0 1 180 42 86 50 0 51 73 259 710 725 792 707 889 398 57 0 0 7 86 138 251 339 335 655 671 516 641 666 650 695 759 699 950 753 728 441 376 93 15 0 1 0 0 0 0
0 5 2 5 9 4 15 2 36 109 946 991 573 417 370 652 380 29 0 42 19 21 48 94 193 500 772 565 502 297 301 443 658 630 592 660 697 571 476 236 121 17 16 2 0 0 0 0 0
25 0 0 0 20 40 125 17 67 119 481 513 371 370 385 79 0 0 20 78 92 126 109 213 364 670 420 266 164 112 88 38 114 215 211 296 264 260 175 133 79 12 3 0 0 0 0 0 0
3 0 0 1 24 16 2 85 118 136 183 228 171 108 15 0 0 0 76 205 206 239 259 366 539 437 199 54 5 1 0 0 0 2 0 24 7 4 3 7 0 0 0 0 0 0 0 0 0
0 0 0 3 0 0 4 6 50 136 142 133 71 9 0 0 0 0 43 318 463 487 503 551 604 288 115 22 14 16 9 0 0 0 0 3 4 6 1 0 0 0 0 0 0 0 0 0 0
0 0 0 0 0 3 33 1 30 121 179 129 63 0 0 0 0 0 6 86 684 863 705 748 500 314 75 32 29 16 4 0 0 0 0 0 1 0 0 0 0 0 0 0 0 0 0 0 0
0 0 0 1 0 0 1 11 0 54 139 251 175 76 28 3 119 289 280 251 504 1095 907 612 444 241 59 262 77 2 0 0 0 0 0 0 0 0 0 0 0 0 0 0 0 0 0 0 0
0 11 25 0 0 0 3 1 5 14 76 264 309 228 181 206 319 493 585 641 742 1065 814 617 479 242 290 498 18 1 0 0 0 0 0 0 0 0 0 0 0 0 0 0 0 0 0 0 0
9 5 40 20 1 0 13 0 3 25 25 88 237 371 362 397 465 585 751 892 1353 1092 874 585 568 353 565 236 11 0 0 0 0 0 0 0 0 0 0 0 0 0 0 0 0 0 0 0 0
73 16 37 30 18 9 19 23 66 7 80 107 161 264 374 447 589 789 957 997 972 748 642 603 636 650 280 3 0 0 0 0 0 0 1 0 0 0 0 0 0 0 0 0 0 0 0 0 0
25 28 58 56 62 26 0 0 42 9 70 121 349 396 468 592 689 961 1040 946 708 761 810 843 665 48 0 0 0 0 47 19 9 9 0 5 0 0 0 0 0 0 0 0 3 4 1 5 9
67 86 81 71 128 111 11 44 11 1 2 72 283 409 559 660 985 822 1001 961 903 1119 787 172 0 0 0 0 12 27 49 2 0 0 0 0 0 0 0 2 0 0 0 0 0 0 0 5 15
22 50 198 76 122 247 52 67 89 15 177 126 269 440 646 846 751 531 593 435 274 96 53 3 0 0 0 0 5 10 0 0 0 0 0 2 0 0 0 0 0 0 0 0 0 0 0 16 39
76 75 139 118 298 295 112 79 251 127 47 246 349 411 719 570 328 102 68 5 5 11 0 0 0 0 0 14 6 0 0 0 1 2 10 6 0 0 0 0 0 0 0 0 0 0 0 15 49
25 182 112 74 342 532 1 0 205 69 55 96 257 384 566 452 139 0 0 0 0 0 0 0 0 1 3 5 1 0 0 0 6 12 7 0 0 0 0 0 0 0 0 0 0 1 11 33 7
0 8 153 78 25 1 2 16 220 20 9 15 279 455 588 435 184 2 0 0 1 0 0 0 12 6 2 0 0 0 1 3 12 5 0 0 0 0 0 0 0 0 0 0 0 4 11 0 8
72 51 0 0 208 226 230 40 1 0 0 0 31 434 555 437 189 17 0 1 2 8 12 8 8 6 7 0 4 11 7 8 7 0 0 0 0 0 0 0 0 0 0 0 2 5 1 0 0
1 13 36 574 32 158 364 39 0 0 0 0 0 265 449 425 160 14 1 6 7 19 5 6 7 5 6 4 19 17 12 9 6 0 0 0 0 0 0 0 0 0 0 2 2 0 0 4 6

GFSSGP_con_mucape_051.txt.gz
CAPE
0 0 0 0 0 0 0 0 78 838 780 713 982 924 844 892 806 467 548 401 188 425 814 1039 1036 1129 1173 1171 1197 1121 1034 910 812 965 747 613 379 288 241 117 60 0 0 0 0 0 0 0 0
0 0 0 0 0 0 0 268 762 560 765 661 566 813 845 1033 919 718 637 484 279 397 671 899 854 1027 1115 1154 1123 1009 945 873 914 654 515 411 208 196 45 13 35 0 0 0 0 0 0 0 0
0 0 0 0 0 0 0 134 922 768 616 417 380 374 585 820 915 817 653 628 438 192 541 857 886 1011 1011 1014 1098 1009 943 800 581 471 386 260 145 4 0 116 87 3 0 0 0 0 0 0 0
0 0 0 0 0 0 0 492 854 532 335 300 317 163 387 611 836 802 630 444 343 244 499 582 706 833 987 1164 1076 930 825 546 415 393 285 147 28 7 18 177 130 18 2 0 0 0 0 0 0
0 0 0 0 0 0 633 781 705 362 245 204 200 156 204 554 845 764 619 417 231 262 298 298 626 835 1066 1140 976 822 591 458 450 309 231 209 26 18 35 179 150 48 1 0 0 0 0 0 0
0 0 0 0 0 715 830 680 395 193 216 159 93 90 73 343 684 683 497 276 41 147 223 325 541 655 820 861 712 510 424 412 372 270 253 218 194 170 151 169 148 110 39 13 0 0 0 0 0
0 0 0 0 0 482 458 414 149 134 79 88 84 333 73 178 394 441 222 165 8 180 211 348 493 582 541 457 398 313 318 345 313 219 153 134 125 143 180 197 210 145 151 98 0 0 0 0 0
0 0 0 2 22 341 443 467 207 47 36 38 16 418 485 155 625 384 69 117 18 158 169 370 403 517 447 382 258 227 224 194 150 93 81 74 60 66 111 108 142 109 44 0 0 0 0 0 0
0 0 0 8 500 303 193 106 132 4 47 35 50 145 586 422 504 286 85 64 73 149 168 272 467 429 373 275 227 204 223 137 86 51 35 4 5 3 29 2 65 33 5 0 0 0 0 0 0
0 0 0 226 258 280 137 28 0 0 11 148 620 288 545 483 240 46 29 13 44 204 232 275 463 365 308 266 105 89 104 13 3 54 55 65 145 68 34 44 15 10 1 0 0 0 2 0 0
0 0 25 231 182 39 10 5 0 0 3 13 406 464 317 264 15 43 20 0 77 145 193 357 343 286 155 153 6 2 20 0 9 210 258 222 255 25 145 154 44 43 0 0 3 0 0 0 0
0 0 25 108 83 52 14 5 12 3 0 1 480 724 270 170 100 46 14 11 157 166 234 249 202 131 8 87 22 108 166 227 164 367 400 433 407 319 183 142 116 21 4 2 8 4 0 0 0
0 6 9 221 109 130 31 0 0 4 1 419 1200 1033 485 229 152 134 256 152 141 139 103 62 25 2 58 132 229 269 362 363 391 411 323 392 446 212 136 90 43 39 19 18 0 0 0 0 0
45 46 46 146 20 2 2 0 22 101 61 178 1002 825 626 350 284 244 126 69 45 26 28 22 0 47 268 190 191 341 358 353 347 347 247 311 318 240 169 99 62 38 22 3 0 0 0 0 0
4 4 7 23 73 17 0 0 63 149 524 697 729 761 531 55 60 151 4 2 3 0 2 7 180 270 232 190 211 207 220 195 129 103 197 195 245 126 101 95 67 40 2 0 0 0 0 0 0
0 0 0 10 53 3 0 0 44 154 483 593 396 409 251 38 8 0 5 11 4 0 14 32 356 428 258 159 170 174 93 5 3 5 25 85 44 20 28 26 0 0 0 0 0 0 0 0 0
0 0 0 1 10 18 13 10 44 207 314 198 147 127 66 0 0 11 40 96 147 141 105 410 466 509 404 234 69 0 0 0 0 0 0 0 0 0 0 0 0 0 0 0 0 0 0 0 0
0 0 2 8 8 17 12 13 66 113 149 99 46 10 0 0 0 54 89 182 267 246 347 481 448 431 174 64 38 45 51 36 15 0 0 0 0 0 0 0 0 0 0 0 0 0 0 0 0
0 0 0 0 1 5 28 11 87 90 76 39 4 0 0 0 0 0 206 278 307 372 401 427 429 323 19 43 47 52 29 21 4 0 0 0 0 0 0 0 0 0 0 0 0 0 0 0 0
0 0 6 3 7 5 0 7 72 104 100 69 24 0 0 0 2 15 62 455 430 545 533 479 390 268 141 40 79 16 0 0 0 0 0 0 0 0 0 0 0 0 0 0 0 0 0 0 0
7 8 0 2 3 0 5 1 3 25 54 150 146 104 33 49 142 245 304 671 716 687 692 565 444 314 88 185 52 0 0 0 0 0 0 0 0 0 0 0 0 0 0 0 0 0 0 0 0
10 0 13 1 0 0 14 7 14 0 6 38 159 172 133 61 267 320 440 735 842 797 817 578 431 355 106 347 18 0 0 0 0 0 0 0 0 0 0 0 0 0 0 0 0 0 0 0 0
13 12 18 27 9 0 0 0 0 0 2 11 21 232 222 133 280 418 602 927 916 889 784 635 507 232 276 379 9 0 0 0 0 0 0 0 0 2 0 0 0 0 0 0 0 0 0 0 0
9 0 30 29 11 5 9 2 6 2 0 0 100 196 276 265 358 557 843 888 844 806 660 427 443 439 242 2 0 0 0 0 0 0 2 2 3 0 0 0 0 0 0 0 0 0 0 0 0
20 22 14 0 0 19 26 0 16 19 11 1 5 220 331 510 741 885 936 928 605 447 471 473 650 397 1 0 0 0 0 0 1 0 3 13 9 8 6 0 0 0 0 0 0 0 0 0 0
20 45 9 0 0 16 8 28 7 53 50 7 31 70 354 778 762 883 881 692 671 654 557 629 77 0 0 0 0 0 0 1 6 17 28 19 15 0 0 0 0 0 0 0 0 0 0 0 0
24 41 67 17 37 71 1 49 71 46 126 143 128 246 632 715 725 707 623 711 636 331 145 0 2 0 0 0 0 0 12 18 25 12 11 13 12 0 0 0 0 0 0 0 0 0 0 0 0
24 2 18 8 0 0 0 2 39 14 23 247 302 543 599 611 570 415 254 215 143 97 0 0 0 2 2 0 2 7 9 20 7 5 11 11 5 1 0 0 0 0 0 0 0 0 0 1 4
10 9 7 0 0 6 20 0 36 3 5 1 247 468 507 447 369 227 41 0 0 0 0 0 0 2 25 30 15 11 25 32 8 13 0 6 0 0 0 0 0 0 0 0 0 0 0 0 0
32 44 44 3 0 0 0 0 0 0 0 0 0 336 465 450 391 234 45 0 0 0 6 17 19 12 16 30 54 58 21 28 4 13 7 0 2 0 0 0 0 0 0 0 0 0 0 0 0

GFSSGP_con_mucape_054.txt.gz
CAPE
1 0 0 0 0 0 0 0 0 10 718 1010 1055 1065 986 983 692 359 493 400 558 861 949 945 968 1020 1075 1075 1147 1106 1046 930 519 411 408 329 213 122 57 25 32 14 0 0 0 0 0 0 0
0 0 0 0 0 0 0 80 789 687 824 748 703 1015 970 1182 887 713 584 379 730 1300 934 822 858 960 1057 1104 1126 1028 993 751 670 356 229 235 96 63 0 1 50 54 0 0 0 0 0 0 0
0 0 0 0 0 0 0 63 863 683 677 576 483 599 740 1076 1002 920 758 456 813 993 879 825 730 804 1073 1031 908 1014 979 711 552 346 259 190 66 8 4 52 103 68 0 0 0 0 0 0 0
0 0 0 0 0 0 0 168 778 687 554 459 366 436 826 885 1027 1049 1140 665 680 849 795 736 697 807 995 957 989 924 651 504 385 280 231 151 40 52 39 157 134 25 0 0 0 0 0 0 0
0 0 0 13 10 40 459 512 678 519 337 359 328 169 579 1017 1039 913 803 641 562 661 604 483 672 783 850 939 997 689 524 434 305 270 228 193 84 57 78 189 135 75 0 0 0 0 0 0 0
0 0 0 3 0 486 467 394 316 301 284 265 200 275 409 1115 939 737 642 525 303 131 105 200 320 451 609 870 633 452 448 337 272 258 226 238 205 137 141 145 126 106 31 12 0 0 0 0 0
0 0 0 0 0 18 333 276 230 156 122 66 58 140 246 662 789 818 387 214 65 94 118 125 195 297 522 493 366 347 312 230 227 213 194 166 150 171 181 163 143 107 76 8 0 0 0 0 0
0 0 0 0 8 192 395 325 142 96 152 135 365 366 0 539 647 503 301 38 7 46 46 174 316 356 397 332 273 251 215 146 142 128 97 80 82 96 118 87 113 103 25 0 0 0 0 0 0
0 0 0 0 192 197 340 75 45 19 30 97 118 522 289 586 360 296 222 147 55 138 41 174 149 302 371 245 232 218 167 112 88 75 45 1 0 0 12 1 36 20 0 0 0 0 0 0 0
0 1 0 0 223 236 86 3 13 12 17 314 812 534 627 293 80 38 57 71 34 19 168 184 217 407 280 224 152 112 65 22 5 0 8 41 26 6 1 0 0 0 0 0 0 0 0 0 0
0 2 4 71 164 150 72 12 0 13 1 276 582 261 329 189 93 48 30 79 48 86 117 148 330 297 249 116 61 54 8 58 93 58 101 109 54 9 97 15 1 0 1 0 0 0 0 0 0
0 0 1 35 34 33 35 0 0 0 2 357 511 253 133 133 68 28 1 19 44 118 140 278 285 251 167 23 4 2 0 141 231 230 176 236 108 104 113 37 22 0 0 0 0 0 0 1 0
27 2 28 48 75 84 0 0 0 0 6 274 54 192 111 70 41 10 17 31 46 122 220 357 291 163 49 11 74 80 61 150 309 370 364 309 322 258 70 3 3 0 0 0 1 9 1 0 0
54 286 132 171 141 63 9 0 3 73 49 689 366 175 105 78 33 31 16 17 86 206 297 358 199 23 72 128 133 159 241 335 394 358 324 247 151 46 8 2 7 9 1 4 4 0 0 0 0
41 123 126 46 31 18 9 21 71 241 69 523 646 253 210 158 83 67 72 137 229 238 169 161 180 134 126 151 235 305 335 339 275 196 111 153 106 52 40 9 5 11 19 5 0 0 0 0 0
15 0 2 77 12 10 1 21 76 533 377 585 697 609 453 324 70 175 192 164 188 159 166 162 180 227 225 309 334 379 325 175 40 5 13 55 75 23 14 10 0 0 0 0 0 0 0 0 0
0 0 0 6 11 0 0 41 83 253 497 565 670 612 545 368 185 191 171 124 151 103 89 277 268 246 216 187 168 169 137 57 0 0 0 0 0 0 0 0 0 0 0 0 0 0 0 0 0
0 0 0 0 53 38 48 50 139 290 393 384 547 507 50 23 50 98 47 72 118 149 83 269 346 339 267 162 82 68 94 6 1 0 0 0 0 0 0 0 0 0 0 0 0 0 0 0 0
0 0 0 0 0 18 16 1 75 350 308 257 460 196 29 0 32 15 76 180 238 290 249 330 407 437 384 266 133 46 46 21 10 4 0 0 0 0 0 0 0 0 0 0 0 0 0 0 0
4 1 0 0 0 12 1 14 16 253 224 120 78 17 0 0 0 35 133 210 303 330 312 362 449 487 439 221 21 42 71 22 22 6 0 0 0 0 0 0 0 0 0 0 0 0 0 0 0
0 0 0 0 0 0 0 0 30 142 170 139 70 60 41 35 24 90 142 251 320 366 386 452 419 423 347 96 35 66 46 1 0 0 0 0 0 0 0 0 0 0 0 0 0 0 0 0 0
0 0 0 0 0 0 7 0 0 57 123 93 53 56 52 47 0 96 245 320 338 369 458 556 582 466 320 175 95 107 0 0 0 0 0 0 0 0 0 0 0 0 0 0 0 0 0 0 0
6 0 0 0 4 1 0 0 0 0 0 8 78 115 120 126 84 146 373 354 347 444 566 614 573 504 339 210 138 11 0 0 0 0 0 0 0 0 0 0 0 0 0 0 0 0 0 0 0
5 9 6 10 6 1 5 0 0 0 0 0 0 62 152 159 132 177 465 575 611 660 656 699 667 554 343 174 391 18 0 0 0 0 0 0 0 0 1 1 0 1 0 0 0 0 0 0 0
9 32 7 7 0 0 3 0 1 0 0 0 4 42 82 148 153 359 660 710 785 818 854 778 634 431 165 350 484 6 0 0 0 0 0 0 2 9 9 4 2 0 0 2 1 0 0 0 0
3 27 5 0 0 0 2 13 12 26 19 2 2 1 133 257 302 537 666 836 899 952 870 621 459 330 365 360 33 0 0 1 0 4 9 12 11 0 0 2 0 0 0 0 0 0 0 0 0
0 12 21 25 5 18 0 19 13 59 118 128 51 0 124 364 540 691 731 818 961 784 513 385 367 568 236 0 1 0 12 17 21 24 0 16 3 1 1 5 1 1 0 0 0 0 0 0 0
11 0 2 34 0 0 0 0 6 30 98 167 100 71 295 730 717 818 934 959 715 582 369 514 538 627 1 0 4 23 44 26 43 40 36 42 8 19 5 0 2 0 0 0 0 0 0 0 0
7 0 0 0 0 0 1 0 36 28 57 250 189 127 470 673 679 799 872 814 739 541 310 145 0 0 4 12 28 46 51 54 52 29 65 59 1 3 0 8 0 0 0 0 0 0 0 0 0
21 5 4 30 0 0 0 0 0 10 13 110 245 340 569 604 519 428 484 644 647 390 206 1 1 3 5 6 13 32 62 83 69 73 46 0 10 16 0 0 0 0 0 0 0 0 0 0 0

GFSSGP_con_mucape_057.txt.gz
CAPE
1 0 0 0 0 0 0 0 189 212 515 1152 1073 1078 1001 943 736 345 563 392 898 1034 1107 1055 971 1039 988 999 979 1031 972 542 267 182 224 208 116 103 121 120 106 36 0 0 0 0 0 39 295
0 0 0 0 0 0 0 0 676 719 1038 853 922 1023 1102 1117 1086 865 613 664 963 1168 1038 981 954 969 1008 975 1009 1040 942 500 301 199 157 118 69 48 53 79 122 48 0 0 0 0 0 0 64
0 0 0 1 0 0 0 0 163 753 884 511 600 831 895 838 1048 801 680 723 1095 1076 896 995 837 881 1016 1059 1020 1041 923 610 340 250 184 74 68 43 74 188 119 75 0 0 0 0 0 0 0
0 0 0 1 0 0 0 214 454 554 591 443 313 612 836 1204 1011 1017 755 946 1271 1059 993 835 659 831 978 1130 1113 944 744 454 325 251 223 128 61 80 121 201 154 91 0 0 0 0 0 0 0
0 0 0 7 0 3 491 587 709 584 400 324 247 342 627 989 1108 1102 892 897 996 1029 897 494 454 700 989 1112 1045 778 596 413 349 287 243 257 211 181 245 239 193 115 33 0 0 0 0 0 0
0 0 0 12 0 206 545 515 578 472 338 107 365 400 641 823 1085 947 842 793 941 805 506 284 398 358 527 678 679 529 452 400 348 284 278 310 286 267 256 258 232 204 113 52 0 0 3 0 0
0 0 0 0 0 0 385 395 401 342 195 60 22 31 582 760 747 763 768 583 554 401 202 84 115 128 206 370 494 431 375 365 338 312 281 252 201 203 229 240 237 191 143 97 19 0 1 0 0
0 0 0 0 0 2 583 545 302 241 156 108 418 12 199 606 696 626 430 266 269 108 47 46 63 165 265 371 393 335 300 283 255 239 202 145 147 178 196 199 200 175 121 31 9 0 0 6 0
0 0 0 0 0 96 601 250 102 140 188 554 554 337 247 475 477 274 168 154 38 26 18 29 156 221 225 331 325 259 235 188 149 123 76 27 20 5 0 45 75 91 44 61 41 1 0 0 0
0 0 0 0 26 322 511 225 38 62 181 535 722 494 361 573 376 188 123 51 38 43 21 35 123 110 263 260 256 143 106 60 33 19 4 0 0 0 1 21 43 29 12 9 0 0 0 0 0
0 0 0 54 265 296 305 78 6 24 57 362 531 557 486 205 234 177 107 58 54 29 110 183 175 172 248 205 155 90 41 18 3 18 15 12 39 64 15 0 0 0 0 0 0 0 0 0 0
0 5 0 47 241 252 140 39 8 7 32 397 432 504 167 88 65 103 76 24 77 42 72 121 248 249 208 115 75 39 3 2 26 87 121 89 25 132 36 8 2 0 0 0 0 0 0 0 0
35 30 0 78 119 148 44 4 7 201 613 466 359 366 140 110 71 60 71 51 83 86 72 94 226 273 143 0 0 0 34 151 201 179 200 272 66 114 103 34 13 1 0 1 0 3 4 2 0
133 142 132 146 186 115 13 3 19 1 388 469 199 287 186 119 46 4 10 80 106 115 181 256 315 243 61 1 0 4 54 265 346 407 334 354 318 232 40 14 1 2 17 9 15 17 7 0 0
256 222 236 198 165 78 56 12 141 98 543 515 178 219 185 108 48 38 34 29 61 160 275 334 360 220 53 19 37 59 240 390 405 377 371 333 236 69 5 26 8 26 29 27 22 1 0 0 0
184 131 81 67 68 41 32 17 434 208 747 409 299 244 179 133 74 59 31 1 26 208 275 347 163 71 83 61 156 206 396 427 447 347 171 211 121 74 91 32 23 28 28 9 0 0 0 0 0
9 6 0 7 37 17 11 63 409 231 621 721 436 309 228 193 142 50 134 9 95 307 390 407 206 76 149 163 247 388 424 384 376 194 25 47 56 39 15 21 11 2 0 0 0 0 0 0 0
6 1 0 0 3 27 44 56 104 572 558 771 631 473 426 284 261 74 218 139 314 368 339 262 276 137 248 285 319 379 439 360 194 24 0 0 1 0 0 0 0 0 0 0 0 0 0 0 0
11 0 0 0 0 0 15 74 112 332 492 568 700 619 569 488 361 141 257 272 291 311 271 202 156 236 273 313 358 340 294 175 63 0 0 0 0 0 0 0 0 0 0 0 0 0 0 0 0
0 0 0 0 1 0 0 0 13 142 366 461 383 703 602 497 366 196 230 312 213 228 168 142 187 256 269 279 215 126 23 19 26 11 24 12 0 0 0 0 0 0 0 0 0 0 0 0 0
0 0 0 0 0 0 0 0 0 0 186 341 319 488 577 156 150 109 239 140 113 138 156 143 236 295 313 342 284 194 55 76 77 28 24 0 0 0 0 0 0 0 0 0 0 0 0 0 0
0 0 0 0 0 0 0 0 0 0 123 226 231 365 489 42 9 17 87 60 89 89 207 229 189 332 363 401 431 140 124 112 49 27 0 0 0 0 0 0 0 0 0 0 0 0 0 0 0
0 0 0 0 0 0 0 0 0 0 91 133 85 138 106 24 64 68 56 62 73 113 169 303 225 285 414 358 268 183 160 90 28 0 0 0 0 0 0 0 0 0 0 0 0 0 0 0 0
0 0 0 0 0 0 0 0 0 0 0 14 85 48 43 44 35 83 41 53 91 82 163 262 289 449 442 417 276 223 131 4 1 0 0 0 0 0 0 6 4 4 4 4 0 0 0 0 0
0 0 0 0 0 0 0 0 0 0 0 0 0 29 33 32 45 98 135 160 157 163 201 242 389 483 568 513 347 154 39 1 0 0 0 0 0 2 6 15 7 0 0 0 1 1 0 0 0
0 0 0 0 0 0 0 0 0 21 33 4 0 0 8 26 18 93 280 375 292 306 328 287 483 628 639 505 375 187 340 12 0 2 5 0 5 7 6 3 1 1 0 1 0 0 0 0 0
0 0 0 0 0 0 0 0 0 29 50 62 16 5 102 78 83 176 384 505 518 484 495 512 523 520 450 434 228 409 439 24 1 7 29 35 2 7 49 3 3 0 0 0 0 0 0 0 0
4 1 0 0 0 0 0 0 0 11 52 29 0 10 87 230 214 252 427 555 652 722 791 731 621 518 437 230 341 352 129 18 8 8 14 33 15 2 4 2 0 0 0 0 0 0 0 0 0
29 19 4 0 0 0 0 0 0 2 19 0 0 0 40 237 324 441 539 570 670 800 892 751 585 435 361 413 30 11 7 1 21 50 51 25 12 1 6 12 15 6 13 0 0 0 0 0 0
7 0 10 0 0 0 0 0 0 0 5 0 69 67 53 489 653 726 754 770 805 973 751 440 401 398 428 247 32 13 20 38 54 66 63 29 13 12 15 1 5 2 0 0 0 0 0 0 0

GFSSGP_con_mucape_060.txt.gz
CAPE
0 0 0 0 0 0 0 0 0 173 38 1262 1275 1219 900 975 643 367 727 702 1128 1175 999 986 952 1051 1017 1017 993 903 790 531 219 124 162 137 146 205 207 108 47 28 1 0 120 322 373 300 115
0 0 0 0 0 0 0 0 0 374 723 731 930 948 1034 1220 1008 810 776 1107 1230 1179 1079 981 1014 1063 1098 1079 1036 860 599 391 287 211 121 147 194 225 165 109 60 56 44 0 40 125 328 350 541
0 0 0 0 0 0 0 0 72 196 932 634 778 755 703 753 824 694 565 1153 1200 1204 1070 993 991 1001 1115 1132 1010 825 547 400 279 201 129 135 234 221 110 181 77 81 41 0 0 0 20 116 126
0 0 0 0 0 0 0 2 572 401 586 494 555 577 616 848 1214 862 914 1260 1221 1158 980 920 881 906 1115 1281 1122 820 513 347 286 242 237 174 256 194 226 225 143 132 68 0 0 0 0 1 0
0 0 0 0 0 0 158 522 722 686 474 374 285 351 576 802 1105 954 907 1135 1165 1039 822 625 657 795 1238 1302 1054 700 525 389 331 307 275 289 331 294 316 262 204 131 131 19 0 3 22 8 0
0 0 0 0 1 20 632 582 666 537 433 453 526 446 530 810 1063 1082 911 887 992 1004 546 416 497 491 511 428 696 556 507 450 383 361 381 388 362 307 298 274 226 181 113 65 44 4 0 0 0
0 0 0 2 8 7 232 590 561 512 372 164 189 369 637 977 1091 1096 1025 895 850 575 432 246 250 269 98 263 479 436 444 395 365 387 390 374 326 271 257 242 225 203 155 120 91 43 0 0 0
0 0 0 0 0 13 494 696 378 440 286 265 265 207 807 828 970 942 552 634 595 386 309 219 109 48 86 196 354 321 364 347 343 360 268 202 207 213 193 224 269 214 148 110 14 3 0 0 0
0 0 0 0 0 14 580 449 311 309 408 612 589 282 492 649 802 655 511 416 388 233 252 59 46 70 39 56 311 301 354 303 261 226 162 65 50 33 0 125 160 161 128 8 0 0 0 0 0
0 0 0 0 0 212 532 408 210 154 488 518 730 679 515 455 391 622 367 180 148 25 54 8 10 43 100 237 252 189 184 109 89 56 15 12 1 0 5 42 92 86 0 0 0 0 0 0 0
0 0 0 0 41 273 417 360 68 121 155 463 552 920 517 555 282 216 170 176 100 7 20 1 32 62 217 239 185 101 53 48 35 16 1 0 10 0 0 0 0 0 0 0 0 0 0 0 0
1 38 26 19 259 286 304 79 43 56 55 393 466 458 398 267 158 135 121 48 41 2 3 4 52 153 256 172 131 62 12 12 0 0 0 10 37 19 1 0 0 0 0 0 0 0 0 0 0
67 134 26 112 239 242 120 25 207 653 603 610 569 364 251 188 406 155 46 38 28 18 40 23 175 224 243 111 69 19 3 0 29 40 45 93 120 128 44 30 21 2 0 0 0 0 4 2 0
147 144 111 112 186 148 49 23 71 562 620 615 629 322 181 123 134 123 79 41 62 55 70 73 198 250 234 44 0 0 0 0 56 188 201 235 40 130 107 45 35 0 9 17 6 18 5 0 0
193 228 239 248 218 89 58 48 50 399 594 419 562 296 212 151 139 149 56 50 65 76 128 146 204 291 187 0 0 0 7 171 288 371 371 308 310 243 87 69 33 24 21 39 27 17 0 0 0
199 101 73 139 93 59 57 42 347 352 643 429 293 575 254 195 49 41 45 35 49 64 146 194 284 309 97 6 0 6 97 288 449 425 404 348 258 188 71 75 49 26 24 38 9 0 0 0 0
50 17 18 21 98 27 26 29 466 504 539 417 261 310 265 196 73 32 1 13 79 128 186 268 347 352 67 0 0 35 200 369 415 319 264 193 176 188 121 90 40 51 28 0 0 0 0 0 0
4 0 0 1 10 36 29 23 108 808 700 506 392 303 311 230 64 80 54 11 7 126 259 327 391 158 12 0 57 142 292 401 331 256 225 109 145 90 68 58 30 0 0 0 0 0 0 0 0
14 7 0 3 6 13 17 23 41 211 745 719 515 417 325 262 185 116 63 137 35 100 289 387 431 165 25 46 115 234 341 332 345 301 96 28 45 43 4 0 0 0 0 0 0 0 0 0 0
0 0 3 0 0 0 3 0 22 105 414 704 670 514 418 355 304 245 217 219 134 166 380 388 336 297 107 133 194 247 335 379 336 203 77 34 48 28 0 0 0 0 0 0 0 0 0 0 0
0 0 0 0 0 0 0 0 0 3 296 532 528 561 495 512 452 390 306 180 236 268 401 381 334 265 162 188 258 319 310 226 155 65 76 65 68 1 0 0 0 0 0 0 0 0 0 0 0
0 0 0 0 0 0 0 0 0 0 1 100 351 449 522 563 522 369 321 174 277 282 282 327 317 206 97 185 284 303 258 163 63 51 43 58 8 0 0 0 0 0 0 0 0 0 0 0 0
0 0 0 0 0 0 0 0 0 0 0 1 131 348 439 442 550 300 251 191 123 310 226 225 286 152 117 204 242 277 287 202 56 35 47 33 0 0 0 0 0 0 0 0 4 0 0 0 0
0 0 0 0 0 0 0 0 0 0 0 0 2 237 335 318 453 497 55 75 62 201 122 115 190 165 115 188 231 303 281 60 59 66 33 2 0 0 0 0 0 1 1 3 1 0 0 0 0
0 0 0 0 0 0 0 0 0 0 0 0 0 76 238 239 311 531 44 36 47 43 76 50 55 73 139 156 247 326 177 114 80 12 0 1 0 0 0 0 2 5 11 5 0 5 0 0 0
0 0 0 0 0 0 0 0 0 0 0 0 0 0 3 155 195 247 63 39 66 64 154 39 46 42 148 98 211 293 256 210 65 0 5 6 7 0 0 6 0 5 25 10 6 0 0 1 0
0 0 0 0 0 0 0 0 0 0 0 0 0 0 1 0 12 96 121 83 103 210 179 61 124 113 196 242 286 309 360 176 122 1 4 13 5 2 10 4 7 0 0 14 6 3 0 0 0
3 0 0 5 0 0 0 0 0 0 12 0 0 0 3 15 52 57 73 153 148 179 146 141 220 266 387 397 436 456 351 238 457 154 13 29 30 24 54 22 14 17 6 1 2 0 0 0 0
0 1 0 0 1 0 0 0 0 0 0 0 0 0 0 25 52 71 133 237 303 325 351 347 391 543 594 583 450 369 322 338 400 233 58 27 14 39 25 17 3 0 1 0 0 0 0 0 0
0 0 0 0 0 0 0 0 0 0 0 0 0 1 9 19 122 224 370 365 353 442 510 589 645 746 649 574 447 278 375 345 202 107 42 22 39 4 1 18 3 22 0 0 0 0 0 0 0

GFSSGP_con_mucape_066.txt.gz
CAPE
0 0 0 0 0 0 0 1 0 0 550 334 218 427 963 1522 1312 1088 1242 960 1272 1187 633 1029 981 1143 1152 1195 1187 1087 989 724 373 206 175 180 193 204 182 235 265 341 222 149 293 452 334 102 35
0 0 0 0 0 7 27 0 0 180 378 1307 1255 930 480 848 1243 1160 1093 1187 1418 1115 586 626 939 1058 1121 1126 1059 933 772 422 244 247 255 228 218 211 283 371 655 853 791 301 310 543 210 31 100
0 0 0 0 0 2 23 0 8 530 1027 1330 1277 1195 795 1053 1139 1066 1316 1498 1363 1036 499 754 969 1071 1148 1089 918 766 482 247 238 311 318 220 238 280 322 476 720 1013 1032 725 563 495 61 121 210
0 0 0 0 0 0 7 10 265 1035 1139 1201 1309 1125 1250 1395 1592 1349 1243 1687 1349 1337 606 708 803 962 1105 977 841 598 337 229 255 324 280 265 282 298 259 289 397 802 1073 950 600 172 69 180 144
0 0 0 0 0 1 53 388 855 1134 1118 1073 929 1147 1328 1327 1784 1466 1190 1243 1220 988 983 1036 783 886 1037 1018 772 440 320 272 295 285 243 305 291 270 235 244 321 366 697 475 124 42 82 120 72
0 0 1 16 0 0 19 707 954 1120 1087 1062 1241 1255 1279 1444 1622 1639 1422 1042 767 325 865 1227 653 825 846 729 489 295 231 264 308 254 263 337 312 316 295 263 233 284 281 180 107 53 29 18 0
0 0 3 0 13 16 128 1033 992 1078 944 960 1079 1091 1425 1406 1394 1606 1374 1162 942 875 875 445 467 524 387 234 218 168 218 266 313 290 268 240 217 225 239 225 225 181 164 150 103 66 13 0 0
0 0 0 0 9 23 483 1053 905 861 756 930 928 1066 1290 1237 1158 1315 1060 821 743 652 381 246 190 166 3 0 214 288 247 265 260 194 145 114 143 209 226 235 278 251 155 44 0 0 0 0 0
0 1 16 0 1 6 549 815 873 718 1095 1120 1163 1077 1306 1158 1387 1181 947 758 597 411 315 240 154 3 5 0 151 314 311 258 253 202 104 30 15 24 37 150 253 205 46 0 0 0 0 0 0
0 6 13 0 0 0 188 633 802 942 975 1050 1164 1104 1363 1159 1187 955 722 614 651 335 321 234 72 29 51 0 0 231 270 171 145 49 45 39 58 47 45 61 46 9 0 0 0 0 0 0 0
0 1 10 1 0 0 95 630 773 641 583 741 1070 1092 1270 1069 997 787 566 349 327 349 210 84 46 14 8 0 53 155 108 192 147 104 53 97 114 67 72 7 0 0 0 0 0 0 1 2 0
9 8 18 22 77 103 184 613 548 550 717 899 1221 1122 1005 582 529 407 192 227 217 160 159 112 66 23 0 5 155 285 207 215 135 81 107 146 117 123 133 48 0 0 0 0 2 6 8 0 0
12 61 169 68 180 430 451 348 273 966 1347 1290 1273 1049 599 466 311 253 137 51 28 54 1 5 3 2 2 10 187 115 168 131 67 110 76 83 90 139 119 40 0 0 1 17 18 16 0 0 0
215 215 169 214 373 482 328 219 306 1127 1373 1322 1043 945 657 462 245 31 58 13 1 0 11 3 4 2 21 217 196 117 87 156 86 103 197 235 144 219 85 11 14 14 15 25 20 3 0 0 0
199 354 441 571 611 314 338 278 261 605 1264 1195 999 761 744 520 51 6 0 9 23 0 5 7 18 157 202 314 211 54 19 22 16 21 288 398 335 221 58 34 29 30 25 1 6 0 0 0 0
115 119 106 197 419 195 351 144 131 894 1247 1040 916 895 618 359 356 169 125 102 115 3 0 13 111 294 464 443 197 25 40 35 49 198 420 545 449 139 93 52 40 36 30 3 1 0 0 0 0
39 79 61 71 147 126 148 81 345 1117 1078 1086 1002 779 687 303 252 232 231 110 60 12 2 55 318 521 658 419 181 106 98 119 320 555 577 532 434 107 73 36 34 36 25 11 4 0 0 0 0
24 10 0 36 36 74 87 102 69 780 1073 991 1028 611 552 368 261 301 351 185 82 111 226 298 402 559 633 676 339 126 114 175 607 704 611 351 232 87 42 38 24 35 4 5 1 0 0 0 0
6 2 20 28 6 29 77 80 59 343 876 745 1002 726 582 514 314 318 301 477 178 207 269 339 422 606 811 715 259 118 202 406 649 631 632 355 155 44 49 21 28 7 0 0 0 0 0 0 0
0 2 7 6 3 20 83 60 31 130 736 761 797 886 738 686 566 267 272 353 437 463 502 470 606 912 938 560 234 85 158 269 528 502 386 173 75 72 30 10 6 0 0 0 0 0 0 0 0
0 6 1 2 4 42 41 71 52 55 462 823 851 761 860 942 837 635 349 378 393 399 497 596 827 855 880 488 254 219 423 457 478 291 237 116 126 53 14 22 12 0 0 0 0 0 0 0 0
1 0 0 0 13 67 4 52 35 69 109 307 751 1032 936 960 886 769 669 503 545 460 389 655 834 874 845 604 364 227 286 389 485 445 298 136 81 42 17 18 6 3 0 0 0 0 0 0 4
0 0 0 0 41 58 49 61 87 47 89 84 196 576 1023 981 1030 813 759 684 618 558 604 498 635 817 930 911 674 535 500 619 658 369 155 98 65 37 2 23 22 5 0 0 0 0 2 0 0
0 0 0 7 53 73 21 43 66 68 56 71 61 70 401 1008 1080 1030 853 711 764 1032 964 818 642 652 868 999 915 880 857 866 382 185 37 49 51 51 20 34 43 0 0 0 0 4 4 4 5
0 37 80 106 97 57 0 5 26 0 21 32 70 141 107 233 1072 1204 1106 1180 859 1012 1158 1081 967 783 957 941 876 923 929 897 365 89 95 60 73 72 38 45 34 0 0 0 23 10 8 5 2
4 27 73 0 4 8 0 0 1 0 0 15 53 133 28 146 277 888 1212 1249 1263 948 1108 1089 1041 974 924 705 826 751 504 446 276 62 155 101 149 173 37 48 17 0 0 0 9 0 0 4 1
6 3 1 37 1 35 12 0 0 0 0 11 0 35 117 36 173 394 787 1125 1131 1157 1011 1163 1055 1003 1022 733 807 502 338 106 65 97 89 86 176 159 60 48 6 5 14 14 0 0 0 0 3
11 6 16 44 4 4 19 9 1 0 0 0 0 0 113 241 59 61 183 520 703 878 993 1044 999 833 858 880 541 518 360 281 146 119 110 151 186 101 60 6 3 11 1 0 3 4 6 0 4
8 9 8 26 3 5 0 9 1 0 0 0 0 2 38 183 359 224 102 109 263 513 690 781 851 803 800 848 735 488 259 161 197 200 155 247 170 118 24 7 2 7 0 2 0 7 3 1 3
12 33 58 27 8 3 27 0 0 0 0 0 1 38 42 219 358 523 458 389 376 443 560 645 756 772 786 861 768 476 540 245 214 96 80 124 91 117 77 23 0 0 1 0 0 0 0 0 0

GFSSGP_con_mucape_069.txt.gz
CAPE
0 0 0 0 0 1 0 6 23 0 2 580 275 168 0 4 389 11 810 1734 1686 1420 1071 1590 1478 1576 1535 1468 1373 1300 1186 919 620 398 327 294 256 328 440 472 604 726 917 520 307 75 0 0 0
0 0 0 0 0 42 34 13 1 23 171 495 1044 665 24 40 415 429 1330 1390 1859 1370 1132 1640 1324 1457 1476 1360 1305 1214 995 668 450 409 364 356 327 473 534 599 568 622 837 554 288 29 0 9 71
0 0 0 33 61 79 21 11 13 34 466 718 904 746 204 220 1006 1124 1276 1571 1892 1179 886 1567 1220 1245 1344 1259 1168 952 660 439 398 405 466 415 531 646 967 1063 1019 841 868 729 163 30 42 99 207
0 0 0 0 30 14 7 65 306 461 608 852 848 443 1426 1364 1299 1302 1427 1694 1489 1058 899 888 998 1098 1197 1117 980 629 457 396 399 381 441 593 638 868 938 1072 1071 1006 1026 713 89 82 112 187 133
0 0 3 57 36 25 67 137 658 843 613 675 878 601 1029 546 1338 1601 1427 1759 1217 800 938 1072 897 1048 1113 1067 702 424 428 462 419 393 468 519 477 523 555 757 1040 1039 996 320 113 120 68 109 44
0 0 24 50 15 48 18 383 664 837 897 1042 867 975 1286 1677 1727 1779 1730 1897 1227 420 669 908 828 963 922 694 380 318 390 408 349 420 418 406 348 349 388 441 584 475 348 291 234 175 57 9 0
0 17 60 35 30 75 92 656 672 781 767 916 969 958 1525 1747 1677 1984 1663 1518 914 572 654 353 603 541 283 156 168 179 294 305 324 365 317 278 264 248 272 302 335 290 231 221 153 81 16 0 0
0 0 23 28 23 48 200 224 900 858 953 939 1115 1062 1090 2115 1687 1620 1590 1291 678 527 312 92 96 134 57 82 124 183 225 204 220 212 187 192 187 211 224 217 240 237 206 149 30 32 0 0 0
0 1 34 53 51 5 53 76 549 818 839 1054 1245 1303 1913 1510 1166 1031 918 730 497 388 408 153 145 92 10 1 169 227 238 159 156 139 124 75 48 22 56 182 194 188 122 78 8 0 0 0 0
0 40 25 4 14 10 1 30 349 594 736 674 1221 1423 1571 1474 1246 976 898 758 681 447 300 167 145 156 8 0 11 157 196 125 121 90 98 67 147 106 72 115 100 70 8 0 0 0 0 0 0
20 11 4 34 32 20 0 83 653 524 312 743 936 1607 1383 1263 855 918 651 574 505 328 313 209 173 69 1 9 3 7 82 68 186 211 179 169 229 238 137 55 3 0 0 0 0 0 0 0 0
5 35 35 23 19 136 82 523 456 489 914 941 1322 1378 1279 994 676 381 315 338 305 235 170 135 147 89 2 2 0 55 49 96 204 215 342 410 329 269 119 42 19 0 0 0 0 0 0 0 0
13 97 80 70 77 146 205 335 374 536 1060 1300 1189 1178 1067 714 511 189 121 111 117 40 24 97 41 30 32 6 4 0 117 144 216 267 372 350 365 496 207 172 38 2 0 0 0 0 0 0 0
145 124 125 119 111 190 269 252 356 1075 1043 1260 1032 1046 906 604 266 206 45 42 37 14 39 7 6 5 12 9 3 2 98 87 164 241 267 508 413 475 287 204 63 3 0 1 0 1 0 0 0
36 44 47 101 155 113 64 111 134 942 1044 1230 975 880 766 521 16 16 33 14 7 10 2 0 2 2 1 14 95 195 205 174 104 114 405 324 338 354 288 155 43 20 15 11 0 10 0 0 0
10 59 37 55 163 90 39 141 26 890 1151 1058 1036 751 568 51 64 8 6 0 10 0 2 1 0 0 58 120 186 252 145 172 143 178 260 359 469 473 296 59 40 34 22 27 13 0 0 0 0
42 47 83 125 59 70 52 93 12 682 971 928 915 690 457 275 165 179 111 73 81 20 0 0 4 61 239 308 331 193 297 71 27 163 420 662 702 478 284 119 71 15 31 18 5 0 0 0 0
11 59 25 27 62 54 65 88 29 390 797 888 769 695 478 332 230 227 163 70 7 15 4 50 201 287 457 589 284 100 107 100 141 379 535 710 722 452 274 183 31 8 3 0 0 0 0 0 0
2 41 65 70 53 4 7 100 38 379 678 656 814 633 501 295 209 253 183 107 18 16 0 66 265 376 487 424 280 89 39 75 191 515 600 686 604 455 384 132 0 13 0 0 0 0 0 0 0
0 23 63 64 11 0 38 58 20 215 640 602 687 708 370 416 277 272 299 164 88 90 213 249 274 459 513 396 219 49 40 54 173 728 704 698 540 383 253 78 0 6 0 2 0 0 0 0 0
5 42 74 26 28 16 17 26 25 62 419 502 461 510 415 384 392 323 282 438 204 242 321 319 370 367 533 468 286 102 84 103 232 666 597 542 468 394 258 57 7 1 13 0 0 0 0 0 0
30 25 0 0 11 4 76 20 48 42 103 459 407 554 623 586 445 462 264 341 540 547 545 588 543 514 705 693 401 208 123 150 325 538 484 508 341 224 29 68 34 3 9 3 0 0 0 0 0
14 0 0 7 75 140 57 20 29 8 31 85 326 543 500 599 635 538 599 344 379 561 642 739 654 756 752 985 683 434 312 333 472 723 676 593 174 56 66 50 12 3 14 6 1 0 0 0 5
5 0 5 52 139 212 124 65 89 42 18 32 96 232 497 542 603 485 488 600 534 1188 1064 700 723 857 882 990 1036 885 678 623 529 932 689 520 117 14 53 11 5 42 21 37 13 0 0 5 13
0 46 181 148 177 189 97 41 74 16 5 2 22 109 130 380 753 761 483 474 591 779 952 993 843 769 935 1129 1248 1283 1247 1063 1180 904 589 395 42 19 48 48 53 70 37 46 9 2 1 13 6
0 46 148 86 161 186 10 1 75 4 0 0 3 57 204 266 341 866 927 798 656 707 1042 1260 1112 993 845 1105 1527 1558 1440 1307 1522 1151 766 344 36 31 46 81 74 78 38 45 15 0 2 3 1
35 44 76 103 63 95 97 85 32 0 0 0 0 0 81 235 305 409 895 1095 1187 1049 1270 1939 1401 1230 1122 1368 1740 1513 1694 1400 1166 1026 567 215 44 59 64 70 73 9 27 13 27 9 1 0 0
6 41 34 40 48 78 107 102 112 2 6 0 0 0 34 296 234 412 506 903 1241 1413 1451 1709 1477 1223 1213 1344 1469 1367 1387 1043 725 289 291 93 113 57 112 84 39 3 12 25 51 2 0 0 0
0 19 36 79 43 120 114 116 51 10 0 0 1 0 0 47 341 282 334 581 1017 1340 1489 1587 1545 1414 1205 1272 1590 1416 1148 776 676 356 289 152 85 83 89 14 0 32 27 24 1 0 0 0 0
36 26 47 71 49 52 74 101 28 2 30 10 0 2 3 48 159 453 451 358 442 754 1083 1296 1476 1494 1311 1143 1281 1267 875 803 487 527 202 77 78 56 39 108 74 28 0 0 1 0 0 0 0

GFSSGP_con_mucape_072.txt.gz
CAPE
0 0 0 0 0 0 0 0 5 1 15 114 25 170 166 66 344 567 200 71 0 62 1735 1896 1646 1662 1590 1500 1401 1412 1313 1090 838 678 566 539 587 624 880 982 943 814 502 95 0 0 0 0 0
0 0 0 0 0 0 0 0 0 0 183 126 72 6 41 323 287 95 500 112 83 803 1730 2029 1709 1636 1613 1471 1441 1402 1221 913 705 605 514 523 674 757 926 903 939 861 552 9 0 0 0 0 12
0 0 0 0 0 0 0 0 6 13 206 203 199 85 307 603 418 619 651 718 988 999 1575 1881 1551 1481 1469 1512 1384 1160 888 646 560 468 513 704 773 844 901 784 863 902 572 76 32 30 9 18 77
0 0 0 0 0 0 4 28 24 78 156 30 33 270 581 1086 859 1178 1461 1669 1353 873 1460 1414 1365 1345 1434 1463 1217 927 676 537 479 453 667 842 1114 1253 1246 909 934 983 415 102 73 55 35 80 0
0 0 0 1 1 6 0 9 126 24 187 127 40 85 60 304 642 1432 1747 1786 1095 642 992 1119 1141 1229 1317 1238 995 698 602 532 498 574 751 1082 1223 1304 1221 1058 955 671 336 220 113 59 39 35 0
0 0 0 6 8 11 2 0 148 222 396 133 148 48 36 48 1245 1631 1438 1471 786 460 430 344 748 812 672 752 588 535 539 488 505 601 607 702 764 958 1062 985 750 363 339 321 230 154 48 8 0
0 0 0 14 21 91 100 46 233 281 211 228 123 58 305 584 1556 1894 1468 962 483 331 71 112 63 234 332 437 279 349 371 419 441 401 326 316 368 513 566 460 381 332 307 255 174 80 18 6 0
0 0 0 2 24 22 57 1 13 271 241 282 423 577 287 34 1609 1568 1243 678 379 435 182 0 39 82 80 128 180 192 243 243 216 177 138 147 179 269 280 245 249 232 210 159 84 46 16 0 0
0 0 0 3 12 1 12 2 0 0 0 203 599 1445 1428 1320 1097 1122 741 409 286 370 173 24 19 17 7 28 143 187 198 135 127 111 85 75 84 92 115 202 207 191 161 105 52 15 0 0 0
0 0 0 1 0 0 0 0 102 122 21 18 10 896 1127 1183 1046 893 1000 397 249 79 112 41 2 16 1 0 30 188 169 92 101 58 57 32 65 100 121 159 142 134 94 66 23 0 0 0 0
1 0 2 0 0 0 0 1 190 188 147 155 462 1016 1090 758 732 528 674 315 839 265 186 85 56 27 4 16 1 2 14 86 98 115 86 161 124 126 59 18 2 0 0 0 0 0 0 0 0
5 0 0 6 0 0 0 23 127 55 491 754 1012 1271 1025 653 341 298 208 225 202 176 164 139 124 25 24 15 3 12 19 86 72 127 182 287 229 189 71 32 6 0 0 0 0 0 0 0 0
6 1 18 0 0 0 0 8 23 90 669 819 894 813 639 554 148 142 74 53 99 38 54 51 101 103 18 6 2 1 57 64 96 128 217 254 270 229 162 85 12 0 0 0 0 0 0 0 0
5 39 14 4 12 18 1 15 161 193 442 798 829 677 638 250 49 26 14 14 10 8 16 32 5 17 34 6 5 6 10 92 125 182 185 319 356 291 262 199 81 0 0 0 0 0 0 0 0
0 0 15 25 0 0 49 50 37 0 227 736 704 711 471 61 6 11 15 3 1 9 5 15 3 5 5 16 14 15 5 67 84 123 217 280 298 334 365 318 187 3 0 0 0 0 0 0 0
0 0 2 11 4 4 65 91 21 0 5 400 527 356 173 16 21 3 12 4 7 1 1 11 1 0 0 0 0 1 48 77 115 180 198 347 370 378 359 241 97 3 0 0 0 0 0 0 0
0 1 12 61 31 47 79 66 35 108 52 346 570 295 154 79 31 29 12 1 12 7 1 0 0 0 0 0 0 20 82 95 165 138 218 297 365 387 279 102 4 10 5 0 0 1 0 0 0
3 29 12 24 36 39 25 33 8 144 311 424 577 364 194 73 78 115 29 5 0 0 0 0 0 0 0 0 73 111 126 63 69 286 351 432 489 431 332 93 27 19 0 0 5 0 0 0 0
0 0 10 6 18 26 0 4 0 48 147 405 509 391 223 155 195 87 67 48 0 0 0 0 0 0 15 69 44 66 72 31 59 138 337 433 482 459 290 271 125 20 0 7 8 4 0 0 0
0 0 0 25 51 1 0 10 4 15 190 270 468 337 345 188 189 140 44 8 0 0 0 0 0 117 229 218 130 22 0 0 0 134 418 494 531 480 359 344 53 24 0 0 0 4 0 2 0
0 0 13 34 28 25 13 5 0 3 100 201 540 491 466 278 208 185 101 20 0 0 0 0 111 324 325 291 193 56 10 19 10 493 531 494 521 504 308 241 55 21 6 0 2 3 2 3 0
1 2 18 0 4 22 1 30 9 4 31 184 422 681 268 175 261 230 208 117 10 0 4 118 202 380 391 345 149 53 23 18 52 463 556 498 444 439 316 226 127 21 51 32 5 10 23 5 0
0 0 0 0 0 12 17 28 20 0 1 131 252 520 433 406 184 277 257 256 125 147 222 307 309 311 227 365 422 176 84 30 44 189 476 408 322 573 361 179 60 43 21 5 7 6 16 15 0
0 0 0 0 7 86 88 72 56 1 12 56 160 309 503 633 457 398 272 249 415 328 448 656 582 449 461 570 361 594 207 296 324 656 506 421 274 211 257 57 35 44 3 4 22 4 33 8 0
0 0 15 102 130 222 61 143 66 37 38 15 43 212 427 508 639 522 520 347 271 456 618 814 786 585 612 916 654 691 849 359 467 655 507 453 295 240 50 7 17 47 35 38 34 38 2 40 14
0 0 98 24 187 217 4 25 0 20 0 0 0 23 232 305 650 503 372 666 486 490 787 793 775 746 751 926 1089 1057 929 984 668 810 626 411 325 271 168 21 13 50 66 91 33 6 0 4 17
1 0 10 143 127 239 54 45 36 0 0 0 0 0 97 245 322 580 692 453 646 686 881 1004 889 780 733 1020 1117 1275 1291 1259 1126 1040 864 543 464 381 246 10 53 81 96 68 27 0 0 0 17
0 2 24 58 59 41 7 31 72 1 2 0 0 0 48 126 268 388 482 936 594 703 928 1154 1086 1104 983 957 1141 1306 1429 1415 1319 1070 816 620 457 224 60 72 71 99 91 9 1 0 3 14 17
0 0 27 31 29 44 109 72 8 7 0 6 0 0 0 144 284 293 447 618 1121 973 736 1288 1466 1375 1267 1165 1218 1355 1419 1185 1153 1071 638 494 174 107 115 118 171 54 10 25 16 0 0 0 0
0 0 14 74 28 136 136 110 30 13 3 13 2 25 17 39 110 329 337 381 543 1333 1481 1377 1513 1517 1407 1192 1360 1350 1161 984 917 839 563 247 178 136 255 172 56 16 13 18 2 0 0 1 0

GFSSGP_con_mucape_075.txt.gz
CAPE
0 0 0 0 0 0 0 0 0 0 94 113 113 144 108 228 412 207 71 308 619 363 25 421 1447 1758 1669 1568 1513 1335 1232 1182 1129 1000 948 904 977 1171 1073 979 689 365 141 0 0 0 0 0 0
0 0 0 0 0 0 0 0 4 145 179 183 210 366 537 307 334 182 206 204 93 138 93 676 952 1387 1642 1526 1456 1301 1247 1101 973 929 933 980 1145 1201 1095 819 429 258 154 0 0 0 0 0 0
0 0 0 0 0 0 0 0 60 118 68 115 137 145 292 874 647 909 607 179 297 2 18 36 881 1212 1502 1454 1321 1109 1013 881 811 847 983 1142 1261 1250 1168 713 266 286 210 0 0 0 0 0 0
0 0 0 0 0 0 0 82 85 110 119 141 79 56 25 236 142 691 891 1038 605 5 387 299 881 1112 1466 1518 1314 1008 862 723 709 858 1023 1211 1233 1204 1156 715 338 344 231 0 0 0 0 0 0
0 0 0 0 0 0 2 102 90 171 139 235 31 44 0 0 83 697 787 950 640 489 469 525 333 1052 1418 1488 1054 795 673 585 708 861 996 1176 1204 1091 1099 599 334 285 235 27 0 0 0 0 0
0 0 0 0 0 0 58 160 67 202 180 122 0 31 7 0 43 480 820 798 683 500 504 290 237 599 807 893 617 498 516 535 687 1018 1183 1280 1228 1036 1013 440 333 303 233 162 63 35 4 0 0
0 0 0 0 0 20 10 7 28 130 172 66 19 125 118 0 3 395 616 543 357 248 136 45 94 18 303 357 224 263 387 472 530 662 834 952 939 903 665 415 417 356 230 138 65 25 7 0 0
0 0 0 0 0 0 1 0 150 55 8 132 149 0 76 4 308 403 678 395 298 90 11 4 46 67 13 150 160 181 209 206 173 339 508 618 603 474 334 291 281 251 198 125 48 16 0 0 0
0 0 0 0 0 0 6 0 0 9 113 116 24 1 160 709 849 579 700 283 270 126 87 81 42 0 27 26 107 126 136 66 53 188 398 336 320 306 233 176 220 217 155 102 54 10 0 0 0
0 0 0 0 0 0 0 0 79 121 199 182 29 0 808 1007 758 391 503 354 262 142 127 31 22 2 0 2 90 133 86 11 11 24 141 154 177 134 99 142 182 182 130 86 42 0 0 0 0
0 0 0 0 0 0 0 0 64 57 137 216 159 167 869 567 767 214 150 271 225 194 54 62 37 38 1 0 9 60 41 2 4 0 0 16 29 43 49 52 59 39 25 1 1 0 0 0 0
0 0 0 0 0 0 0 0 0 479 433 325 471 989 564 361 310 448 107 42 92 216 141 83 22 88 4 18 10 2 0 0 33 3 10 28 17 7 22 2 0 0 3 0 0 0 0 0 0
0 1 1 3 0 0 0 0 0 55 113 620 723 697 379 156 149 95 41 75 62 73 42 21 12 59 11 3 0 1 4 1 20 49 65 82 62 33 23 2 2 0 0 0 0 0 0 0 0
0 0 0 0 0 0 0 0 0 5 54 165 352 529 261 59 101 49 23 33 25 8 41 13 28 13 10 13 0 0 11 3 34 89 121 152 109 61 79 21 5 0 0 0 0 0 0 0 0
0 0 0 0 0 0 0 0 6 0 14 1 17 347 100 31 52 5 32 7 14 15 34 22 54 24 6 20 21 5 3 22 37 89 145 171 203 90 97 30 20 5 0 0 0 0 0 0 0
0 0 0 0 0 4 0 1 0 23 6 0 111 126 97 3 30 3 0 1 15 6 12 3 5 6 5 3 13 6 4 0 2 59 115 153 189 132 173 106 63 20 0 0 0 0 0 0 0
0 0 0 0 0 3 0 0 1 40 25 5 1 47 149 13 5 45 1 2 9 4 3 0 0 6 16 21 15 17 8 6 3 24 68 82 109 144 177 153 64 5 0 0 5 0 0 0 0
0 0 0 0 1 1 9 5 0 10 80 87 147 63 200 128 11 1 0 0 0 0 3 5 0 0 0 0 0 0 0 21 0 12 1 18 26 128 223 149 81 2 0 8 3 6 7 0 0
0 0 0 0 3 0 1 0 0 6 63 189 149 113 234 157 80 0 0 0 0 0 0 0 0 0 0 0 0 0 7 0 0 0 0 55 226 224 214 156 69 31 10 13 0 7 5 0 0
0 0 0 0 20 0 0 0 0 0 24 193 218 241 130 138 169 30 0 0 0 0 0 0 0 0 0 0 0 0 0 0 0 0 98 137 222 342 267 192 113 73 25 5 0 0 0 0 0
0 0 0 0 1 2 0 3 0 0 165 214 236 155 103 118 135 74 8 0 0 0 0 0 0 0 0 0 0 0 0 0 0 3 110 163 220 372 364 239 169 164 57 21 0 1 0 0 0
0 0 0 0 0 0 0 0 0 1 30 83 300 232 128 132 92 65 51 0 0 0 0 0 0 0 0 0 0 0 0 0 0 0 28 192 268 338 318 303 239 158 75 3 0 3 26 19 7
0 0 0 0 0 0 0 0 0 0 0 46 393 340 198 139 74 69 95 5 0 0 0 0 0 11 13 28 29 20 14 0 0 66 163 207 260 349 415 345 210 162 68 4 12 34 8 11 4
0 0 0 0 0 0 0 0 0 3 0 33 183 370 249 179 105 82 140 87 2 0 0 0 22 31 44 63 61 113 28 3 0 76 261 285 294 380 406 254 255 191 91 33 27 8 28 8 4
0 0 0 0 0 0 8 0 0 10 0 0 14 376 318 191 207 158 141 104 106 7 4 4 15 50 90 164 129 158 81 30 24 9 294 340 381 296 260 198 178 220 127 62 68 40 27 38 12
0 0 0 0 0 17 7 27 0 12 0 0 0 160 326 240 236 284 208 199 157 94 67 32 37 122 131 236 242 193 220 145 32 57 176 302 389 369 194 213 199 66 25 45 72 51 49 16 0
0 0 0 20 1 1 6 16 3 0 0 0 0 0 188 316 309 331 306 329 294 280 167 159 316 219 255 347 492 396 301 380 327 48 293 377 380 406 372 236 172 94 38 49 158 70 69 18 1
0 0 2 8 4 4 0 19 23 1 1 0 0 0 12 78 199 440 387 344 343 326 339 285 337 544 470 359 597 722 644 439 715 590 354 463 435 372 333 304 262 85 106 178 15 64 10 8 2
0 0 1 13 20 3 0 0 0 5 1 0 0 0 0 0 47 99 157 352 439 389 439 383 394 396 513 514 437 766 808 781 664 875 783 786 408 366 359 198 58 69 120 97 9 20 7 17 5
0 0 0 0 14 16 4 0 0 0 0 0 0 0 0 36 5 60 94 179 436 473 558 487 518 554 706 629 516 709 825 944 691 613 496 569 339 377 316 155 112 99 72 20 0 0 13 12 5

GFSSGP_con_mucape_078.txt.gz
CAPE
0 0 0 0 0 0 0 0 0 0 54 107 88 157 147 210 295 275 182 672 1074 1146 1026 1400 1785 1743 1712 1603 1535 1466 1495 1429 1266 1232 1173 1332 1277 1222 855 498 349 161 67 0 1 3 5 22 38
0 0 0 0 0 0 0 0 23 15 36 90 140 301 608 673 830 685 597 562 1053 925 700 1055 1139 1058 1472 1624 1481 1471 1526 1334 1160 1175 1225 1363 1372 1148 689 499 238 101 84 0 0 0 0 0 6
0 0 0 0 0 0 0 0 11 48 113 110 73 173 166 771 351 1057 1075 888 648 649 283 1020 759 445 1247 1758 1517 1435 1271 1096 1030 1078 1386 1440 1306 977 619 422 215 151 74 0 0 0 0 0 0
0 0 0 0 0 0 0 0 67 137 177 135 76 67 5 139 32 598 1042 735 958 490 159 822 885 904 1254 1694 1481 1256 1020 835 797 922 1308 1456 1255 853 620 415 306 198 50 0 0 0 0 0 0
0 0 0 0 0 0 0 0 117 194 194 264 76 88 24 24 0 423 971 657 619 446 245 385 559 793 1078 1596 1353 1004 779 725 749 996 1235 1409 1185 734 588 423 310 142 45 0 0 0 0 0 0
0 0 0 0 0 0 3 47 160 247 184 93 6 64 67 1 7 477 719 695 728 384 209 53 192 254 549 1057 880 620 537 694 714 949 1052 1197 1017 601 530 411 301 152 76 0 0 0 0 0 0
0 0 0 0 0 0 3 7 38 183 81 12 27 37 5 0 19 338 561 439 489 342 142 58 58 14 12 716 416 288 405 568 626 782 805 882 686 409 409 372 309 136 50 0 0 0 0 0 0
0 0 0 0 0 0 0 10 77 37 21 31 76 6 0 1 402 515 417 253 275 142 117 114 13 23 0 51 187 328 471 656 688 808 783 741 323 262 282 228 144 78 54 30 18 0 0 0 0
0 0 0 0 0 0 1 0 4 33 108 103 40 4 117 714 623 566 306 314 234 103 81 26 0 0 21 26 102 115 284 371 363 503 629 553 160 71 18 53 76 65 53 44 23 0 0 0 0
0 0 0 0 0 0 0 0 14 75 143 156 75 6 622 679 479 393 375 208 317 166 99 51 12 0 0 21 34 74 216 307 262 264 194 232 191 1 11 36 70 63 56 44 21 0 0 0 0
0 0 0 0 0 2 0 11 61 90 375 253 190 213 791 375 253 322 223 217 326 127 75 9 0 0 0 0 0 72 192 263 265 301 184 214 171 2 0 16 12 5 10 0 0 0 0 0 0
0 0 0 0 0 0 2 13 407 413 362 303 480 868 495 192 159 197 100 176 139 141 106 5 0 4 0 0 2 11 77 167 247 236 185 194 80 0 0 0 0 4 0 0 0 0 0 0 0
0 0 0 0 0 0 1 17 337 337 812 216 644 489 346 140 47 12 39 61 91 113 60 16 4 2 3 1 0 0 0 8 15 36 63 48 4 0 0 0 0 0 0 0 0 0 0 0 0
0 0 0 0 0 0 0 11 18 205 592 35 15 50 82 41 8 17 38 51 44 48 31 7 29 51 19 4 1 0 0 0 0 33 8 7 1 0 0 0 0 0 2 0 0 0 0 0 0
0 0 0 0 0 0 0 1 5 18 3 0 43 245 96 0 29 7 22 39 6 14 41 12 24 13 13 1 9 0 0 10 37 45 35 9 8 13 0 0 0 0 0 0 0 0 0 0 0
0 0 0 0 0 0 0 8 3 3 26 25 85 150 30 10 1 4 8 22 48 21 29 20 6 35 5 6 5 5 8 6 43 76 91 59 24 41 1 0 0 0 0 0 0 0 0 0 0
0 0 0 0 0 0 0 11 4 3 65 149 99 43 30 14 5 4 4 4 29 21 36 12 9 13 4 2 13 6 28 57 33 65 98 133 107 78 60 31 2 0 0 0 0 0 0 0 0
0 0 0 0 0 0 0 1 0 7 31 60 42 37 28 26 0 1 0 3 7 13 12 1 4 21 15 17 37 6 9 11 7 10 72 87 97 109 143 140 59 8 6 0 0 0 0 0 0
0 0 0 0 0 0 0 0 0 4 53 115 67 41 28 33 0 0 0 0 0 0 5 3 2 3 3 9 2 12 9 1 0 0 2 12 0 64 79 89 38 32 15 0 0 0 0 0 0
0 0 0 0 1 1 0 0 0 0 46 102 79 28 56 33 15 0 0 0 6 0 0 0 4 9 7 7 0 0 0 0 0 0 0 0 7 29 67 27 33 38 41 4 0 0 0 0 1
0 0 0 0 0 0 0 0 0 0 4 118 145 50 95 49 31 0 0 0 0 0 0 0 0 0 0 0 0 0 0 0 0 0 0 0 1 42 44 35 57 74 48 35 16 0 0 8 14
0 0 1 0 0 0 0 0 0 0 2 64 178 153 141 96 77 38 0 0 0 0 0 0 0 0 0 0 0 0 0 0 0 0 0 0 0 18 76 73 108 123 98 64 46 28 15 12 14
0 0 1 0 0 0 0 0 0 0 27 121 204 294 193 163 93 41 0 0 0 0 0 0 0 0 0 0 0 0 0 0 0 0 0 3 37 53 79 113 164 128 134 154 119 55 31 25 28
0 0 0 0 0 0 0 0 0 0 0 35 230 255 211 195 178 72 2 11 0 0 0 0 0 0 0 0 0 0 0 0 0 1 0 0 42 88 109 123 153 230 167 150 106 70 22 27 24
0 1 0 0 0 0 0 0 0 0 0 0 85 197 218 230 232 153 16 105 5 0 0 0 0 0 0 0 0 0 0 0 1 2 0 4 22 55 119 185 274 287 244 183 129 70 29 54 55
0 0 0 0 0 0 0 0 0 0 0 0 0 133 187 234 253 222 198 66 122 50 2 0 0 0 0 25 25 14 5 3 18 30 16 15 56 88 110 193 251 339 226 177 224 119 71 83 35
0 0 0 0 10 0 0 0 0 0 0 0 0 59 125 246 249 231 280 300 191 78 28 13 0 0 18 34 73 130 108 60 140 163 67 50 101 105 143 243 246 223 186 209 258 91 42 55 66
0 0 0 5 0 0 0 0 0 0 0 0 0 19 103 143 239 241 270 380 398 254 131 73 28 15 5 46 91 134 172 198 154 218 156 74 103 181 230 242 168 156 167 134 34 51 55 87 45
0 0 5 2 0 0 0 0 0 0 0 0 0 0 17 85 134 197 248 320 435 433 298 219 133 140 106 88 92 194 224 261 310 197 159 139 116 200 225 98 293 193 129 66 44 20 13 1 6
0 0 0 0 0 0 0 0 0 0 0 0 0 0 0 11 76 111 167 204 256 337 363 362 261 202 210 162 189 228 268 311 364 363 196 201 164 33 0 15 195 137 83 52 47 24 0 5 2

GFSSGP_con_mucape_081.txt.gz
CAPE
0 0 0 0 0 0 0 0 0 0 3 53 77 88 77 241 219 145 172 386 1051 1653 1562 1817 1753 1865 1816 1783 1682 1695 1754 1682 1592 1467 1321 1228 1042 900 668 325 375 498 415 60 36 26 18 10 11
0 0 0 0 0 0 0 0 0 1 6 42 97 193 394 551 618 677 821 278 1086 1891 1447 1783 1660 1740 1776 1712 1684 1747 1796 1733 1576 1545 1411 1324 1001 858 566 371 334 521 519 93 60 34 9 2 15
0 0 0 0 0 0 0 0 0 0 15 57 63 66 194 755 289 1012 1009 654 1316 1185 1124 1522 1481 1365 1373 1415 1634 1654 1616 1512 1493 1450 1527 1236 966 802 544 311 316 517 493 31 5 0 0 0 0
0 0 0 0 0 0 0 0 0 0 3 75 86 51 26 105 31 92 704 949 1008 949 792 1096 989 882 827 952 1363 1548 1494 1302 1345 1382 1501 1196 929 704 462 299 251 465 381 2 0 0 0 0 0
0 0 0 0 0 0 0 0 0 2 45 144 68 71 65 59 29 832 971 967 427 534 534 578 848 468 812 1100 1497 1335 1247 1173 1286 1361 1327 1027 827 665 455 250 187 213 56 0 0 0 7 0 0
0 0 0 0 0 0 0 0 18 50 93 102 38 102 81 18 97 614 704 669 362 182 172 271 449 537 698 1137 1001 958 913 1015 1193 1262 1181 822 683 541 420 259 154 28 0 0 0 0 0 0 0
0 0 0 0 0 0 0 0 24 59 89 54 93 123 5 26 450 592 624 639 720 347 179 195 136 145 122 342 341 479 583 880 1104 1108 837 543 435 398 360 203 70 0 0 0 0 0 0 0 0
0 0 0 0 0 0 0 0 19 59 43 59 62 7 2 53 903 621 454 336 621 264 43 1 16 57 56 81 192 178 359 767 899 868 595 318 280 281 195 16 0 0 0 0 0 0 0 1 0
0 0 0 0 0 0 0 0 0 1 49 58 95 4 0 952 575 428 349 265 420 130 72 46 21 36 44 21 1 82 362 576 696 630 405 222 139 40 0 0 0 0 0 0 0 0 1 8 0
0 0 0 0 0 0 0 0 0 8 48 76 51 0 283 554 432 337 477 257 155 139 82 51 46 9 21 1 2 40 119 417 418 366 230 99 53 0 0 0 0 0 0 0 0 0 0 0 0
0 0 0 0 0 0 0 0 0 1 40 167 72 22 556 375 272 272 208 242 600 106 66 63 37 0 0 4 27 18 33 74 292 326 212 72 10 0 0 0 0 0 0 0 0 0 0 0 0
0 0 0 0 0 0 0 3 240 7 179 181 108 226 458 179 70 42 3 80 186 101 49 75 25 23 18 0 8 6 97 162 186 284 206 85 5 0 0 0 0 0 0 0 0 0 0 0 0
0 0 0 0 0 0 0 0 92 140 436 598 721 717 388 34 21 0 1 37 107 61 87 39 35 60 10 5 1 7 12 70 142 194 224 201 15 0 0 0 0 0 0 0 3 0 0 0 0
0 0 0 0 0 0 0 10 2 6 604 156 24 25 128 13 0 2 3 11 45 28 14 15 36 18 1 1 3 0 0 90 163 182 192 193 6 0 0 0 0 0 0 5 7 3 0 0 0
0 0 0 0 0 0 0 0 0 0 427 262 14 45 31 16 0 1 2 13 5 15 41 81 28 11 9 6 18 15 1 9 38 69 145 147 8 0 0 0 0 0 7 9 10 2 0 0 0
0 0 0 0 0 0 0 0 0 1 30 1 88 106 47 0 0 1 2 16 7 12 57 22 29 40 12 17 38 17 5 25 32 44 84 76 8 0 0 0 0 0 4 7 13 0 0 0 0
0 0 0 0 0 0 0 0 0 0 0 0 117 67 22 18 5 1 4 2 3 13 32 26 28 50 51 20 28 15 5 17 31 25 21 17 0 0 0 0 0 0 1 6 4 0 0 0 0
0 0 0 0 0 0 0 0 0 0 0 17 52 56 10 13 0 7 1 4 9 1 10 1 3 4 16 16 4 10 13 50 53 26 17 3 1 7 0 0 0 0 0 0 0 0 0 0 0
0 0 0 0 0 0 0 0 0 0 0 6 21 5 17 35 6 2 0 4 2 18 0 16 12 11 5 3 6 18 14 13 40 74 93 70 29 44 30 29 34 0 0 7 0 0 0 7 0
0 0 0 0 0 0 0 0 0 0 0 0 1 0 0 3 5 0 0 2 4 0 6 0 0 16 4 2 12 8 14 22 22 41 21 29 60 110 79 104 129 81 76 64 28 20 16 3 0
0 0 0 0 0 0 3 0 0 0 0 0 6 15 0 9 0 1 3 0 2 2 0 0 0 0 4 5 5 11 6 8 4 2 0 0 1 18 32 73 98 114 131 113 82 52 40 27 1
0 0 0 0 0 0 0 0 0 0 0 0 2 60 18 20 25 0 2 0 0 0 0 0 0 1 1 1 0 1 1 0 0 0 0 0 0 0 0 36 57 79 102 96 107 98 77 65 25
0 0 0 0 0 0 0 0 0 0 0 0 0 9 41 5 41 2 0 0 0 0 0 0 0 0 0 2 0 0 0 0 0 0 0 0 0 0 0 44 55 82 67 71 111 106 109 77 44
0 0 0 0 0 0 0 0 0 0 0 0 0 0 31 38 58 53 1 0 0 0 0 0 0 0 0 0 0 0 0 0 0 0 0 0 0 0 0 22 77 104 118 137 171 169 105 91 66
0 0 0 0 0 0 0 0 0 0 0 5 12 4 39 39 91 74 45 0 0 0 0 0 0 0 0 0 0 0 0 0 0 0 0 0 0 0 26 83 116 82 96 120 182 202 175 125 84
0 0 0 0 0 0 0 0 0 0 0 4 3 18 33 56 76 83 103 40 13 9 0 0 0 0 0 0 0 0 0 0 0 0 0 0 0 2 15 62 104 111 131 186 231 162 174 108 107
0 0 0 0 0 0 0 0 0 0 0 0 0 2 14 58 65 98 131 133 139 44 10 4 0 0 0 0 0 0 0 0 0 0 0 23 24 17 2 17 24 80 130 177 197 180 138 239 172
0 0 0 0 0 0 0 0 0 0 0 0 0 0 0 5 35 85 112 164 179 238 157 13 10 0 0 0 0 0 0 0 2 5 9 30 45 72 57 50 73 97 125 111 102 167 104 178 47
0 0 0 0 0 0 0 0 0 0 0 0 0 0 0 16 20 48 124 177 236 241 295 204 45 20 10 3 0 0 13 47 61 75 88 96 96 112 204 57 63 90 55 84 77 115 180 61 56
0 0 0 0 0 0 0 0 0 0 0 0 0 0 14 30 31 36 84 178 170 154 210 304 323 234 139 12 0 26 10 25 52 81 119 153 213 255 114 57 40 5 3 17 70 134 57 24 45

GFSSGP_con_mucape_084.txt.gz
CAPE
0 0 0 0 0 0 0 0 0 0 0 0 11 42 36 102 132 32 170 252 1156 1662 1783 1627 1676 1864 1808 1856 1821 1851 1941 1901 1793 1699 1579 1506 1342 1073 707 710 657 650 500 35 11 5 2 3 5
0 0 0 0 0 0 0 0 0 0 0 1 6 23 157 256 483 376 735 423 553 1604 1751 1591 1681 1833 1983 1902 1793 1777 1877 1808 1704 1623 1492 1368 1205 816 858 795 594 588 598 62 55 68 15 0 2
0 0 0 0 0 0 0 0 0 0 0 2 11 10 112 518 332 567 887 886 712 1577 1607 1615 1668 1737 1910 1804 1937 1729 1645 1530 1484 1391 1377 1247 970 779 887 697 564 612 647 260 120 51 8 0 2
0 0 0 0 0 0 0 0 0 0 0 0 0 0 0 107 8 24 216 755 713 1256 1037 1299 1478 1679 1883 1915 1893 1790 1594 1368 1247 1216 1152 1120 908 827 771 648 579 623 430 9 18 15 0 0 0
0 0 0 0 0 0 0 0 0 0 0 7 22 3 0 12 11 406 737 779 893 694 630 408 788 1019 1587 1868 1853 1634 1472 1248 1250 1140 1033 966 813 661 663 524 462 266 90 13 17 1 0 0 0
0 0 0 0 0 0 0 0 0 0 5 25 28 1 0 2 105 319 452 872 609 425 299 245 366 611 669 1176 1511 1273 1278 1168 1199 921 830 766 539 467 430 432 226 38 0 167 151 2 0 0 0
0 0 0 0 0 0 0 0 0 0 25 26 33 42 1 4 300 563 394 804 366 176 105 81 209 310 376 335 547 1034 1096 1044 1082 718 512 413 332 283 298 183 30 1 0 82 9 0 0 0 0
0 0 0 0 0 0 0 0 0 0 0 28 44 42 3 1 462 492 375 530 633 188 121 76 64 94 173 91 205 447 796 897 903 465 291 190 205 175 120 0 0 0 0 1 6 0 0 0 0
0 0 0 0 0 0 0 0 0 0 0 16 119 60 16 378 740 749 470 422 385 314 80 60 11 2 60 67 57 145 254 528 462 356 203 149 97 33 0 0 0 0 0 0 1 0 0 0 0
0 0 0 0 0 0 0 0 0 0 0 15 32 58 8 532 557 607 580 308 276 160 46 54 10 7 17 22 50 25 20 101 234 260 142 72 56 0 0 0 0 0 0 1 14 3 0 0 0
0 0 0 0 0 0 0 0 0 0 0 7 29 50 46 405 240 502 341 186 295 84 150 9 15 19 0 2 48 47 41 51 178 194 85 38 11 0 0 0 0 0 0 0 0 0 0 0 0
0 0 0 0 0 0 0 0 0 0 1 64 114 70 529 266 129 216 164 67 36 37 38 14 7 36 13 0 4 28 26 27 107 100 88 19 0 0 0 0 0 0 0 3 2 0 0 0 0
0 0 0 0 0 0 0 0 0 9 16 624 676 637 342 126 66 25 119 24 57 47 23 12 24 7 14 3 12 1 29 65 75 143 90 35 0 0 0 0 0 0 0 6 4 0 0 0 0
0 0 0 0 0 0 0 0 0 0 134 503 251 212 311 263 39 21 37 6 46 39 25 36 20 20 5 15 38 15 32 31 68 127 124 40 6 0 0 0 0 7 3 11 4 0 0 0 0
0 0 0 0 0 0 0 0 0 0 270 302 28 28 119 48 27 2 34 1 13 22 34 36 27 23 8 20 10 16 37 13 69 92 116 57 23 12 0 13 9 8 23 25 10 12 6 1 0
0 0 0 0 0 0 0 0 0 0 76 201 134 60 51 35 5 6 22 3 0 7 33 14 22 3 16 24 8 2 1 4 30 71 100 97 41 7 1 10 17 27 33 27 25 18 17 4 0
0 0 0 0 0 0 0 0 0 0 14 2 0 41 36 10 17 2 15 2 25 7 12 16 8 7 7 7 13 14 8 9 55 74 76 88 33 28 10 1 3 21 25 25 25 20 12 8 0
0 0 0 0 0 0 0 0 0 0 0 0 0 19 10 7 1 4 1 2 3 16 27 11 14 5 4 20 6 10 16 27 47 37 62 93 62 13 0 2 1 3 5 1 7 15 17 11 2
0 0 0 0 0 0 0 0 0 0 0 0 0 4 0 0 0 2 2 0 5 4 18 16 13 15 0 13 18 24 13 5 2 12 34 95 71 8 1 0 0 0 0 0 0 0 12 25 17
0 0 0 0 0 0 0 0 0 0 0 0 0 6 0 0 0 0 2 0 0 0 1 0 3 8 1 23 6 30 16 2 61 65 27 58 51 38 7 0 0 0 0 0 8 10 25 22 7
0 0 0 0 0 0 0 0 0 0 0 0 0 0 3 0 0 0 2 0 0 0 1 3 7 3 3 4 12 17 3 4 96 36 52 73 68 68 73 84 94 107 82 58 50 44 30 35 21
0 0 0 0 0 0 0 0 0 0 0 0 0 0 0 8 11 0 0 0 0 0 0 1 1 0 0 1 4 10 11 13 9 8 0 68 66 95 88 81 103 125 99 85 74 71 62 62 51
0 0 0 0 0 0 0 0 0 0 0 0 0 0 0 26 0 15 0 0 0 0 0 4 2 0 0 0 0 0 1 1 3 2 32 9 1 1 7 3 0 4 34 60 55 73 108 124 90
0 0 0 0 0 0 0 0 0 0 0 0 0 0 0 0 31 40 7 0 0 1 0 0 0 0 0 0 0 0 0 0 0 0 0 0 0 0 0 0 0 18 27 24 50 102 92 99 81
0 0 0 0 0 0 0 0 0 0 0 0 0 0 0 0 1 14 40 0 0 0 0 0 0 0 0 0 0 0 0 0 0 0 0 0 0 0 0 0 0 8 22 55 93 112 105 108 119
0 0 0 0 0 0 0 0 0 0 0 0 0 0 0 0 0 2 21 14 4 4 0 0 0 0 0 0 0 0 0 0 0 0 0 0 0 0 0 0 5 14 41 84 150 127 96 107 117
0 0 0 0 0 0 0 0 0 0 0 0 0 0 0 0 2 0 19 47 59 38 9 4 0 0 0 0 0 0 0 0 0 0 0 0 0 0 0 0 0 11 43 65 88 100 78 35 26
0 0 0 0 0 0 0 0 0 0 0 0 0 3 0 0 1 7 19 61 97 129 149 78 1 0 0 0 0 0 0 0 0 0 0 0 0 0 0 0 1 15 22 41 50 76 94 51 20
0 0 0 0 0 0 0 0 0 0 0 0 0 0 0 0 0 0 10 33 62 97 179 186 128 27 0 0 0 0 0 0 0 0 0 0 1 12 29 43 53 71 87 38 43 78 65 9 19
0 0 0 0 0 0 0 0 0 0 0 0 0 0 0 0 0 0 5 27 38 66 86 160 187 183 124 41 11 0 3 9 0 0 9 25 47 60 73 96 111 140 43 29 8 49 28 33 1

GFSSGP_con_mucape_087.txt.gz
CAPE
0 0 0 0 0 0 0 0 0 0 0 0 0 3 12 39 74 32 113 284 974 1698 1793 1734 1730 1877 1819 2074 2140 2070 2122 2056 1946 1752 1723 1584 1489 1367 1083 863 723 610 348 16 15 21 26 34 29
0 0 0 0 0 0 0 0 0 0 0 0 0 16 116 90 189 250 421 566 470 1751 1916 1687 1555 1699 1915 2002 2169 2163 2249 2067 1893 1882 1747 1514 1226 1041 907 824 626 527 371 12 17 17 13 14 12
0 0 0 0 0 0 0 0 0 0 0 0 0 9 20 329 317 261 643 663 556 1215 1669 1743 1535 1324 1698 1871 2161 2174 2093 1915 1799 1720 1652 1346 1088 1093 1031 830 586 573 510 164 16 4 3 6 11
0 0 0 0 0 0 0 0 0 0 0 0 0 6 0 1 9 39 417 913 615 951 1839 1384 1231 1214 1720 1949 2084 2081 1921 1714 1623 1567 1440 1161 1174 1148 920 706 564 528 480 257 43 2 0 2 3
0 0 0 0 0 0 0 0 0 0 0 6 0 6 0 7 40 43 762 746 870 789 1397 1263 672 721 1000 1934 2022 1876 1721 1536 1434 1398 1139 1056 1138 1001 781 626 635 545 435 429 31 0 0 5 5
0 0 0 0 0 0 0 0 0 0 0 6 5 10 31 18 106 480 690 594 551 651 637 553 445 698 464 947 1504 1491 1425 1356 1217 1107 876 929 894 755 728 591 379 212 295 273 5 0 0 0 0
0 0 0 0 0 0 0 0 0 0 2 4 6 24 93 32 217 770 670 555 591 339 451 307 268 207 66 271 655 970 1156 1127 963 773 623 589 507 452 494 254 96 169 230 123 0 0 0 0 0
0 0 0 0 0 0 0 0 0 0 0 1 32 141 73 0 597 728 531 443 850 190 205 270 287 451 212 237 205 437 919 973 742 523 373 275 285 266 160 13 59 258 324 93 0 0 0 0 0
0 0 0 0 0 0 0 0 0 0 0 7 20 37 3 328 594 461 391 327 269 312 118 71 90 183 248 66 130 184 500 582 558 368 180 185 386 209 13 0 24 208 153 40 0 0 0 0 0
0 0 0 0 0 0 0 0 0 0 0 0 0 8 44 537 413 297 225 239 147 517 95 7 10 23 40 166 119 211 245 400 345 281 299 242 210 57 0 0 0 71 124 37 9 0 0 0 0
0 0 0 0 0 0 0 0 0 0 0 0 0 1 12 465 403 184 77 105 133 96 58 29 1 5 20 66 72 191 108 266 205 170 199 118 39 1 0 0 0 0 51 24 11 0 0 0 0
0 0 0 0 0 0 0 0 0 0 0 17 2 24 88 376 210 116 29 25 41 74 62 57 5 9 6 14 16 56 83 98 107 102 114 71 3 0 0 0 0 0 0 56 23 0 0 0 0
0 0 0 0 0 0 0 0 0 0 0 103 90 125 473 271 75 24 4 4 11 20 8 30 14 22 13 22 29 19 27 77 72 44 119 22 0 0 2 0 0 0 0 0 0 0 0 0 0
0 0 0 0 0 0 0 0 0 0 76 554 571 553 352 138 35 13 2 3 1 8 40 27 27 31 19 26 20 24 14 41 12 43 60 22 0 0 0 0 0 0 0 0 0 0 0 0 0
0 0 0 0 0 0 0 0 0 0 87 47 140 46 32 26 19 8 4 2 5 22 30 24 57 31 15 0 13 5 5 39 7 10 68 20 0 0 0 0 0 0 0 3 12 0 0 0 0
0 0 0 0 0 0 0 0 0 0 74 69 2 0 1 1 0 3 1 6 1 12 7 17 26 16 11 7 4 9 8 17 4 23 36 46 27 5 0 6 20 1 2 13 4 0 0 0 0
0 0 0 0 0 0 0 0 0 0 3 63 46 2 1 0 0 1 0 4 3 14 5 4 23 23 11 23 18 6 16 10 13 48 72 53 31 4 6 32 27 18 25 42 37 25 23 21 7
0 0 0 0 0 0 0 0 0 0 0 0 0 9 0 0 0 2 7 1 4 9 4 1 22 10 12 7 2 1 22 33 20 18 78 98 77 47 28 13 16 15 38 34 35 40 33 48 54
0 0 0 0 0 0 0 0 0 0 0 0 0 0 0 0 0 10 10 1 0 2 3 3 1 20 10 11 9 17 12 2 7 6 45 91 50 43 56 8 0 11 18 23 29 35 41 40 38
0 0 0 0 0 0 0 0 0 0 0 0 0 0 0 0 0 0 0 1 0 0 0 1 3 9 12 10 3 5 2 6 2 36 27 36 33 31 51 32 9 0 4 2 1 13 24 19 15
0 0 0 0 0 0 0 0 0 0 0 0 0 0 0 0 0 0 0 1 0 0 0 0 0 2 1 5 3 7 9 4 0 1 0 38 31 28 12 23 33 48 27 6 9 3 5 21 10
0 0 0 0 0 0 0 0 0 0 0 0 0 0 0 0 0 0 0 0 0 0 0 0 1 0 2 3 1 6 0 4 13 1 0 2 20 41 27 38 64 74 61 53 19 21 58 63 29
0 0 0 0 0 0 0 0 0 0 0 0 0 0 0 0 7 0 0 1 2 0 0 0 0 0 0 0 0 2 3 8 13 5 1 0 55 70 70 102 117 94 80 54 88 82 100 94 71
0 0 0 0 0 0 0 0 0 0 0 0 0 0 0 0 3 13 0 0 2 1 0 0 0 0 0 0 0 2 0 0 3 31 0 3 1 34 33 70 84 74 74 76 78 87 78 62 42
0 0 0 0 0 0 0 0 0 0 0 0 0 0 0 0 0 32 16 0 0 2 0 0 0 0 0 0 0 0 0 0 0 2 3 0 0 0 5 20 33 36 61 56 87 91 49 25 45
0 0 0 0 0 0 0 0 0 0 0 0 0 0 0 0 0 11 25 25 0 0 0 0 0 0 0 0 0 0 0 0 0 0 0 0 0 0 0 0 4 13 25 48 74 149 130 28 73
0 0 0 0 0 0 0 0 0 0 0 0 0 0 0 9 0 0 24 45 21 3 2 0 0 0 0 0 0 0 0 0 0 0 0 0 0 0 0 0 0 5 10 50 83 172 109 48 59
0 0 0 0 0 0 0 0 0 0 0 0 0 0 0 0 0 4 19 38 66 60 52 28 5 0 0 0 0 0 0 0 0 0 0 0 0 0 0 0 0 0 6 83 101 64 45 50 56
0 0 0 0 0 0 0 0 0 0 0 0 0 0 0 0 0 8 16 32 46 69 93 119 85 15 0 0 0 0 0 0 0 0 0 0 0 0 0 0 0 0 0 0 23 12 60 86 39
0 0 0 0 0 0 0 0 0 0 0 0 0 0 0 0 0 0 16 18 39 55 74 91 126 158 81 15 0 0 0 0 0 0 0 0 0 0 0 1 4 6 9 22 42 58 2 0 47

GFSSGP_con_mucape_090.txt.gz
CAPE
0 0 0 0 0 0 0 0 0 0 0 0 0 0 12 17 1 0 214 294 1221 1746 1815 1564 1808 1874 1965 2020 2020 1965 2090 2103 1971 1689 1702 1742 1873 1786 1561 1346 1167 966 716 114 42 57 32 30 18
0 0 0 0 0 0 0 0 0 0 0 0 0 1 37 9 77 259 455 758 410 1392 1921 1786 1682 1689 1577 2001 2089 2103 2241 2150 1863 1848 1878 1855 1842 1706 1440 1159 834 660 426 14 20 51 31 24 18
0 0 0 0 0 0 0 0 0 0 0 0 0 21 23 2 406 406 734 643 789 865 1914 1824 1527 1441 1732 1890 2096 1838 2227 1946 1808 1812 1960 1930 1765 1506 1226 803 499 443 309 11 12 15 23 10 13
0 0 0 0 0 0 0 0 0 0 0 0 0 7 20 58 247 419 462 817 831 1010 1470 1605 1468 1333 1551 1886 1865 1479 1573 1749 1738 1768 1832 1760 1598 1397 984 648 446 421 327 15 14 15 12 9 3
0 0 0 0 0 0 0 0 0 0 0 0 0 3 75 131 189 281 487 834 1119 994 1421 1129 1149 837 518 747 1038 1418 1683 1641 1653 1671 1571 1568 1493 1245 800 597 560 547 403 12 3 4 2 3 1
0 0 0 0 0 0 0 0 0 0 0 0 6 22 62 319 311 511 861 1011 1076 1231 1291 1140 913 939 568 442 68 565 1441 1490 1445 1409 1424 1458 1263 981 733 613 645 560 273 6 4 2 1 0 0
0 0 0 0 0 0 0 0 0 0 0 0 13 5 11 360 429 1024 1011 1068 912 882 926 920 928 1023 219 11 2 12 1249 1352 1267 1096 1162 1065 857 663 731 572 499 430 99 0 1 2 1 0 0
0 0 0 0 0 0 0 0 0 0 0 38 34 4 0 328 750 998 976 999 755 528 697 738 701 418 452 201 120 63 848 930 981 878 918 781 621 539 305 232 341 212 51 0 0 0 0 0 0
0 0 0 0 0 0 0 0 0 0 0 12 41 58 82 426 739 769 776 967 918 511 379 207 433 325 146 155 308 129 239 406 569 703 702 622 810 459 235 127 218 145 28 0 0 0 0 0 0
0 0 0 0 0 0 0 0 0 0 0 0 0 52 74 548 584 582 676 754 582 720 474 173 196 446 177 216 273 201 143 202 702 878 783 685 636 392 148 163 218 100 0 0 0 0 0 0 0
0 0 0 0 0 0 0 0 0 0 0 2 0 0 143 512 603 607 511 528 342 397 340 177 46 83 49 240 269 324 117 143 244 464 592 550 484 306 55 179 257 93 0 0 0 0 0 0 0
0 0 0 0 0 0 0 0 0 0 0 0 6 20 117 530 592 575 406 235 179 179 233 50 42 31 13 5 70 113 78 116 97 111 137 629 202 100 50 87 102 54 0 0 0 0 4 0 0
0 0 0 0 0 0 0 0 0 0 0 0 17 2 185 565 617 187 75 34 47 54 67 44 37 75 21 7 36 35 110 126 84 84 103 125 184 53 4 54 63 66 48 39 19 21 17 0 0
0 0 0 0 0 0 0 0 0 0 0 10 125 207 626 527 265 9 6 1 12 27 7 10 2 15 2 3 14 3 54 76 75 75 33 62 93 60 3 14 0 34 96 102 41 24 1 0 0
0 0 0 0 0 0 0 0 0 0 0 48 364 464 359 215 72 4 4 9 14 15 5 5 21 10 15 15 19 34 2 70 29 7 9 18 101 21 12 2 0 0 0 13 10 8 0 0 0
0 0 0 0 0 0 0 0 0 0 0 29 84 145 143 120 104 2 6 16 17 1 0 2 5 12 8 4 0 4 81 13 25 3 16 26 54 23 6 13 0 0 0 0 0 0 0 0 0
0 0 0 0 0 0 0 0 0 0 0 4 42 143 188 129 117 1 5 23 13 2 4 0 5 3 0 1 0 3 14 19 14 4 8 59 65 28 5 11 1 1 0 0 0 0 0 0 0
0 0 0 0 0 0 0 0 0 0 0 0 34 128 193 165 125 0 3 16 17 5 8 13 0 3 0 14 6 20 25 8 2 11 2 97 70 44 11 11 8 6 7 17 23 13 17 20 12
0 0 0 0 0 0 0 0 0 0 0 0 15 40 162 199 80 0 2 9 0 0 0 1 0 10 0 8 18 16 7 16 25 2 59 80 68 70 99 41 36 6 36 30 35 31 39 52 55
0 0 0 0 0 0 0 0 0 0 0 0 1 56 160 217 35 0 2 16 9 0 0 0 0 0 1 3 15 21 28 11 8 1 77 112 114 90 147 102 69 85 43 30 10 18 46 49 50
0 0 0 0 0 0 0 0 0 0 0 0 0 0 95 259 126 0 0 6 1 0 0 0 0 0 0 0 2 1 9 5 15 7 0 94 111 115 95 95 89 90 82 75 72 86 134 131 38
0 0 0 0 0 0 0 0 0 0 0 0 0 4 59 208 157 7 0 0 12 22 0 0 0 0 1 4 2 0 3 3 1 1 0 24 102 99 85 87 83 101 98 92 134 145 181 166 171
0 0 0 0 0 0 0 0 0 0 0 0 0 0 41 204 192 62 3 0 2 7 25 25 0 0 1 0 0 0 0 14 5 0 5 4 32 32 38 67 83 93 117 126 172 161 179 157 191
0 0 0 0 0 0 0 0 0 0 0 0 0 0 12 144 195 91 19 0 0 3 6 27 24 0 0 0 0 1 3 7 0 5 3 0 0 1 27 49 99 121 124 127 186 227 216 208 198
0 0 0 0 0 0 0 0 0 0 0 0 0 0 22 108 187 167 33 1 0 3 7 13 13 0 0 0 0 0 3 6 26 36 8 7 30 40 58 86 105 138 211 293 349 316 319 364 344
0 0 0 0 0 0 0 0 0 0 0 0 0 0 1 91 209 273 95 55 0 0 5 5 4 0 0 18 0 28 20 0 22 46 59 36 56 94 80 110 122 160 202 267 229 234 244 255 305
0 0 0 0 0 0 0 0 0 0 0 0 0 0 0 66 213 331 236 101 52 0 0 7 8 9 3 0 16 6 22 21 16 15 37 52 25 46 103 62 64 50 47 50 69 107 169 284 405
0 0 0 0 0 0 0 0 0 0 0 0 0 0 2 131 218 279 383 209 146 33 0 0 0 0 4 15 13 13 14 16 17 15 10 11 11 1 10 16 25 17 9 27 86 188 209 239 322
0 0 0 0 0 0 0 0 0 0 0 0 0 0 6 190 313 287 312 330 216 117 21 8 1 0 0 1 5 9 9 10 10 12 14 4 3 1 0 0 11 21 14 75 148 197 168 92 31
0 0 0 0 0 0 0 0 0 0 0 0 2 0 0 73 257 326 311 317 319 227 74 37 21 26 8 0 1 2 4 6 7 4 6 11 6 7 3 3 1 2 17 59 133 43 0 2 4

GFSSGP_con_mucape_093.txt.gz
CAPE
0 0 0 0 0 0 0 0 0 0 0 0 0 0 0 0 0 9 428 562 903 1123 1761 1700 1844 2031 2343 2172 1852 2059 2154 2208 2052 1863 1888 1863 1859 1756 1680 1559 1354 1231 964 234 28 67 41 9 6
0 0 0 0 0 0 6 0 0 0 0 0 0 0 0 4 17 21 264 1161 788 882 1780 1977 1730 1894 2176 1849 1985 2072 2266 2293 2041 1949 2024 2082 1859 1870 1724 1479 1164 1008 841 248 138 70 30 10 18
0 0 0 0 0 0 0 0 0 0 0 0 0 0 0 0 22 60 937 745 725 880 1382 2100 1648 1696 1851 1738 1748 1857 2042 1691 1862 1890 2083 2163 2054 1928 1616 1219 877 746 745 405 168 84 30 5 12
0 0 0 0 0 0 0 0 0 0 0 0 0 0 7 0 50 263 605 716 830 739 1009 1774 1677 1561 1728 1575 1994 1939 1653 1208 1698 1773 2028 2187 2001 1741 1298 830 637 614 566 356 125 29 8 0 0
0 0 0 0 0 0 0 0 0 0 0 0 0 0 10 50 139 281 449 839 1113 1148 962 1808 1625 1513 1242 1265 698 562 1088 1046 1511 1723 1873 1917 1765 1362 1010 715 529 340 333 183 12 16 5 0 0
0 0 0 0 0 0 0 0 0 0 0 0 0 3 3 283 354 477 921 1093 1237 1341 1358 1492 1208 946 987 925 332 19 81 517 1183 1605 1626 1564 1320 1058 821 638 502 296 148 49 12 8 2 0 0
0 0 0 0 0 0 0 0 0 0 0 0 7 7 7 142 464 1022 962 1119 1138 1182 1186 1275 1364 1270 734 513 179 27 128 97 368 1230 1244 1108 898 735 736 769 567 103 31 3 5 7 1 0 0
0 0 0 0 0 0 0 0 0 0 0 0 0 0 2 410 779 1072 942 1026 1069 1077 1073 1146 1033 1362 1333 811 107 41 7 90 313 774 1011 818 673 635 738 543 255 51 1 2 5 3 0 0 0
0 0 0 0 0 0 0 0 0 0 0 0 0 0 34 89 676 729 779 1036 1121 846 766 779 721 1017 787 504 97 48 2 7 108 611 846 722 839 838 652 392 134 40 1 2 3 1 0 0 0
0 0 0 0 0 0 0 0 0 0 0 0 0 21 30 146 499 634 728 787 777 1101 630 263 415 657 590 181 217 93 1 0 43 1048 794 1020 1045 798 513 231 74 23 4 1 0 0 0 0 0
0 0 0 0 0 0 0 0 0 0 0 0 0 0 18 181 407 697 641 685 556 594 600 259 194 328 380 271 219 114 25 20 105 939 697 796 1032 675 663 397 103 1 0 0 0 0 0 0 0
0 0 0 0 0 0 0 0 0 0 0 0 0 0 30 87 469 674 641 477 311 192 459 321 83 121 229 253 281 133 120 5 197 430 550 684 749 538 432 384 93 0 0 0 0 0 6 0 0
0 0 0 0 0 0 0 0 0 0 0 0 0 19 28 74 527 844 494 205 202 29 34 86 64 102 95 99 74 203 107 99 142 89 258 471 350 371 225 273 182 36 10 0 0 1 4 1 0
0 0 0 0 0 0 0 0 0 0 0 0 0 50 72 439 608 653 216 201 0 4 18 23 15 24 9 84 9 9 203 92 61 38 57 98 137 144 205 288 240 147 62 29 8 18 5 0 0
0 0 0 0 0 0 0 0 0 0 0 0 0 189 248 436 421 307 137 49 0 12 14 16 0 2 0 6 6 56 122 93 41 20 95 90 43 125 220 324 288 203 194 278 91 26 0 0 0
0 0 0 0 0 0 0 0 0 0 0 0 9 158 234 206 266 294 85 0 2 18 19 0 0 1 0 1 0 9 17 104 61 33 57 41 44 147 226 182 196 258 254 101 48 21 0 0 0
0 0 0 0 0 0 0 0 3 0 0 0 0 20 130 169 350 275 132 0 9 18 14 0 0 1 0 0 2 8 31 94 33 12 19 10 7 83 162 110 119 129 75 87 59 2 4 7 1
0 0 0 0 0 0 0 0 0 0 1 0 0 9 109 257 239 265 55 1 10 8 3 0 0 1 0 0 0 1 0 17 10 6 15 14 1 50 124 32 6 11 0 0 1 12 27 0 0
0 0 0 0 0 0 0 0 0 0 0 0 0 2 25 231 261 154 33 1 6 8 0 0 0 0 0 0 0 1 0 0 2 2 8 5 13 41 85 51 15 5 12 2 9 47 62 28 4
0 0 0 0 0 0 0 0 0 0 0 0 0 3 9 182 348 122 95 0 4 0 3 0 0 0 0 0 8 0 16 6 30 8 5 6 0 65 78 65 51 42 64 49 92 100 72 43 32
0 0 0 0 0 0 0 0 0 0 0 0 0 0 1 92 380 171 103 13 4 0 0 0 0 0 0 3 1 1 18 1 8 21 15 7 0 80 104 92 97 99 70 170 185 163 127 99 24
0 0 0 0 0 0 1 0 0 0 0 0 0 0 0 22 311 170 117 52 8 11 3 0 0 0 0 19 0 0 0 0 9 6 0 5 95 97 64 111 138 135 215 245 107 148 166 294 172
0 0 0 0 0 0 0 0 0 0 0 0 0 0 0 26 261 190 153 35 22 8 8 17 0 0 0 2 3 0 0 0 4 0 0 0 0 1 38 116 168 145 182 239 216 280 349 316 270
0 0 0 0 0 0 0 0 0 0 9 2 0 0 0 33 237 213 145 5 31 7 6 21 13 0 2 0 0 0 1 1 0 0 0 1 2 0 63 170 148 262 245 224 305 338 329 287 288
0 0 0 6 0 0 0 0 0 4 0 0 0 0 0 44 299 299 189 20 10 2 3 4 8 7 0 0 0 0 0 3 7 2 1 0 0 0 31 84 147 259 277 276 282 308 375 412 369
0 0 0 4 13 0 9 0 0 0 1 0 0 0 0 98 344 371 253 102 10 7 2 9 4 2 0 0 0 0 0 3 13 5 14 7 4 0 2 2 41 190 236 258 329 373 587 519 459
0 0 0 0 3 0 0 0 0 0 0 0 0 0 0 96 325 414 321 304 48 20 25 14 1 5 11 15 15 0 0 3 4 7 91 63 8 2 33 47 110 136 253 250 322 433 439 419 449
0 0 0 0 2 0 0 0 0 0 1 0 0 0 0 3 260 374 438 504 243 30 13 4 0 0 2 9 21 21 16 18 32 27 36 72 65 75 102 115 172 198 213 305 383 258 337 301 380
0 0 0 6 2 0 0 5 3 0 0 8 3 2 0 40 292 396 478 511 501 190 25 3 0 0 0 2 5 12 12 9 29 32 70 53 54 41 53 120 115 153 174 219 260 313 321 314 371
4 0 0 0 1 0 31 19 3 0 0 20 7 4 0 122 383 399 426 611 547 477 162 27 0 0 0 2 28 7 20 67 67 103 35 110 115 138 100 78 66 71 147 202 179 174 158 237 271

GFSSGP_con_mucape_096.txt.gz
CAPE
0 0 0 0 0 0 0 0 0 0 0 0 0 0 0 0 0 6 530 893 890 1296 1784 1714 1894 2256 2191 2044 1910 1989 2034 2094 1886 1984 1862 1838 1767 1692 1577 1544 1427 1359 1209 773 615 433 266 153 183
0 0 0 0 0 0 0 0 0 0 0 0 0 0 0 0 2 72 1174 1050 899 782 1815 2090 1806 2148 2304 2084 1970 2023 2221 2280 1996 2051 1929 1894 1860 1708 1685 1583 1276 1179 1056 527 442 337 151 29 144
0 0 0 0 0 0 0 0 0 0 0 0 0 0 0 0 2 39 879 571 673 764 1255 2189 1909 1908 2264 2094 2033 1962 1998 2039 1935 1947 2024 1942 1920 1844 1732 1403 1120 999 967 448 277 215 31 26 9
0 0 0 0 0 0 0 0 0 0 0 0 0 0 0 10 0 212 627 552 827 735 1319 1895 1734 1659 1880 2119 2002 1543 1381 1158 1516 1830 1892 1944 2055 1868 1526 1178 1066 1101 1014 619 213 70 1 0 0
0 0 0 0 0 0 0 0 0 0 0 0 0 0 0 0 39 220 450 830 1098 1337 1599 1777 1722 1599 1410 1662 1587 1097 480 322 792 1250 1185 1528 1669 1559 1144 951 920 909 820 647 157 34 13 0 0
0 0 0 0 0 0 0 0 0 0 0 0 0 0 0 95 92 539 992 1181 1570 1534 1584 1698 1559 1511 1402 1144 992 591 320 223 367 564 794 1400 1341 1039 848 798 735 618 520 306 167 40 3 0 0
0 0 0 0 0 0 0 0 0 0 0 0 0 0 0 198 767 1090 990 1314 1390 1320 1571 1791 1804 1374 929 1000 932 712 319 72 73 6 59 1065 788 607 681 665 550 357 196 122 67 2 0 0 0
0 0 0 0 0 0 0 0 0 0 0 0 0 0 0 671 995 1096 1070 1073 1419 1177 1424 1351 1302 1462 1425 678 776 553 178 45 0 0 10 402 347 436 546 378 267 181 115 22 4 0 0 0 0
0 0 0 0 0 0 0 0 0 0 0 0 0 0 0 101 640 628 868 1388 1592 1091 1230 905 1001 1241 1325 911 330 128 125 8 0 1 25 299 289 396 453 121 101 80 19 12 3 0 0 0 0
0 0 0 0 0 0 0 0 0 0 0 0 0 10 7 8 203 473 744 1096 1366 1488 1085 474 648 782 782 521 196 51 62 53 12 7 26 296 327 473 371 47 26 16 12 7 1 0 0 0 0
0 0 0 0 0 0 0 0 0 0 0 0 0 0 0 6 77 400 571 714 900 1079 707 424 343 536 541 243 160 53 14 7 3 5 6 273 382 341 210 13 11 4 2 0 0 0 0 0 0
0 0 0 0 0 0 0 0 0 0 0 0 0 0 0 0 37 218 728 609 333 749 813 472 369 217 197 263 105 56 12 0 3 10 9 240 264 310 102 0 0 0 0 0 0 0 0 0 0
0 0 0 0 0 0 0 0 0 0 0 0 0 0 0 0 8 739 690 468 313 341 471 453 87 114 90 68 96 87 6 0 39 54 77 181 143 229 79 8 0 0 0 0 0 0 0 0 0
0 0 0 0 0 0 0 0 0 0 0 0 0 0 0 0 72 710 759 223 229 15 134 116 25 40 32 74 55 92 49 0 18 57 181 112 108 111 72 0 0 0 0 0 0 0 0 0 0
0 0 0 0 0 0 0 0 0 0 0 0 0 0 0 0 337 435 597 126 25 15 5 26 5 5 0 29 23 10 64 8 62 95 81 122 100 87 25 27 0 3 0 0 1 0 0 0 0
0 0 0 0 0 0 0 0 0 0 0 0 0 0 0 34 70 231 248 43 0 3 3 25 0 3 4 23 2 0 27 5 32 39 8 36 49 58 52 94 49 29 8 0 23 3 0 0 0
0 0 0 0 0 0 0 0 0 2 0 0 0 0 10 46 112 356 158 58 3 10 11 11 0 1 0 0 0 0 1 17 1 7 11 38 31 48 120 102 117 80 99 70 17 0 0 0 0
0 0 0 0 0 0 0 0 0 0 7 0 0 0 10 60 102 438 130 14 0 0 8 0 5 3 0 0 0 0 36 16 34 9 2 13 13 66 94 56 69 78 56 23 2 0 0 0 0
3 2 0 0 0 0 2 0 0 0 0 1 0 1 0 58 195 352 116 1 0 2 10 0 0 0 0 0 0 0 0 31 11 16 7 3 14 45 60 49 44 19 35 25 8 0 0 0 0
8 9 1 0 0 0 0 0 0 0 0 0 0 0 14 38 462 166 72 0 0 2 2 0 0 0 0 0 0 1 7 1 8 3 9 6 6 2 29 47 51 44 32 4 0 0 0 1 2
5 10 6 1 0 0 0 0 0 0 0 0 0 0 1 19 427 184 103 0 0 2 2 12 0 2 0 5 0 10 8 1 2 8 8 12 5 7 4 43 45 38 11 11 25 3 13 5 21
6 0 0 0 0 1 0 0 0 0 0 0 0 0 0 0 483 220 124 1 0 2 4 7 0 0 0 10 8 17 7 14 7 3 6 10 9 3 38 50 62 33 47 48 40 38 43 46 34
0 2 6 5 0 0 0 0 0 0 0 0 0 0 0 0 446 274 103 38 0 3 12 9 2 0 0 5 0 0 0 27 25 12 11 11 16 7 6 8 67 74 76 58 92 74 69 79 173
5 19 14 0 0 0 0 0 0 0 0 0 1 0 0 2 379 266 140 25 0 0 6 11 6 5 0 0 0 0 0 0 1 6 15 7 8 3 0 0 85 95 48 54 71 64 87 149 208
5 7 0 0 0 0 0 0 0 0 0 3 1 0 4 26 369 241 117 8 19 0 1 5 10 3 0 0 0 0 0 0 2 0 0 2 6 3 0 0 0 0 36 43 42 61 89 165 137
11 5 0 0 0 0 41 0 0 0 0 0 0 0 23 89 448 259 151 7 36 2 1 41 12 3 1 0 0 0 0 0 1 0 7 2 1 3 8 0 0 42 31 44 74 117 132 160 176
32 0 3 14 37 0 0 0 47 0 0 0 0 0 56 99 312 305 272 42 8 2 0 1 7 9 4 0 0 0 0 0 0 2 2 14 10 2 3 1 3 4 0 51 88 109 122 168 127
13 4 27 45 0 0 0 5 2 4 3 0 1 4 20 98 291 332 315 219 33 22 0 0 0 2 1 5 0 0 0 0 3 5 4 0 0 2 7 4 11 4 18 53 81 66 116 99 68
0 0 0 10 3 0 0 0 9 0 1 1 22 53 33 47 231 400 369 420 114 43 9 6 0 0 0 2 7 9 0 0 2 2 2 2 0 0 0 0 2 2 4 5 42 48 77 86 92
49 0 0 0 0 40 0 0 0 5 0 0 0 3 9 31 245 379 414 605 407 106 14 13 0 0 0 2 2 7 7 0 2 2 1 2 7 0 0 0 25 13 14 44 51 65 75 85 75

GFSSGP_con_mucape_099.txt.gz
CAPE
0 0 0 0 0 0 0 0 0 0 0 0 0 0 0 0 0 1 486 576 1621 1636 1597 1958 2001 1883 1850 1918 1922 1990 2072 1963 2088 2005 1859 1730 1599 1518 1410 1291 1282 1566 1526 900 625 657 699 695 735
0 0 0 0 0 0 0 0 0 0 0 0 0 0 0 0 334 749 817 636 1475 1707 1601 1708 2090 2004 1985 1937 2007 2047 2212 2053 2080 2026 1969 1835 1728 1607 1570 1485 1439 1496 1233 702 735 649 660 649 610
0 0 0 0 0 0 0 0 0 0 0 0 0 0 0 0 215 897 728 666 497 1559 1946 1938 1950 2164 2122 2012 1998 2071 2202 1959 1949 1927 2058 1969 1819 1833 1701 1359 1158 1215 1198 657 476 515 435 480 347
0 0 0 0 0 0 0 0 0 0 0 0 0 0 0 0 1 587 315 404 409 1060 1917 1911 1771 2063 2219 2164 2096 2132 2165 1891 1839 1828 1907 1971 1843 1917 1587 1187 989 1018 988 823 275 233 274 92 57
0 0 0 0 0 0 0 0 0 0 0 0 0 0 0 30 456 294 409 613 812 1401 1645 1703 1614 1777 2108 2371 2258 1831 1500 1725 1302 981 1048 1021 865 1476 1284 997 913 836 733 573 385 212 69 10 0
0 0 0 0 0 0 0 0 0 0 0 0 0 0 0 41 63 444 650 930 1014 1052 1540 1585 1567 1522 1536 1733 2169 1535 992 800 634 513 555 365 778 1033 1112 1050 928 776 636 426 249 78 42 0 0
0 0 0 0 0 0 0 0 0 0 0 0 0 0 11 257 345 559 865 954 880 867 1146 1500 1557 1423 1423 1282 1498 1245 893 664 513 442 322 113 335 516 932 858 811 692 518 292 119 37 3 3 0
0 0 0 0 0 0 0 0 0 0 0 0 0 0 0 648 530 540 825 871 822 959 1045 1015 1224 1101 1159 1086 1050 1058 731 332 349 170 76 59 59 243 501 519 534 472 338 166 46 14 12 0 0
0 0 0 0 0 0 0 0 0 0 0 0 0 0 4 765 726 544 565 852 895 796 949 789 732 776 1265 997 659 662 544 302 135 44 40 5 4 187 281 250 270 239 161 65 20 10 0 0 0
0 0 0 0 0 0 0 0 0 0 0 0 0 0 412 565 403 386 561 678 904 919 717 465 464 610 1129 853 522 357 310 192 50 1 0 1 1 132 218 150 125 80 52 37 3 0 0 0 0
0 0 0 0 0 0 0 0 0 0 0 0 0 0 0 207 184 219 355 422 934 840 724 278 312 476 557 312 138 85 54 27 25 20 7 4 22 180 159 23 4 1 5 0 0 0 0 0 0
0 0 0 0 0 0 0 0 0 0 0 0 0 0 0 0 4 74 204 293 641 810 409 178 91 230 191 116 30 12 17 35 17 9 5 0 50 124 87 11 2 2 0 0 0 0 0 0 0
0 0 0 0 0 0 0 0 0 0 0 0 0 0 0 0 0 59 312 347 339 532 343 127 92 9 0 58 53 38 14 12 16 18 1 9 75 33 0 0 1 0 0 0 0 0 0 0 0
0 0 0 0 0 0 0 0 0 0 0 0 0 0 0 0 4 532 461 413 235 231 233 85 2 12 10 34 54 41 3 0 18 0 7 13 94 13 6 0 0 0 0 0 0 0 0 0 0
0 0 0 0 0 0 0 0 0 0 0 0 0 0 0 0 19 572 551 483 196 89 24 1 2 15 11 17 50 34 1 0 12 5 9 85 71 34 6 0 0 0 0 0 0 0 0 0 0
0 0 0 0 0 0 0 0 0 0 0 0 0 0 0 0 24 594 367 200 83 17 0 0 0 0 11 3 1 19 2 16 17 57 5 20 101 50 55 0 0 0 0 0 0 0 0 0 0
0 0 0 0 0 0 0 0 0 0 0 0 0 0 0 0 142 216 118 98 31 1 0 0 1 0 7 10 0 6 18 30 55 25 27 43 43 46 62 0 0 0 0 0 0 0 0 0 0
0 0 0 0 0 0 0 0 0 0 0 0 0 0 0 5 194 166 123 69 33 0 0 0 0 0 2 1 0 0 13 1 28 55 57 55 44 34 5 0 0 0 0 0 0 0 0 0 0
0 0 0 0 0 2 0 0 0 0 0 0 0 0 0 4 237 209 154 91 59 0 0 0 0 1 0 0 0 0 0 9 7 3 34 28 46 56 43 0 0 0 0 0 1 0 0 0 0
0 0 0 0 0 10 0 0 0 0 0 0 0 0 0 148 280 212 185 113 43 0 0 0 0 0 0 0 0 0 0 12 14 5 28 25 41 54 57 20 26 5 10 10 26 0 0 0 0
0 0 0 0 0 0 7 0 0 0 0 0 0 0 0 219 292 206 151 98 0 0 0 0 0 0 0 0 3 2 6 0 37 12 12 3 3 21 36 31 15 13 50 45 35 1 4 2 0
0 0 0 0 0 0 2 0 0 0 0 0 0 0 0 149 216 190 122 91 0 0 0 2 0 0 0 0 0 0 0 0 7 5 20 6 4 5 4 29 51 39 49 61 59 22 8 0 4
0 0 0 0 0 0 5 0 0 0 0 0 0 0 0 193 167 197 148 93 0 0 2 2 0 0 1 0 0 0 0 0 3 3 6 7 4 7 5 1 1 26 44 76 30 4 26 8 7
0 0 0 0 0 0 0 0 0 0 0 0 0 0 0 167 173 220 191 75 0 0 1 1 1 5 4 3 0 0 0 0 2 7 10 10 12 0 7 8 4 0 0 0 63 52 55 40 59
0 0 0 1 0 0 0 0 0 0 0 0 0 0 0 171 218 234 208 72 0 0 2 1 3 8 6 5 0 0 0 0 5 20 15 9 5 2 3 20 4 1 2 72 65 47 63 27 26
0 0 0 0 0 0 8 0 0 0 0 0 0 0 71 220 282 225 174 89 4 0 0 2 1 2 5 3 10 0 0 0 0 13 2 18 14 4 8 5 0 1 0 59 49 47 31 39 38
0 0 0 0 0 0 0 0 0 0 0 0 0 2 241 320 273 202 154 138 14 0 0 0 1 0 5 6 1 0 0 0 0 0 0 23 15 20 20 8 0 0 40 50 51 41 33 30 53
1 8 0 11 0 0 0 0 0 0 0 0 0 0 101 282 244 212 189 181 95 0 0 0 0 1 3 4 4 3 1 0 0 0 0 5 0 9 18 14 2 0 1 30 28 10 24 35 29
0 6 10 0 0 0 0 0 10 12 0 0 0 0 21 242 302 237 232 231 193 77 5 0 0 0 0 3 5 6 0 0 0 0 2 4 0 0 4 15 12 4 5 4 5 11 10 25 28
7 3 0 1 0 0 0 0 69 14 1 0 0 0 2 0 176 320 328 271 262 201 25 0 0 0 0 0 3 3 1 0 0 0 0 3 0 0 0 0 1 2 0 0 0 0 4 25 22

GFSSGP_con_mucape_102.txt.gz
CAPE
0 0 0 0 0 0 0 0 0 0 0 0 0 0 0 0 0 0 502 867 1333 1415 1751 1592 1593 1764 1833 1908 1949 1991 1983 2107 2082 1942 1776 1675 1575 1485 1393 1397 1441 1655 1664 1127 1126 1285 1102 901 1007
0 0 0 0 0 0 0 0 0 0 0 0 0 0 0 0 233 270 301 1289 1431 1374 1745 1790 1548 1757 1957 2008 2051 2122 2171 2233 2176 1985 1846 1742 1672 1553 1520 1521 1413 1484 1510 677 907 1165 1031 1018 881
0 0 0 0 0 0 0 0 0 0 0 0 0 0 0 0 449 389 514 1169 1704 1438 1569 1897 1658 1718 1946 2004 2073 2138 2151 2170 2096 1947 1895 1837 1747 1702 1741 1659 1429 1168 1030 538 1051 953 985 874 668
0 0 0 0 0 0 0 0 0 0 0 0 0 0 0 0 485 728 385 799 1668 1534 1516 1742 1869 1761 1971 2070 2144 2230 2207 2101 2015 1904 1879 1824 1908 1880 1747 1482 1309 1216 1290 986 941 1110 874 571 431
0 0 0 0 0 0 0 0 0 0 0 0 0 0 0 47 326 457 267 323 894 1653 1716 1587 1890 1941 2087 2191 2210 2200 2132 2005 1977 1613 1295 1008 1029 1051 1143 1264 1224 1111 1008 838 878 726 361 193 93
0 0 0 0 0 0 0 0 0 0 0 0 0 0 0 181 171 192 313 596 996 1300 1569 1524 1543 1904 2185 2247 2146 2034 1759 1627 1513 996 251 114 298 222 477 1079 990 766 624 455 585 332 124 29 0
0 0 0 0 0 0 0 0 0 0 0 0 0 0 0 98 91 395 605 680 857 1200 1303 1379 1391 1469 1714 2081 2221 1920 1607 1374 997 750 233 163 268 143 362 507 722 676 500 485 378 142 45 1 0
0 0 0 0 0 0 0 0 0 0 0 0 0 0 0 7 315 628 676 700 532 924 1185 1284 1304 1312 1295 1257 1606 1886 1354 1062 618 437 205 70 52 59 246 354 654 554 431 350 226 80 0 0 0
0 0 0 0 0 0 0 0 0 0 0 0 0 0 0 179 485 641 644 654 521 714 763 1082 1120 978 942 956 1107 1320 1120 655 449 235 89 40 3 73 195 201 444 461 316 214 64 13 0 0 0
0 0 0 0 0 0 0 0 0 0 0 0 0 115 337 381 466 539 542 648 627 746 720 663 551 524 917 931 816 787 856 455 325 111 81 53 25 20 82 116 274 312 211 95 19 8 0 0 0
0 0 0 0 0 0 0 0 0 0 0 0 0 81 485 438 333 363 406 586 678 651 687 463 360 605 1000 890 550 397 979 357 188 103 64 40 16 38 28 104 136 91 70 6 1 0 0 0 0
0 0 0 0 0 0 0 0 0 0 0 0 0 0 400 397 281 232 273 418 678 729 677 507 239 382 722 444 273 246 380 207 134 83 65 15 1 13 81 85 49 54 0 0 0 0 0 0 0
0 0 0 0 0 0 0 0 0 0 0 0 0 0 34 90 95 87 154 235 633 786 641 199 150 286 272 184 59 8 33 38 39 39 44 35 50 5 78 8 30 1 0 0 0 0 0 0 0
0 0 0 0 0 0 0 0 0 0 0 0 0 0 0 0 11 15 87 322 520 594 267 108 38 35 16 20 44 22 6 28 51 46 54 39 69 81 11 1 3 0 0 0 0 0 0 0 0
0 0 0 0 0 0 0 0 0 0 0 0 0 0 0 0 1 164 220 246 320 287 206 58 35 0 0 31 30 18 11 1 0 15 23 26 25 56 10 9 0 0 0 0 0 0 0 0 0
0 0 0 0 0 0 0 0 0 0 0 0 0 0 0 0 107 245 292 304 313 261 56 4 0 0 8 0 14 17 7 0 4 3 0 38 47 82 42 6 0 0 0 0 0 0 0 0 0
0 0 0 0 0 0 0 0 0 0 0 0 0 0 0 0 92 385 434 467 364 108 2 0 0 0 2 4 3 18 7 16 49 29 4 28 6 42 26 0 0 0 0 0 0 0 0 0 0
0 0 0 0 0 0 0 0 0 0 0 0 0 0 0 0 204 506 446 364 215 61 3 0 0 0 1 26 3 12 14 18 57 15 0 40 11 9 4 0 0 0 0 0 0 0 0 0 0
0 0 0 0 0 0 0 0 0 0 0 0 0 0 0 0 215 563 371 270 130 83 7 0 0 0 1 3 3 0 10 2 25 49 3 56 9 43 23 0 0 0 0 0 0 0 0 0 0
0 0 0 0 0 0 0 0 0 0 0 0 0 0 0 31 177 396 272 181 114 124 0 0 0 0 1 2 0 0 0 16 14 22 8 55 6 61 54 0 0 0 0 0 0 0 0 0 0
0 0 0 0 0 0 0 0 0 0 0 0 0 0 0 22 123 297 240 181 193 123 0 0 0 0 0 3 0 0 0 4 8 11 2 31 27 50 71 0 0 0 0 1 0 0 0 0 0
0 0 0 0 0 0 0 0 0 0 0 0 0 0 0 11 37 288 258 215 219 77 0 0 0 0 0 1 1 0 1 0 4 11 24 49 49 50 36 5 1 0 0 17 23 15 0 0 1
0 0 0 0 0 0 0 0 0 0 0 0 0 0 0 47 49 221 281 258 187 16 0 0 0 0 0 0 1 6 0 0 0 2 5 29 37 32 45 60 100 79 51 60 62 44 15 0 0
0 0 0 0 0 0 0 0 0 0 0 0 0 0 0 31 59 161 314 266 152 25 0 0 0 0 0 0 0 5 8 0 0 2 6 2 6 13 3 7 42 70 72 38 57 72 9 0 0
0 0 0 0 0 0 0 0 0 0 0 0 0 0 0 0 57 149 335 228 137 24 0 0 0 0 0 0 1 4 8 0 0 6 2 3 2 6 12 8 26 33 26 6 55 33 18 22 18
0 0 0 0 0 0 0 0 0 0 0 0 0 0 0 5 60 184 267 243 150 9 0 0 0 0 2 0 0 0 0 1 0 7 18 4 4 3 13 6 3 9 6 13 41 0 4 40 33
0 0 0 0 17 0 4 0 0 2 0 1 0 0 1 115 160 303 310 266 136 0 0 0 0 0 1 2 0 0 0 0 0 0 7 10 23 6 6 7 5 4 7 1 73 1 44 27 35
0 0 4 5 0 0 0 0 0 6 0 1 0 0 99 209 254 336 374 270 150 26 0 0 0 0 0 5 0 0 0 0 0 0 4 12 5 3 5 4 20 16 7 11 7 1 45 30 13
0 0 13 12 1 0 0 0 10 30 0 1 0 0 0 0 244 364 411 269 180 60 0 0 0 0 2 1 2 0 0 0 0 0 0 4 0 10 20 23 22 17 0 0 4 0 10 17 17
0 0 3 0 0 0 0 0 45 53 16 0 0 0 0 0 0 134 310 295 215 178 56 0 0 0 0 0 1 2 1 2 0 0 0 0 0 3 11 14 19 18 8 0 0 5 7 17 6

GFSSGP_con_mucape_105.txt.gz
CAPE
0 0 0 0 0 0 0 0 0 0 0 0 0 0 0 0 0 0 11 1006 1104 1351 1475 1347 1553 1727 1735 1846 1832 1977 2012 2098 2086 1960 1893 1942 1961 1904 1886 1950 1909 1849 1716 1338 1364 1555 1377 1139 1176
0 0 0 0 0 0 0 0 0 0 0 0 0 0 0 0 23 280 455 880 1167 1411 1519 1349 1475 1685 1826 1885 1985 2043 2183 2161 2040 1994 1925 1895 1901 1884 1905 1924 1793 1563 1004 1546 1453 1389 1112 1168 1127
0 0 0 0 0 0 0 0 0 0 0 0 0 0 0 0 113 263 271 1212 1179 1424 1596 1446 1447 1613 1847 1934 2015 2120 2206 2136 2010 1952 1931 1842 1787 1777 1856 1798 1688 1498 990 900 1510 1368 1057 967 703
0 0 0 0 0 0 0 0 0 0 0 0 0 0 0 0 35 227 302 1421 1318 1276 1589 1710 1448 1534 1851 2014 2077 2149 2237 2112 1995 1951 1849 1875 1740 1900 1853 1603 1421 1279 1121 1494 1396 1006 890 632 450
0 0 0 0 0 0 0 0 0 0 0 0 0 0 0 9 191 450 586 1542 1401 1233 1343 1633 1524 1510 1887 2145 2169 2113 2122 1991 1869 1426 953 826 1206 1204 1234 1210 1313 1246 1141 1333 1050 748 644 404 177
0 0 0 0 0 0 0 0 0 0 0 0 0 0 0 4 368 409 319 1267 1311 1310 1348 1368 1651 1559 1804 2043 2083 2057 1982 1878 1586 1007 893 876 623 572 612 708 903 995 737 628 595 477 444 96 15
0 0 0 0 0 0 0 0 0 0 0 0 0 0 0 39 236 214 178 623 1136 1410 1558 1408 1570 1738 1876 1948 1938 1924 1872 1610 993 623 569 389 386 306 325 257 419 479 592 628 445 335 140 9 0
0 0 0 0 0 0 0 0 0 0 0 0 0 0 0 59 74 282 400 535 823 1048 1270 1309 1302 1414 1723 1880 1992 1848 1740 1421 821 346 157 207 171 133 31 182 269 338 507 482 343 180 48 3 0
0 0 0 0 0 0 0 0 0 0 0 0 0 0 0 0 309 444 491 479 543 767 871 1045 1149 1173 1197 1262 1465 1843 1646 980 722 415 158 125 133 171 183 120 174 282 368 352 252 81 1 0 0
0 0 0 0 0 0 0 0 0 0 0 0 0 16 2 158 374 450 463 396 294 363 660 901 1020 1023 956 791 903 1028 1352 921 462 396 193 73 69 123 69 66 140 210 287 213 131 6 3 0 0
0 0 0 0 0 0 0 0 0 0 0 0 0 0 117 188 367 343 354 338 296 295 477 607 667 562 563 721 736 748 725 990 505 309 164 53 72 46 0 7 92 115 125 36 3 3 11 0 0
0 0 0 0 0 0 0 0 0 0 0 0 0 0 143 178 330 351 299 222 318 355 517 527 366 317 492 636 650 416 414 547 461 298 114 54 53 45 5 89 145 71 8 0 0 0 8 0 0
0 0 0 0 0 0 0 0 0 0 0 0 0 0 124 186 227 277 289 147 305 392 465 555 340 240 468 623 522 265 194 266 232 206 76 69 52 32 21 103 134 73 0 0 0 0 1 0 0
0 0 0 0 0 0 0 0 0 0 0 0 0 0 0 116 203 198 234 208 184 434 538 584 353 166 403 328 160 106 85 77 75 103 96 64 50 28 42 77 83 103 36 0 0 0 0 0 0
0 0 0 0 0 0 0 0 0 0 0 0 0 0 0 0 7 141 134 123 209 337 622 536 125 73 46 14 21 29 57 35 20 35 66 77 55 34 78 79 56 84 42 0 0 0 0 0 0
0 0 0 0 0 0 0 0 0 0 0 0 0 0 0 0 0 0 42 103 273 498 630 223 59 0 0 0 5 17 17 32 16 12 3 58 40 40 74 22 19 67 29 0 0 0 0 0 0
0 0 0 0 0 0 0 0 0 0 0 0 0 0 0 0 0 0 4 79 302 442 312 198 13 0 0 0 10 18 11 11 0 4 16 6 2 69 39 29 2 58 0 0 0 0 0 0 0
0 0 0 0 0 0 0 0 0 0 0 0 0 0 0 0 0 5 61 121 305 346 275 98 3 0 0 0 4 20 14 15 0 44 48 3 3 5 47 12 25 71 0 0 0 0 0 0 0
0 0 0 0 0 0 0 0 0 0 0 0 0 0 0 0 3 143 174 237 303 379 251 42 13 0 0 2 4 11 37 3 16 44 35 10 7 9 36 29 11 2 0 0 0 0 0 0 0
0 0 0 0 0 0 0 0 0 0 0 0 0 0 0 0 10 190 241 373 421 333 155 31 18 0 0 0 0 0 0 6 5 13 35 15 8 11 44 52 32 0 0 0 0 0 0 0 0
0 0 0 0 0 0 0 0 0 0 0 0 0 0 0 0 0 81 301 461 392 293 137 52 0 0 0 0 0 0 0 0 10 5 14 16 9 35 71 67 14 0 0 0 0 0 0 0 0
0 0 0 0 0 0 0 0 0 0 0 0 0 0 0 0 0 9 317 396 357 267 116 77 0 0 0 0 0 0 0 0 0 0 6 15 44 47 57 65 0 0 0 0 0 0 0 0 0
0 0 0 0 0 0 0 0 0 0 0 0 0 0 0 0 2 7 70 290 280 233 141 72 0 0 0 0 0 0 0 0 0 8 2 15 56 55 57 38 14 0 0 0 0 0 0 0 0
0 0 0 0 0 0 0 0 0 0 0 0 0 0 0 0 0 0 19 129 275 218 182 57 0 0 0 0 0 1 0 0 0 15 1 9 38 24 31 56 22 6 7 23 20 48 42 14 3
0 0 0 0 0 0 0 0 0 0 0 0 0 0 0 0 0 0 27 93 239 235 183 5 0 7 0 0 0 0 3 3 2 0 11 21 24 7 9 50 31 0 41 72 107 108 100 100 14
0 0 0 0 0 0 0 0 0 0 15 1 0 0 0 0 0 0 26 85 237 263 178 0 0 5 0 0 0 0 1 0 2 0 11 21 16 17 13 5 5 15 35 53 79 100 99 11 20
0 0 0 0 0 0 0 0 0 0 7 21 1 0 0 109 60 8 10 57 182 306 176 0 0 0 0 0 0 0 0 1 5 1 20 20 14 10 18 19 14 47 36 49 48 35 24 11 5
0 0 0 0 0 0 0 0 0 1 0 28 17 0 0 0 0 30 43 18 164 260 107 0 0 0 0 0 0 0 0 0 0 3 4 20 14 6 21 5 10 13 21 41 45 22 28 36 5
0 0 0 0 0 0 0 0 0 0 19 10 18 0 0 0 0 0 75 78 294 195 73 0 0 0 0 0 0 0 0 0 0 0 5 12 0 0 3 5 4 7 43 13 24 29 34 0 0
0 0 0 0 0 0 0 0 48 67 14 7 0 0 0 0 0 8 8 187 269 196 84 0 1 0 0 0 0 0 0 0 0 0 0 4 1 4 0 4 0 9 13 22 11 11 16 2 18

GFSSGP_con_mucape_108.txt.gz
CAPE
0 0 0 0 0 0 0 0 0 0 0 0 0 0 0 0 0 0 0 761 759 1012 1117 1252 1360 1646 1684 1761 1817 1964 2151 2348 2331 2245 2154 2094 2046 2009 2120 2067 1956 1970 1947 1644 1640 1960 1665 1396 1289
0 0 0 0 0 0 0 0 0 0 0 0 0 0 0 0 0 37 85 828 1009 1142 1195 1245 1397 1585 1733 1777 1826 1993 2298 2378 2410 2037 2221 2177 2129 2144 2197 2061 1916 1919 1779 1645 1606 1591 1533 1308 1273
0 0 0 0 0 0 0 0 0 0 0 0 0 0 0 0 2 28 49 775 1132 1313 1235 1193 1382 1531 1688 1825 1896 1949 2154 2189 2198 2200 2159 2256 2195 2220 2137 1851 1697 1699 1827 1635 1530 1415 1338 1148 908
0 0 0 0 0 0 0 0 0 0 0 0 0 0 0 0 5 77 101 1031 1193 1322 1322 1225 1341 1489 1725 1890 1961 2063 2140 1995 1937 1688 1899 2016 2179 1983 1410 1557 1413 1474 1628 1414 1434 1340 1019 773 513
0 0 0 0 0 0 0 0 0 0 0 0 0 0 0 0 25 179 280 1139 1093 1245 1443 1333 1327 1418 1781 2015 2021 2046 2018 1920 1871 1537 1329 1114 1386 1246 1397 1333 1059 1261 1240 1220 1204 1067 836 487 371
0 0 0 0 0 0 0 0 0 0 0 0 0 0 0 0 103 246 648 1213 1089 1183 1363 1452 1424 1358 1687 1955 1877 1810 1893 1788 1394 1171 1040 945 971 924 825 766 1045 894 1070 861 891 731 552 357 323
0 0 0 0 0 0 0 0 0 0 0 0 0 0 0 0 35 323 522 1255 1221 1153 1178 1372 1522 1368 1554 1798 1869 1600 1630 1359 954 899 704 689 561 594 670 613 760 742 743 641 517 380 267 267 209
0 0 0 0 0 0 0 0 0 0 0 0 0 0 0 0 20 243 305 826 1207 1170 1252 1274 1457 1509 1475 1844 1805 1729 1545 960 700 536 363 150 240 254 346 436 514 605 532 501 385 221 151 112 74
0 0 0 0 0 0 0 0 0 0 0 0 0 0 0 0 70 227 298 473 777 1064 1368 1357 1349 1533 1527 2354 1666 1741 1434 967 631 405 335 195 169 240 250 170 360 389 512 361 291 114 70 30 0
0 0 0 0 0 0 0 0 0 0 0 0 0 0 0 2 80 215 311 358 467 673 919 1146 1201 1204 1272 1388 1542 1830 1389 1117 623 264 104 97 97 29 27 56 238 341 377 261 150 99 26 9 0
0 0 0 0 0 0 0 0 0 0 0 0 0 0 0 5 80 189 210 268 276 416 606 804 961 982 980 968 1056 1050 1262 1131 789 488 89 43 84 90 48 92 205 199 212 92 46 63 5 0 0
0 0 0 0 0 0 0 0 0 0 0 0 0 0 0 21 71 145 200 253 251 242 266 556 782 819 738 617 822 386 826 925 751 563 152 58 66 47 43 44 129 143 114 63 0 11 2 0 0
0 0 0 0 0 0 0 0 0 0 0 0 0 0 0 0 9 73 102 73 192 249 215 326 552 495 301 609 535 733 339 332 520 424 230 112 42 44 34 51 140 100 64 66 1 7 3 0 0
0 0 0 0 0 0 0 0 0 0 0 0 0 0 0 0 0 1 61 85 101 225 248 403 475 400 445 396 115 307 192 198 295 231 207 128 75 44 41 62 108 83 60 29 0 0 3 6 0
0 0 0 0 0 0 0 0 0 0 0 0 0 0 0 0 0 0 4 12 82 140 205 388 532 474 244 234 288 120 219 86 102 145 113 137 61 43 65 38 50 78 32 0 0 6 5 9 0
0 0 0 0 0 0 0 0 0 0 0 0 0 0 0 0 0 0 0 0 0 79 157 361 530 476 133 201 295 59 60 76 49 38 51 91 76 62 61 67 118 76 46 0 0 7 2 3 0
0 0 0 0 0 0 0 0 0 0 0 0 0 0 0 0 0 0 0 0 0 19 141 367 570 362 70 8 1 8 17 8 14 1 11 54 50 19 26 58 73 93 74 0 1 0 7 0 0
0 0 0 0 0 0 0 0 0 0 0 0 0 0 0 0 0 0 0 0 10 24 183 468 563 191 4 0 2 16 8 13 7 6 6 20 14 31 16 23 18 49 65 17 0 0 15 0 0
0 0 0 0 0 0 0 0 0 0 0 0 0 0 0 0 0 0 0 2 52 117 386 584 341 139 0 1 3 7 18 13 6 0 0 17 12 10 27 26 9 21 34 18 2 0 19 0 0
0 0 0 0 0 0 0 0 0 0 0 0 0 0 0 0 0 0 0 8 61 150 427 415 279 99 4 2 0 3 6 8 6 15 10 32 12 6 16 3 12 9 2 26 2 0 8 0 0
0 0 0 0 0 0 0 0 0 0 0 0 0 0 0 0 0 0 0 7 77 247 374 335 270 50 6 0 1 3 0 6 8 5 9 43 10 11 7 2 8 9 3 6 0 0 0 0 0
0 0 0 0 0 0 0 0 0 0 0 0 0 0 0 0 0 0 0 0 88 202 309 331 215 61 9 2 1 1 0 0 1 95 13 12 40 19 13 18 36 11 34 0 0 0 0 0 0
0 0 0 0 0 0 0 0 0 0 0 0 0 0 0 0 0 0 0 0 2 158 288 297 199 87 5 0 0 0 0 0 16 6 12 14 28 21 30 27 51 0 40 0 0 0 0 0 0
0 0 0 0 0 0 0 0 0 0 0 0 0 0 0 0 0 0 0 0 0 67 301 278 209 115 3 0 0 0 17 0 0 0 0 1 11 12 27 47 116 75 4 0 0 0 0 0 0
0 0 0 0 0 0 0 0 0 0 0 0 0 0 0 0 0 0 0 0 1 5 205 266 202 146 0 0 0 0 0 0 8 0 12 0 5 17 45 56 68 52 0 0 0 0 0 1 0
0 0 0 0 0 0 0 0 0 0 0 0 0 0 0 0 0 0 0 0 0 0 121 233 195 145 0 0 1 3 0 0 5 7 14 10 22 40 35 38 42 35 5 3 0 0 0 6 29
0 0 0 0 0 0 0 0 0 0 0 0 0 0 0 0 0 0 8 20 0 0 69 172 188 104 4 0 4 1 0 0 0 2 1 11 5 18 36 41 48 11 1 1 65 55 74 116 80
0 0 0 0 0 0 0 0 0 6 9 0 2 10 0 0 0 4 0 120 14 2 51 176 198 19 2 2 2 1 0 0 2 1 1 10 16 15 20 0 2 10 5 0 3 33 3 73 63
0 0 0 0 0 0 0 0 0 0 0 0 9 21 0 0 0 15 17 213 46 27 124 236 200 3 4 0 0 0 0 0 0 1 1 20 10 23 6 15 4 24 29 9 2 0 2 27 3
8 0 0 0 0 0 0 0 15 47 8 0 20 11 1 0 0 43 156 270 219 100 219 322 67 7 4 3 1 0 0 0 0 0 2 4 18 11 56 4 18 8 5 15 3 0 18 1 16

GFSSGP_con_mucape_111.txt.gz
CAPE
0 0 0 0 0 0 0 0 0 0 0 0 0 0 0 0 0 0 0 670 836 1347 1437 1383 1327 1214 1439 1665 1776 2012 2271 2294 2272 2235 2180 2140 2093 2048 2114 2177 2120 2054 2099 1827 1879 2104 1825 1599 1569
0 0 0 0 0 0 0 0 0 0 0 0 0 0 0 0 0 0 0 718 1009 1332 1444 1451 1089 1421 1615 1725 1893 2134 2464 2464 2385 2333 2203 2056 2151 2170 2226 2175 2081 2103 2096 1986 1817 1789 1587 1581 1330
0 0 0 0 0 0 0 0 0 0 0 0 0 0 0 0 0 0 5 847 1232 1294 1337 1482 1206 1398 1640 1760 1851 2112 2393 2376 2143 2070 2289 2179 2141 2230 2176 2043 1928 1956 2053 2058 1705 1674 1533 1298 1046
0 0 0 0 0 0 0 0 0 0 0 0 0 0 0 0 26 117 74 1018 1380 1465 1427 1213 1349 1410 1619 1776 1917 2039 2013 2036 1991 2105 2208 1590 1831 1917 1691 1855 1920 1618 1957 1870 1821 1581 1383 953 752
0 0 0 0 0 0 0 0 0 0 0 0 0 0 0 0 16 134 342 1253 1548 1610 1540 1539 1355 1450 1623 1737 1967 1938 1880 1839 1746 1571 1703 1391 1094 1030 1094 1290 1262 1311 1581 1507 1362 1456 988 698 566
0 0 0 0 0 0 0 0 0 0 0 0 0 0 0 0 41 345 936 1442 1590 1697 1717 1650 1325 1467 1603 1604 1443 1660 1599 1626 1521 1535 1595 1105 833 1217 1309 1282 1239 1314 1316 1042 1027 966 699 539 457
0 0 0 0 0 0 0 0 0 0 0 0 0 0 0 0 16 286 1247 1453 1489 1631 1763 1824 1822 1631 1581 1524 1285 1513 1446 1384 1205 1152 875 894 941 1045 1152 1028 983 1127 1064 1030 936 665 567 484 447
0 0 0 0 0 0 0 0 0 0 0 0 0 0 0 0 94 350 1098 1491 1518 1537 1677 1809 1879 1894 2023 2064 1482 1296 1448 1143 881 744 428 394 437 550 651 606 831 971 903 809 659 507 497 391 403
0 0 0 0 0 0 0 0 0 0 0 0 0 0 0 0 168 370 688 1072 1389 1367 1487 1556 1809 1882 1702 1666 1988 1445 1360 1010 765 525 269 200 491 371 142 308 538 650 638 609 378 412 305 371 307
0 0 0 0 0 0 0 0 0 0 0 0 0 0 0 3 175 461 603 857 1161 1406 1262 1466 1666 1577 1807 1667 1474 1953 1462 1006 784 770 420 436 333 362 232 244 282 497 498 346 301 268 226 251 202
0 0 0 0 0 0 0 0 0 0 0 0 0 0 0 0 37 350 555 621 753 1054 1280 1224 1432 1704 1457 1678 1191 1477 1466 1054 835 599 627 286 256 254 305 177 393 505 474 391 238 199 137 91 24
0 0 0 0 0 0 0 0 0 0 0 0 0 0 0 0 0 53 439 530 487 606 976 1113 1217 1269 1173 1220 1272 1531 1236 1186 763 597 385 428 313 256 217 99 148 228 525 326 154 103 41 10 0
0 0 0 0 0 0 0 0 0 0 0 0 0 0 0 0 0 5 228 327 413 494 654 920 963 1108 860 879 945 921 1256 680 616 377 315 178 377 283 201 152 177 269 161 146 120 81 36 7 0
0 0 0 0 0 0 0 0 0 0 0 0 0 0 0 0 0 0 24 161 234 423 574 691 794 747 847 778 742 409 782 440 528 202 133 193 109 148 142 136 261 98 153 75 66 76 3 7 0
0 0 0 0 0 0 0 0 0 0 0 0 0 0 0 0 0 0 0 0 108 347 442 526 571 636 663 379 326 295 472 543 159 75 59 87 87 84 113 197 103 103 125 55 58 49 0 6 8
0 0 0 0 0 0 0 0 0 0 0 0 0 0 0 0 0 0 0 0 0 72 334 408 274 500 562 509 499 83 254 464 81 26 49 70 91 65 73 102 90 104 66 54 52 27 4 17 9
0 0 0 0 0 0 0 0 0 0 0 0 0 0 0 0 0 0 0 0 0 22 189 290 388 539 609 567 304 173 468 64 136 13 16 26 22 30 66 185 78 67 57 40 20 21 39 10 7
0 0 0 0 0 0 0 0 0 0 0 0 0 0 0 0 0 0 0 0 0 17 134 293 425 564 630 544 228 291 37 14 35 6 69 22 31 47 65 91 60 12 20 30 3 12 42 0 0
0 0 0 0 0 0 0 0 0 0 0 0 0 0 0 0 0 0 0 0 0 35 95 192 281 569 645 399 166 30 31 8 2 8 11 5 14 48 34 6 24 32 34 23 5 25 35 0 4
0 0 0 0 0 0 0 0 0 0 0 0 0 0 0 0 0 0 0 0 2 4 73 63 198 588 583 303 71 19 32 11 6 17 16 6 16 16 27 16 17 23 38 49 10 12 24 0 0
0 0 0 0 0 0 0 0 0 0 0 0 0 0 0 0 0 0 0 0 1 4 11 84 288 667 465 245 26 0 18 3 15 40 14 4 6 20 22 22 18 26 46 35 4 4 6 0 0
0 0 0 0 0 0 0 0 0 0 0 0 0 0 0 0 0 0 0 0 0 1 73 127 471 554 390 227 50 0 2 15 26 23 24 4 7 73 6 12 30 17 23 30 15 21 3 0 0
0 0 0 0 0 0 0 0 0 0 0 0 0 0 0 0 0 0 0 0 0 1 57 115 471 471 358 191 62 1 13 28 17 8 19 10 3 18 12 7 10 19 26 3 6 7 13 0 0
0 0 0 0 0 0 0 0 0 0 0 0 0 0 0 0 0 0 0 0 0 3 0 113 441 414 342 186 87 4 3 3 20 6 0 5 15 4 11 13 7 28 4 2 1 6 5 0 0
0 0 0 0 0 0 0 0 0 0 0 0 0 0 0 0 0 0 0 0 0 0 2 15 364 413 292 171 47 11 0 1 23 3 0 0 9 3 31 24 9 3 4 6 16 21 0 0 0
0 0 0 0 0 0 0 0 0 0 0 0 0 0 0 0 0 0 0 0 0 0 6 5 297 377 266 153 13 10 13 1 30 1 14 2 2 9 6 30 14 54 54 70 18 0 0 0 0
0 0 0 0 0 0 0 0 0 0 0 0 0 0 0 0 0 0 0 0 2 0 1 7 221 324 239 167 0 3 2 2 10 3 4 0 11 6 18 3 31 94 73 82 0 0 0 0 0
0 0 0 0 0 0 0 0 0 6 10 21 0 0 0 0 0 1 2 18 45 0 82 27 139 280 228 0 0 2 1 0 2 0 5 9 4 1 13 16 45 59 71 34 1 0 0 4 25
0 1 7 3 0 0 0 0 0 1 37 59 1 0 0 0 0 0 26 96 60 7 74 41 131 248 213 4 3 2 3 0 5 2 4 8 0 6 3 13 30 17 31 23 0 0 2 0 0
7 0 0 14 0 0 0 0 0 20 40 12 6 0 0 0 0 0 1 14 101 14 177 31 191 219 46 4 1 0 5 2 0 1 3 3 13 21 11 1 4 8 7 4 0 0 0 0 0

GFSSGP_con_mucape_114.txt.gz
CAPE
0 0 0 0 0 0 0 0 0 0 0 0 0 0 0 0 0 0 0 864 432 767 1342 1448 1395 1192 1399 1606 1776 2022 2177 2243 2277 2232 2194 2138 2166 2113 1986 1959 2022 2135 2261 1941 1728 1730 1662 1647 1469
0 0 0 0 0 0 0 0 0 0 0 0 0 0 0 0 0 0 183 749 448 784 1308 1617 1252 1263 1426 1789 1978 2187 2432 2398 2341 2314 2283 1954 2123 2009 1764 2052 1987 2063 2180 2157 1883 1807 1730 1676 1518
0 0 0 0 0 0 0 0 0 0 0 0 0 0 0 0 0 0 0 623 455 780 1054 1681 1180 1276 1579 1827 2016 2201 2447 2326 2308 2251 2101 1851 1628 1415 1228 1189 1986 2141 2305 2244 1772 1746 1751 1527 1324
0 0 0 0 0 0 0 0 0 0 0 0 0 0 0 0 0 0 0 519 681 878 983 1264 1042 1255 1609 1837 2033 2143 2306 2256 2142 1939 2031 1927 1540 1345 1062 1036 1787 2074 2093 1913 1635 1901 1546 1175 1008
0 0 0 0 0 0 0 0 0 0 0 0 0 0 0 0 2 157 83 719 888 1148 1319 1836 1091 1267 1634 1909 2026 2077 2054 2082 1895 1751 1664 1423 503 90 368 647 712 1591 1692 1883 1753 1494 1182 833 722
0 0 0 0 0 0 0 0 0 0 0 0 0 0 0 0 0 333 445 1033 1449 1816 1908 2045 1315 1284 1450 1698 1800 1864 1698 1717 1644 1562 1510 1070 388 414 500 1066 1227 1547 1588 1549 1466 1137 934 653 559
0 0 0 0 0 0 0 0 0 0 0 0 0 0 0 0 87 756 1046 1469 1985 2168 2171 2222 2128 1791 1271 1244 1373 1663 1743 1632 1555 1326 1266 926 699 683 1097 912 1300 1406 1279 1304 1128 799 652 566 492
0 0 0 0 0 0 0 0 0 0 0 0 0 0 0 0 125 689 1351 1622 1863 2132 2216 2247 2333 2283 2084 1794 1165 1387 1489 1596 1517 1286 1063 727 268 661 867 915 1090 1178 1188 1187 848 625 479 482 471
0 0 0 0 0 0 0 0 0 0 0 0 0 0 0 0 4 277 1244 1792 1930 1980 2130 2280 2348 2354 2231 2240 1712 1223 1455 1247 1225 1140 913 623 1130 1304 1063 679 850 1004 963 892 560 504 385 377 377
0 0 0 0 0 0 0 0 0 0 0 0 0 0 0 0 0 0 441 1257 1923 1984 2126 2136 2340 2396 2168 2114 2164 2079 2217 2073 1764 1538 1148 1272 1281 936 510 216 611 751 648 534 358 316 349 320 401
0 0 0 0 0 0 0 0 0 0 0 0 0 0 0 0 0 0 0 333 1024 1652 2057 2080 2287 2436 2036 1707 1797 2331 2503 2280 2113 1712 1448 1179 1070 617 179 328 625 1117 452 715 365 261 522 555 525
0 0 0 0 0 0 0 0 0 0 0 0 0 0 0 0 0 0 0 0 371 1096 1916 2106 2161 2419 2009 1715 1641 2075 1876 2072 1633 1576 1415 1221 1255 1006 475 508 436 683 512 837 765 816 591 470 337
0 0 0 0 0 0 0 0 0 0 0 0 0 0 0 0 0 0 0 0 48 746 1361 1960 2133 2281 2108 1812 1805 1517 1592 1356 1126 1134 975 980 1268 1027 457 406 239 460 743 191 494 604 375 299 214
0 0 0 0 0 0 0 0 0 0 0 0 0 0 0 0 0 0 0 0 101 450 1061 1607 1986 2105 1899 1512 1317 1245 1446 1335 900 750 1204 982 1313 761 828 754 334 425 439 282 149 80 220 174 183
0 0 0 0 0 0 0 0 0 0 0 0 0 0 0 0 0 0 0 0 0 143 660 1327 1842 1918 1761 1554 1378 1157 1208 1325 767 556 770 716 584 500 755 851 900 307 543 370 75 47 114 131 161
0 0 0 0 0 0 0 0 0 0 0 0 0 0 0 0 0 0 0 0 0 0 130 913 1260 1795 1497 1279 1329 1041 925 980 774 565 372 401 363 202 327 550 814 525 146 120 45 30 154 171 169
0 0 0 0 0 0 0 0 0 0 0 0 0 0 0 0 0 0 0 0 0 0 0 722 1373 1697 1494 1428 1018 687 687 584 311 182 398 345 268 188 242 126 668 400 175 244 56 64 185 146 156
0 0 0 0 0 0 0 0 0 0 0 0 0 0 0 0 0 0 0 0 0 0 15 588 1171 1475 1290 1032 686 724 607 390 175 178 47 166 62 98 82 61 118 187 129 194 111 139 180 150 138
0 0 0 0 0 0 0 0 0 0 0 0 0 0 0 0 0 0 0 0 74 74 133 586 978 1374 917 588 569 661 555 274 295 284 15 3 8 53 9 32 98 61 52 227 147 228 204 180 162
0 0 0 0 0 0 0 0 0 0 0 0 0 0 0 0 0 0 0 0 211 300 420 534 854 1293 845 503 805 582 306 99 30 57 59 32 51 3 16 19 58 56 60 94 54 181 204 172 192
0 0 0 0 0 0 0 0 0 0 0 0 0 0 0 0 0 0 0 0 65 400 585 605 827 1180 853 1068 581 677 494 137 281 181 139 31 7 21 15 3 25 36 51 33 13 129 167 137 181
0 0 0 0 0 0 0 0 0 0 0 0 0 0 0 0 0 0 0 0 11 318 542 501 762 854 863 1040 690 595 396 157 152 175 148 61 93 63 6 19 26 36 44 49 22 16 68 162 125
0 0 0 0 0 0 0 0 0 0 0 0 0 0 0 0 2 63 3 0 0 260 408 147 449 568 789 957 719 455 154 132 104 214 210 207 79 29 9 38 44 28 7 38 33 31 24 74 203
0 0 0 0 0 0 0 0 0 0 0 0 0 0 0 0 19 69 54 0 6 411 76 46 330 673 442 505 435 272 115 42 92 97 163 142 48 20 17 22 22 43 28 4 33 20 17 153 200
0 0 0 0 0 0 0 0 0 0 0 0 0 0 0 0 178 189 153 103 99 280 4 231 759 422 517 506 387 244 110 4 6 14 65 51 1 3 14 1 10 13 5 1 8 41 13 99 191
0 0 0 0 0 0 0 0 0 0 0 0 5 0 0 119 395 304 222 325 166 3 6 57 500 230 485 450 371 221 21 10 18 70 42 13 1 2 2 9 6 7 14 3 6 33 9 27 132
0 28 0 0 6 0 0 0 0 0 0 18 54 16 34 295 529 438 277 238 139 3 2 2 335 200 434 408 343 192 10 15 15 68 30 3 0 8 6 2 10 13 15 8 15 3 17 17 49
0 0 1 10 0 0 0 0 0 0 9 76 120 80 109 331 268 194 149 17 6 0 0 3 168 144 371 384 295 21 3 19 22 59 6 1 2 0 5 1 11 10 25 7 12 10 12 51 61
0 40 24 5 3 0 0 0 33 84 115 253 214 85 115 183 181 60 5 0 0 1 36 2 37 52 336 390 266 9 8 16 21 34 19 4 2 12 0 0 1 34 36 44 42 29 10 4 1
4 23 65 51 0 0 0 29 146 109 310 437 133 43 36 65 38 2 0 0 3 2 72 294 60 431 290 292 13 0 13 25 19 18 1 2 0 2 0 0 3 9 55 64 47 0 0 0 0

GFSSGP_con_mucape_117.txt.gz
CAPE
0 0 0 0 0 0 0 0 0 0 0 0 0 0 0 0 0 0 0 182 22 231 1261 1334 1353 1563 1530 1586 1688 1877 2124 2264 2165 2096 2081 1920 1670 1834 2212 2151 2182 2094 2025 1839 1679 1750 1783 1654 1571
0 0 0 0 0 0 0 0 0 0 0 0 0 0 0 0 0 0 6 176 33 320 1290 1589 1194 1321 1660 1738 1839 2086 2240 2337 2235 2185 2137 1849 1648 1693 1600 1672 1786 1883 2004 2155 1804 1760 1760 1658 1544
0 0 0 0 0 0 0 0 0 0 0 0 0 0 0 0 0 0 0 4 18 304 889 1900 1179 1262 1679 1861 2001 2279 2343 2239 2206 2201 2052 1472 1382 1067 316 534 797 1433 2389 2045 1878 1763 1766 1554 1314
0 0 0 0 0 0 0 0 0 0 0 0 0 0 0 0 0 0 0 0 3 303 591 1419 1031 1280 1626 1913 2052 2181 2251 2085 2084 2123 1958 1394 872 481 211 203 573 768 1445 2016 1922 1961 1654 1250 1096
0 0 0 0 0 0 0 0 0 0 0 0 0 0 0 0 0 0 0 2 247 398 1309 1768 1036 1319 1681 1937 2093 2047 2004 2001 2026 1988 1814 1082 506 323 367 509 491 205 726 1965 1935 1620 1326 1066 894
0 0 0 0 0 0 0 0 0 0 0 0 0 0 0 0 0 0 0 328 698 1071 1717 1866 1111 1321 1603 1799 1814 1861 1892 1877 1918 1771 1496 681 361 93 233 596 610 422 963 1579 1472 1180 972 833 755
0 0 0 0 0 0 0 0 0 0 0 0 0 0 0 0 25 519 184 556 1211 1774 2044 2125 1825 1551 1379 1509 1490 1693 1671 1745 1784 1701 1351 902 529 252 182 292 685 560 1162 1407 1150 842 727 668 530
0 0 0 0 0 0 0 0 0 0 0 0 0 0 0 2 0 177 560 973 1553 2050 2063 2196 2121 2087 2109 1889 1335 1450 1588 1506 1596 1332 1248 906 499 342 316 704 827 1077 1224 1218 941 711 609 541 436
0 0 0 0 0 0 0 0 0 0 0 0 0 0 0 0 0 84 786 1246 1669 2055 2110 2049 2180 2319 2375 2176 1693 1237 1295 1462 1436 1365 1242 853 676 172 645 732 870 1016 1057 875 619 599 474 432 375
0 0 0 0 0 0 0 0 0 0 0 0 0 0 0 0 0 0 185 986 1530 1860 2138 2071 2226 2380 2502 1957 2131 1768 1800 1769 1609 1807 1528 1608 1192 936 958 723 803 872 824 564 413 418 275 291 526
0 0 0 0 0 0 0 0 0 0 0 0 0 0 0 0 0 0 0 31 1012 1482 1927 2092 2306 2462 2482 2341 2327 2034 1985 1870 2067 1726 1777 1728 1175 1723 1088 1255 811 1226 719 728 417 174 639 510 542
0 0 0 0 0 0 0 0 0 0 0 0 0 0 0 0 0 0 0 0 8 710 1844 2134 2137 2436 2714 2318 2125 2049 2126 1958 1958 1981 2152 1587 1482 1368 1248 432 126 710 1315 896 337 642 857 590 519
0 0 0 0 0 0 0 0 0 0 0 0 0 0 0 0 0 0 0 0 0 13 943 2085 2186 2578 2638 2378 1925 2036 2214 2167 2149 1915 2097 1644 1416 1071 881 762 736 858 1207 1151 490 722 897 680 432
0 0 0 0 0 0 0 0 0 0 0 0 0 0 0 0 0 0 0 0 0 0 553 1558 2292 2430 2807 2212 2075 2141 1976 1887 2061 1955 1894 1601 1362 1549 1019 1213 848 567 1068 665 212 310 497 594 290
0 0 0 0 0 0 0 0 0 0 0 0 0 0 0 0 0 0 0 0 0 0 134 1129 2100 2618 2797 2042 1848 1935 1694 1696 1867 1556 1887 1653 1408 1418 1212 1147 904 617 1052 197 77 88 155 471 212
0 0 0 0 0 0 0 0 0 0 0 0 0 0 0 0 0 0 0 0 0 0 66 437 1072 2497 2883 2400 2264 1817 1499 1576 1743 1307 1514 1604 1217 1135 1332 1040 1207 897 852 160 57 127 93 58 142
0 0 0 0 0 1 0 0 0 0 0 0 0 0 0 0 0 0 0 0 0 0 0 56 1483 1990 2952 2507 2023 1917 1670 1511 1523 1344 1074 1190 1085 920 990 1086 995 814 794 527 88 62 33 14 82
0 0 0 0 0 0 0 0 0 0 0 0 0 0 0 0 0 0 0 0 0 0 0 0 932 2028 2855 2438 2016 1831 1536 1103 1122 925 906 955 983 743 702 976 920 969 640 278 26 35 30 19 78
0 0 0 0 0 0 0 0 0 0 0 0 0 0 0 0 0 0 0 0 0 0 41 110 466 1699 2304 2060 1987 1269 1049 1136 1148 677 579 699 874 537 645 566 549 149 112 83 68 58 55 55 227
0 0 0 0 0 0 0 0 0 0 0 0 0 0 0 0 0 0 0 0 0 0 256 316 664 1310 1935 1472 1309 1212 1314 1128 1059 678 581 368 295 366 278 384 207 24 68 72 31 48 22 42 234
0 0 0 0 0 0 0 0 0 0 0 0 0 0 0 0 0 0 0 0 0 30 425 488 736 1059 1665 1200 1246 1318 1126 862 652 328 399 444 146 58 20 16 61 32 42 30 38 49 25 0 109
0 0 0 0 0 0 0 0 0 0 0 0 0 0 0 0 0 0 0 0 0 4 330 637 738 975 1498 1006 1246 1473 1045 670 660 558 522 343 281 95 12 2 7 9 19 28 32 34 66 69 125
0 0 0 0 0 0 0 0 0 0 0 0 0 0 0 0 0 0 0 0 0 2 406 889 916 1049 1343 1383 1382 1457 1380 940 640 464 538 369 293 173 44 5 17 38 9 3 34 5 64 59 145
0 0 0 3 0 0 0 0 0 0 0 0 0 0 0 0 0 2 29 176 3 541 869 950 901 1162 1306 1417 1559 1431 1324 916 636 502 460 506 405 405 122 44 3 2 4 16 21 23 47 57 84
11 0 0 0 0 0 0 0 0 0 0 2 31 14 10 40 124 164 228 327 61 467 777 193 454 877 993 1313 1526 1318 1107 765 590 510 406 411 388 230 166 38 7 12 5 3 7 30 54 30 23
24 22 0 0 0 0 0 0 0 0 0 8 24 68 113 201 473 417 546 651 503 550 501 52 350 746 678 1064 1343 976 815 614 372 255 191 142 273 100 15 21 10 25 1 8 40 30 45 47 8
27 97 12 39 22 0 1 0 0 0 0 71 130 123 287 477 643 658 693 605 455 154 7 3 100 733 935 936 876 653 544 326 182 103 239 261 101 16 21 3 13 6 3 6 25 6 42 40 31
56 20 50 107 0 0 0 0 0 0 7 98 159 259 478 647 600 523 432 225 51 24 1 48 131 462 645 380 885 499 376 279 122 185 237 118 8 2 0 8 1 10 0 2 7 15 16 25 19
60 57 43 34 83 0 0 0 1 24 12 73 186 358 549 628 597 280 10 2 0 3 0 0 70 376 555 494 739 651 324 149 65 244 177 37 3 1 0 0 0 1 9 8 2 3 10 7 30
341 51 59 70 2 45 0 0 168 140 97 103 433 400 646 486 248 67 3 0 0 0 0 0 55 157 218 188 366 406 343 14 96 110 108 17 0 2 0 0 0 0 3 10 15 11 5 13 34